[[{"header":{"parameterUnit":"m.s-1","parameterCategory":1,"la1":30.6,"la2":29.2853,"lo1":-89.7004,"lo2":-87.6739,"dy":0.0162,"dx":0.0183,"nx":112,"ny":82,"refTime":"2023-04-10T12:00:00:Z","depth":0,"parameterNumber":2,"parameterNumberName":"U-component_of_WINDS"},"data":[0.0,0.0,0.0,0.0,0.0,0.0,0.0,0.0,0.0,0.0,0.0,0.0,0.0,0.0,0.0,0.0,0.0,0.0,0.0,0.0,0.0,0.0,0.0,0.0,0.0,0.0,0.0,0.0,0.0,0.0,0.0,0.0,0.0,0.0,0.0,0.0,0.0,0.0,0.0,0.0,0.0,0.0,0.0,0.0,0.0,0.0,0.0,0.0,0.0,0.0,0.0,0.0,0.0,0.0,0.0,0.0,0.0,0.0,0.0,0.0,0.0,0.0,0.0,0.0,0.0,0.0,0.0,0.0,0.0,0.0,0.0,0.0,0.0,0.0,0.0,0.0,0.0,0.0,0.0,0.0,0.0,0.0,0.0,0.0,0.0,0.0,0.0,0.0,0.0,0.0,-4.6835,-5.0087,-5.2072,-5.3206,-5.3206,-5.1962,-5.0127,-4.7651,0.0,0.0,0.0,0.0,0.0,0.0,0.0,0.0,0.0,0.0,0.0,0.0,0.0,0.0,0.0,0.0,0.0,0.0,0.0,0.0,0.0,0.0,0.0,0.0,0.0,0.0,0.0,0.0,0.0,0.0,0.0,0.0,0.0,0.0,0.0,0.0,0.0,0.0,0.0,0.0,0.0,0.0,0.0,0.0,0.0,0.0,0.0,0.0,0.0,0.0,0.0,0.0,0.0,0.0,0.0,0.0,0.0,0.0,0.0,0.0,0.0,0.0,0.0,0.0,0.0,0.0,0.0,0.0,0.0,0.0,0.0,0.0,0.0,0.0,0.0,0.0,0.0,0.0,0.0,0.0,0.0,0.0,0.0,0.0,0.0,0.0,0.0,0.0,0.0,0.0,0.0,0.0,0.0,0.0,0.0,0.0,0.0,0.0,0.0,0.0,0.0,0.0,0.0,0.0,-4.9069,-5.2346,-5.3017,-5.3206,-5.3206,-5.2427,-5.0678,-4.7687,0.0,0.0,0.0,0.0,0.0,0.0,0.0,0.0,0.0,0.0,0.0,0.0,0.0,0.0,0.0,0.0,0.0,0.0,0.0,0.0,0.0,0.0,0.0,0.0,0.0,0.0,0.0,0.0,0.0,0.0,0.0,0.0,0.0,0.0,0.0,0.0,0.0,0.0,0.0,0.0,0.0,0.0,0.0,0.0,0.0,0.0,0.0,0.0,0.0,0.0,0.0,0.0,0.0,0.0,0.0,0.0,0.0,0.0,0.0,0.0,0.0,0.0,0.0,0.0,0.0,0.0,0.0,0.0,0.0,0.0,0.0,0.0,0.0,0.0,0.0,0.0,0.0,0.0,0.0,0.0,0.0,0.0,0.0,0.0,0.0,0.0,0.0,0.0,0.0,0.0,0.0,0.0,0.0,0.0,0.0,0.0,0.0,0.0,0.0,0.0,0.0,0.0,0.0,-4.8972,-5.186,-5.3378,-5.3545,-5.3545,-5.3545,-5.3011,-5.134,-4.8156,-4.7519,0.0,0.0,0.0,0.0,0.0,0.0,0.0,0.0,0.0,0.0,0.0,0.0,0.0,0.0,0.0,0.0,0.0,0.0,0.0,0.0,0.0,0.0,0.0,0.0,0.0,0.0,0.0,0.0,0.0,0.0,0.0,0.0,0.0,0.0,0.0,0.0,0.0,0.0,0.0,0.0,0.0,0.0,0.0,0.0,0.0,0.0,0.0,0.0,0.0,0.0,0.0,0.0,0.0,0.0,0.0,0.0,0.0,0.0,0.0,0.0,0.0,0.0,0.0,0.0,0.0,0.0,0.0,0.0,0.0,0.0,0.0,0.0,0.0,0.0,0.0,0.0,0.0,0.0,0.0,0.0,0.0,0.0,0.0,0.0,0.0,0.0,0.0,0.0,0.0,0.0,0.0,0.0,0.0,0.0,0.0,0.0,0.0,0.0,0.0,0.0,0.0,0.0,-5.1435,-5.3422,-5.3904,-5.3977,-5.3905,-5.3814,-5.3505,-5.1897,-4.8508,-4.8478,0.0,0.0,0.0,0.0,0.0,0.0,0.0,0.0,0.0,0.0,0.0,0.0,0.0,0.0,0.0,0.0,0.0,0.0,0.0,0.0,0.0,0.0,0.0,0.0,0.0,0.0,0.0,0.0,0.0,0.0,0.0,0.0,0.0,0.0,0.0,0.0,0.0,0.0,0.0,0.0,0.0,0.0,0.0,0.0,0.0,0.0,0.0,0.0,0.0,0.0,0.0,0.0,0.0,0.0,0.0,0.0,0.0,0.0,0.0,0.0,0.0,0.0,0.0,0.0,0.0,0.0,0.0,0.0,0.0,0.0,0.0,0.0,0.0,0.0,0.0,0.0,0.0,0.0,0.0,0.0,0.0,0.0,0.0,0.0,0.0,0.0,0.0,0.0,0.0,0.0,0.0,0.0,0.0,0.0,0.0,0.0,0.0,0.0,0.0,0.0,0.0,0.0,-5.1181,-5.2295,-5.4237,-5.4471,-5.4255,-5.3851,-5.3777,-5.2177,-4.8546,-4.8478,0.0,0.0,0.0,0.0,0.0,0.0,0.0,0.0,0.0,0.0,0.0,0.0,0.0,0.0,0.0,0.0,0.0,0.0,0.0,0.0,0.0,0.0,0.0,0.0,0.0,0.0,0.0,0.0,0.0,0.0,0.0,0.0,0.0,0.0,0.0,0.0,0.0,0.0,0.0,0.0,0.0,0.0,0.0,0.0,0.0,0.0,0.0,0.0,0.0,0.0,0.0,0.0,0.0,0.0,0.0,0.0,0.0,0.0,0.0,0.0,0.0,0.0,0.0,0.0,0.0,0.0,0.0,0.0,0.0,0.0,0.0,0.0,0.0,0.0,0.0,0.0,0.0,0.0,0.0,0.0,0.0,0.0,0.0,0.0,0.0,0.0,0.0,0.0,0.0,0.0,0.0,0.0,0.0,0.0,0.0,0.0,0.0,0.0,0.0,0.0,0.0,0.0,-5.3732,-5.5564,-5.6358,-5.6434,-5.6166,-5.5485,-5.4903,-5.2939,-4.8987,0.0,0.0,0.0,0.0,0.0,0.0,0.0,0.0,0.0,0.0,0.0,0.0,0.0,0.0,0.0,0.0,0.0,0.0,0.0,0.0,0.0,0.0,0.0,0.0,0.0,0.0,0.0,0.0,0.0,0.0,0.0,0.0,0.0,0.0,0.0,0.0,0.0,0.0,0.0,0.0,0.0,0.0,0.0,0.0,0.0,0.0,0.0,0.0,0.0,0.0,0.0,0.0,0.0,0.0,0.0,0.0,0.0,0.0,0.0,0.0,0.0,0.0,0.0,0.0,0.0,0.0,0.0,0.0,0.0,0.0,0.0,0.0,0.0,0.0,0.0,0.0,0.0,0.0,0.0,0.0,0.0,0.0,0.0,0.0,0.0,0.0,0.0,0.0,0.0,0.0,0.0,0.0,0.0,0.0,0.0,0.0,0.0,0.0,0.0,0.0,0.0,0.0,-5.2756,-5.5606,-5.766,-5.7806,-5.7832,-5.7531,-5.6832,-5.6236,-5.4198,-5.0202,0.0,0.0,0.0,0.0,0.0,0.0,0.0,0.0,0.0,0.0,0.0,0.0,0.0,0.0,0.0,0.0,0.0,0.0,0.0,0.0,0.0,0.0,0.0,0.0,0.0,0.0,0.0,0.0,0.0,0.0,0.0,0.0,0.0,0.0,0.0,0.0,0.0,0.0,0.0,0.0,0.0,0.0,0.0,0.0,0.0,0.0,0.0,0.0,0.0,0.0,0.0,0.0,0.0,0.0,0.0,0.0,0.0,0.0,0.0,0.0,0.0,0.0,0.0,0.0,0.0,0.0,0.0,0.0,0.0,0.0,0.0,0.0,0.0,0.0,0.0,0.0,0.0,0.0,0.0,0.0,0.0,0.0,0.0,0.0,0.0,0.0,0.0,0.0,0.0,0.0,0.0,0.0,0.0,0.0,0.0,0.0,0.0,0.0,0.0,0.0,0.0,0.0,-5.4353,-5.6326,-5.7825,-5.8296,-5.8338,-5.8146,-5.766,-5.7633,-5.6026,0.0,0.0,0.0,0.0,0.0,0.0,0.0,0.0,0.0,0.0,0.0,0.0,0.0,0.0,0.0,0.0,0.0,0.0,0.0,0.0,0.0,0.0,0.0,0.0,0.0,0.0,0.0,0.0,0.0,0.0,0.0,0.0,0.0,0.0,0.0,0.0,0.0,0.0,0.0,0.0,0.0,0.0,0.0,0.0,0.0,0.0,0.0,0.0,0.0,0.0,0.0,0.0,0.0,0.0,0.0,0.0,0.0,0.0,0.0,0.0,0.0,0.0,0.0,0.0,0.0,0.0,0.0,0.0,0.0,0.0,0.0,0.0,0.0,0.0,0.0,0.0,0.0,0.0,0.0,0.0,0.0,0.0,0.0,0.0,0.0,0.0,0.0,0.0,0.0,0.0,0.0,0.0,0.0,0.0,0.0,0.0,0.0,0.0,0.0,0.0,0.0,0.0,0.0,-5.5299,-5.8001,-5.9917,-6.005,-6.005,-5.9753,-5.901,-5.8685,-5.6785,-5.2741,0.0,0.0,0.0,0.0,0.0,0.0,0.0,0.0,0.0,0.0,0.0,0.0,0.0,0.0,0.0,0.0,0.0,0.0,0.0,0.0,0.0,0.0,0.0,0.0,0.0,0.0,0.0,0.0,0.0,0.0,0.0,0.0,0.0,0.0,0.0,0.0,0.0,0.0,0.0,0.0,0.0,0.0,0.0,0.0,0.0,0.0,0.0,0.0,0.0,0.0,0.0,0.0,0.0,0.0,0.0,0.0,0.0,0.0,0.0,0.0,0.0,0.0,0.0,0.0,0.0,0.0,0.0,0.0,0.0,0.0,0.0,0.0,0.0,0.0,0.0,0.0,0.0,0.0,0.0,0.0,0.0,0.0,0.0,0.0,0.0,0.0,0.0,0.0,0.0,0.0,0.0,0.0,0.0,0.0,0.0,0.0,0.0,0.0,0.0,0.0,0.0,0.0,-5.5769,-5.8712,-6.08,-6.08,-6.08,-6.0589,-6.0069,-5.9805,-5.8304,-5.5131,0.0,0.0,0.0,0.0,0.0,0.0,0.0,0.0,0.0,0.0,0.0,0.0,0.0,0.0,0.0,0.0,0.0,0.0,0.0,0.0,0.0,0.0,0.0,0.0,0.0,0.0,0.0,0.0,0.0,0.0,0.0,0.0,0.0,0.0,0.0,0.0,0.0,0.0,0.0,0.0,0.0,0.0,0.0,0.0,0.0,0.0,0.0,0.0,0.0,0.0,0.0,0.0,0.0,0.0,0.0,0.0,0.0,0.0,0.0,0.0,0.0,0.0,0.0,0.0,0.0,0.0,0.0,0.0,0.0,0.0,0.0,0.0,0.0,0.0,0.0,0.0,0.0,0.0,0.0,0.0,0.0,0.0,0.0,0.0,0.0,0.0,0.0,0.0,0.0,0.0,0.0,0.0,0.0,0.0,0.0,0.0,0.0,0.0,0.0,0.0,0.0,0.0,-5.5777,-5.872,-6.08,-6.08,-6.08,-6.08,-6.08,-6.08,-6.0089,-5.8415,0.0,0.0,0.0,0.0,0.0,0.0,0.0,0.0,0.0,0.0,0.0,0.0,0.0,0.0,0.0,0.0,0.0,0.0,0.0,0.0,0.0,0.0,0.0,0.0,0.0,0.0,0.0,0.0,0.0,0.0,0.0,0.0,0.0,0.0,0.0,0.0,0.0,0.0,0.0,0.0,0.0,0.0,0.0,0.0,0.0,0.0,0.0,0.0,0.0,0.0,0.0,0.0,0.0,0.0,0.0,0.0,0.0,0.0,0.0,0.0,-5.5545,-5.3159,0.0,0.0,0.0,0.0,0.0,0.0,0.0,0.0,0.0,0.0,0.0,0.0,0.0,0.0,0.0,0.0,0.0,0.0,0.0,0.0,0.0,0.0,0.0,0.0,0.0,0.0,0.0,0.0,0.0,0.0,0.0,0.0,0.0,0.0,0.0,0.0,0.0,0.0,0.0,0.0,-5.4965,-5.8353,-6.08,-6.08,-6.08,-6.08,-6.08,-6.08,-6.0089,-5.8415,-5.7716,0.0,0.0,0.0,0.0,0.0,0.0,0.0,0.0,0.0,0.0,0.0,0.0,0.0,0.0,0.0,0.0,0.0,0.0,0.0,0.0,0.0,0.0,0.0,0.0,0.0,0.0,0.0,0.0,0.0,0.0,0.0,0.0,0.0,0.0,0.0,0.0,0.0,0.0,0.0,0.0,0.0,0.0,0.0,0.0,0.0,0.0,0.0,0.0,0.0,0.0,0.0,0.0,0.0,0.0,0.0,0.0,0.0,0.0,0.0,-5.6387,-5.5195,0.0,0.0,0.0,0.0,0.0,0.0,0.0,0.0,0.0,0.0,0.0,0.0,0.0,0.0,0.0,0.0,0.0,0.0,0.0,0.0,0.0,0.0,0.0,0.0,0.0,0.0,0.0,0.0,0.0,0.0,0.0,0.0,0.0,0.0,0.0,0.0,0.0,0.0,0.0,0.0,-5.4902,-5.8383,-6.0904,-6.0904,-6.0834,-6.08,-6.08,-6.08,-6.0435,-5.955,-5.8742,0.0,0.0,0.0,0.0,0.0,0.0,0.0,0.0,0.0,0.0,0.0,0.0,0.0,0.0,0.0,0.0,0.0,0.0,0.0,0.0,0.0,0.0,0.0,0.0,0.0,0.0,0.0,0.0,0.0,0.0,0.0,0.0,0.0,0.0,0.0,0.0,0.0,0.0,0.0,0.0,0.0,0.0,0.0,0.0,0.0,0.0,0.0,0.0,0.0,0.0,0.0,0.0,0.0,-5.664,-5.7246,-5.7949,-5.7949,-5.7949,-5.7969,-5.8223,-5.834,-5.8164,-5.6015,0.0,0.0,0.0,0.0,0.0,0.0,0.0,0.0,0.0,0.0,0.0,0.0,0.0,0.0,0.0,0.0,0.0,0.0,0.0,0.0,0.0,0.0,-5.4484,-5.6656,-5.6948,-5.6792,-5.7104,0.0,0.0,0.0,0.0,0.0,0.0,0.0,0.0,0.0,0.0,0.0,-5.4885,-5.8492,-6.1048,-6.0997,-6.0904,-6.0831,-6.08,-6.08,-6.08,-6.08,-5.9492,-5.8607,0.0,0.0,0.0,0.0,0.0,0.0,0.0,0.0,0.0,0.0,0.0,0.0,0.0,0.0,0.0,0.0,0.0,0.0,0.0,0.0,0.0,0.0,0.0,0.0,0.0,0.0,0.0,0.0,0.0,0.0,0.0,0.0,-5.0216,-5.3133,0.0,0.0,0.0,0.0,0.0,0.0,0.0,0.0,0.0,0.0,0.0,0.0,0.0,-5.5859,-5.5762,-5.8281,-5.9609,-5.9765,-6.2031,-6.3164,-6.3281,-6.3281,-6.3281,-6.3164,-6.1015,0.0,-6.0039,-5.9707,0.0,0.0,0.0,0.0,0.0,0.0,0.0,0.0,0.0,0.0,0.0,0.0,0.0,0.0,0.0,0.0,0.0,0.0,0.0,0.0,0.0,0.0,-6.0544,-6.0896,-5.986,-5.9196,-6.0662,-5.7088,-5.4052,-5.5561,-5.4734,-5.3479,0.0,0.0,0.0,0.0,0.0,0.0,-5.4072,-5.8248,-6.12,-6.1014,-6.0979,-6.0925,-6.0804,-6.08,-6.08,-6.08,-6.0589,-5.9819,-5.8357,-5.9704,0.0,0.0,0.0,0.0,0.0,0.0,0.0,0.0,0.0,0.0,0.0,0.0,0.0,0.0,0.0,0.0,0.0,0.0,0.0,0.0,0.0,0.0,0.0,0.0,0.0,0.0,0.0,0.0,0.0,-5.0157,-5.2209,-5.422,-5.4469,-5.3596,0.0,0.0,0.0,0.0,0.0,0.0,0.0,0.0,0.0,-5.7265,-5.8242,-5.873,-5.873,-6.1308,-6.2832,-6.334,-6.4473,-6.5293,-6.5762,-6.5762,-6.5762,-6.5703,-6.4551,-6.4043,-6.3867,-6.1406,-6.039,-6.0176,0.0,0.0,0.0,0.0,-5.3926,-5.4883,-5.4858,-5.6263,-5.8077,-5.8046,0.0,0.0,0.0,0.0,0.0,0.0,0.0,-5.6347,-5.7729,-5.9529,-6.1348,-6.2812,-6.2598,-6.2265,-6.3008,-6.0518,-5.8089,-5.7914,-5.6133,-5.421,-5.2843,-5.3474,0.0,0.0,0.0,-5.6529,-5.6158,-5.9215,-6.1383,-6.1284,-6.1221,-6.1097,-6.0945,-6.0905,-6.0882,-6.0804,-6.08,-6.0473,-5.9742,-6.0416,-5.9646,0.0,0.0,0.0,0.0,0.0,0.0,0.0,0.0,0.0,0.0,0.0,0.0,0.0,0.0,0.0,0.0,0.0,0.0,0.0,0.0,0.0,0.0,0.0,0.0,0.0,0.0,0.0,0.0,-5.2117,-5.428,-5.6006,-5.6931,-5.65,0.0,0.0,0.0,0.0,0.0,0.0,-5.8808,-5.8262,-5.8613,-6.0156,-6.1406,-6.2051,-6.2051,-6.3984,-6.5293,-6.5937,-6.5937,-6.6269,-6.6894,-6.6894,-6.6894,-6.6894,-6.6894,-6.6894,-6.664,-6.3398,-6.2051,-6.1992,-6.1328,-5.9902,-5.8164,-5.7519,-5.7676,-5.8242,-5.8242,-5.9765,-6.1738,-6.1738,-6.1289,-6.0605,-5.9961,0.0,0.0,0.0,0.0,-5.8281,-5.9961,-6.0898,-6.1894,-6.3848,-6.4297,-6.4297,-6.4297,-6.2754,-6.1191,-6.0625,-5.8574,-5.6387,-5.4668,-5.5449,0.0,-5.248,-5.539,-5.789,-5.789,-6.0047,-6.1544,-6.1504,-6.142,-6.1289,-6.1077,-6.1031,-6.0963,-6.0858,-6.0827,-6.08,-6.08,-6.08,-6.0204,-5.8954,0.0,0.0,0.0,0.0,0.0,0.0,0.0,0.0,0.0,0.0,0.0,0.0,0.0,0.0,0.0,0.0,0.0,0.0,0.0,0.0,0.0,0.0,0.0,0.0,0.0,0.0,0.0,0.0,0.0,-5.932,-6.2765,0.0,0.0,0.0,0.0,-5.7812,-5.7734,-5.8906,-6.1387,-6.1465,-6.2988,-6.6348,-6.6523,-6.6562,-6.6562,-6.6699,-6.6797,-6.6836,-6.6836,-6.6855,-6.6894,-6.6894,-6.6894,-6.6894,-6.6894,-6.6894,-6.6875,-6.666,-6.6562,-6.6328,-6.3848,-6.2793,-6.2383,-5.9961,-6.0605,-6.2676,-6.2676,-6.3848,-6.5332,-6.5332,-6.3652,-6.1172,-5.8769,-5.8515,0.0,0.0,-5.957,-6.1289,-6.0586,-6.2246,-6.414,-6.4277,-6.4297,-6.4297,-6.4297,-6.2285,-6.1172,-6.3574,-6.2598,-6.084,-5.916,0.0,-5.7832,-5.4394,-5.6172,-5.789,-5.789,-6.0117,-6.1635,-6.1509,-6.1498,-6.1436,-6.1309,-6.1112,-6.0997,-6.0979,-6.086,-6.08,-6.08,-6.08,-6.0762,-6.0685,-5.9108,0.0,0.0,0.0,0.0,0.0,0.0,0.0,0.0,0.0,0.0,0.0,0.0,0.0,0.0,0.0,0.0,0.0,0.0,0.0,0.0,0.0,0.0,0.0,0.0,0.0,0.0,0.0,0.0,-6.0476,-6.2109,0.0,-6.1709,-6.2459,-6.2265,-6.0488,-6.2422,-6.4082,-6.5,-6.5058,-6.5879,-6.7676,-6.7734,-6.7988,-6.8496,-6.8515,-6.8535,-6.8574,-6.8574,-6.8574,-6.8574,-6.8535,-6.8515,-6.8515,-6.8515,-6.8515,-6.8515,-6.8555,-6.791,-6.6816,-6.5879,-6.5508,-6.539,-6.4492,-6.4726,-6.5508,-6.5508,-6.5918,-6.6445,-6.6445,-6.5801,-6.4883,-6.3965,-6.3906,-6.4082,-6.3789,-6.4355,-6.4961,-6.4668,-6.5273,-6.5976,-6.5976,-6.5976,-6.5976,-6.5976,-6.5234,-6.4863,-6.5781,-6.3203,-6.0664,-6.0078,-6.1367,-6.1484,-5.8555,-6.0332,-6.2012,-6.2012,-6.2812,-6.3144,-6.2532,-6.2473,-6.2186,-6.1483,-6.127,-6.1143,-6.1014,-6.0882,-6.08,-6.08,-6.08,-6.08,-6.08,-6.0204,-5.8569,0.0,0.0,0.0,0.0,0.0,0.0,0.0,0.0,0.0,0.0,0.0,0.0,0.0,0.0,0.0,0.0,0.0,0.0,0.0,0.0,0.0,0.0,0.0,0.0,0.0,-5.5182,-5.8348,-6.1622,-6.2787,-6.3364,-6.3457,-6.3984,-6.4082,-6.3496,-6.5879,-6.7344,-6.7344,-6.7617,-6.8027,-6.8594,-6.8633,-6.8887,-6.9433,-6.9433,-6.9453,-6.9492,-6.9472,-6.9472,-6.9492,-6.9371,-6.8705,-6.7672,-6.8769,-6.8586,-6.7594,-6.8796,-6.862,-6.759,-6.7693,-6.7734,-6.7734,-6.7734,-6.7754,-6.7773,-6.7773,-6.7754,-6.7695,-6.7422,-6.7344,-6.7285,-6.6992,-6.6894,-6.6894,-6.6812,-6.6854,-6.6875,-6.6811,-6.6808,-6.6808,-6.6808,-6.6808,-6.6808,-6.6808,-6.6151,-6.5859,-6.6738,-6.457,-6.2226,-6.1035,-6.2285,-6.2441,-5.9551,-6.0586,-6.1699,-6.1699,-6.2441,-6.2754,-6.2187,-6.291,-6.3162,-6.2498,-6.1502,-6.1106,-6.1516,-6.0597,-6.0256,-6.0781,-5.9973,-5.9665,-5.9954,-5.9108,-5.7569,-5.5338,0.0,0.0,0.0,0.0,0.0,0.0,0.0,0.0,0.0,0.0,0.0,0.0,0.0,0.0,0.0,0.0,0.0,0.0,0.0,0.0,0.0,0.0,0.0,-5.2732,-5.7849,-6.1891,-6.2988,-6.5351,-6.6894,-6.6894,-6.6894,-6.6914,-6.6933,-6.7715,-6.8203,-6.8242,-6.8945,-6.9316,-6.9238,-6.9336,-6.9375,-6.9375,-6.9512,-6.957,-6.957,-6.9512,-6.9512,-6.955,-6.9382,-6.7461,-6.4501,-6.7634,-6.7094,-6.4298,-6.7619,-6.8967,-6.9007,-6.9273,-6.9375,-6.9375,-6.9375,-6.9433,-6.9472,-6.9355,-6.9355,-6.9257,-6.8476,-6.8222,-6.8066,-6.7226,-6.6953,-6.6911,-6.6731,-6.6797,-6.6872,-6.6673,-6.6616,-6.6597,-6.6597,-6.6597,-6.6603,-6.6603,-6.4773,-6.3867,-6.6406,-6.6894,-6.582,-6.2441,-6.1855,-6.0742,-5.7422,-5.6914,0.0,-5.6914,-5.9082,-6.0586,-6.0566,-6.2754,-6.4238,-6.4297,-6.1776,-6.0898,-6.2538,-6.0104,-5.9302,-6.0785,-5.8457,-5.7511,-5.8357,-5.5876,-5.5376,-5.7011,0.0,0.0,0.0,0.0,0.0,0.0,0.0,0.0,0.0,0.0,0.0,0.0,0.0,0.0,0.0,0.0,0.0,0.0,0.0,0.0,0.0,-5.6266,-5.94,-5.9727,-6.0692,-6.2403,-6.5273,-6.6361,-6.6894,-6.6894,-6.6894,-6.7168,-6.7793,-6.8066,-6.8457,-6.9043,-6.6953,-6.5723,-6.5703,-6.6328,-6.668,-6.668,-6.9765,-7.1308,-7.1308,-7.1289,-7.1226,-7.1095,-7.1039,-7.0442,-6.9515,-7.0389,-7.0259,-6.9461,-7.0414,-7.079,-7.0667,-6.9507,-6.9051,-6.9051,-6.9051,-6.9051,-6.872,-6.6224,-6.6975,-6.9012,-6.8778,-6.872,-6.8661,-6.8417,-6.8339,-6.8339,-6.8277,-6.7851,-6.7394,-6.7334,-6.6965,-6.6597,-6.6597,-6.6711,-6.6812,-6.6812,-6.6307,-6.6035,-6.6758,-6.6894,-6.6601,-6.5644,-6.5469,-6.5156,-6.4219,-6.4062,-6.4062,-6.4062,-6.4687,-6.4863,-6.4238,-6.3125,-6.293,-6.4199,-6.1776,-6.1199,-6.3538,-6.2166,-6.1444,-6.1872,-6.0511,-5.9858,-6.0108,-5.7607,-5.653,0.0,0.0,0.0,0.0,0.0,0.0,0.0,0.0,0.0,0.0,0.0,0.0,0.0,0.0,0.0,0.0,0.0,0.0,0.0,0.0,0.0,0.0,-5.8674,-6.2405,-6.393,-6.3789,-6.4318,-6.6477,-6.6832,-6.6894,-6.6894,-6.7226,-6.7656,-6.8164,-6.8847,-6.9453,-6.9922,-6.8418,-6.6699,-6.4902,-6.707,-6.7422,-6.5625,-6.9759,-7.1864,-7.1864,-7.1822,-7.1721,-7.1614,-7.1541,-7.0673,-6.9306,-7.0659,-7.0448,-6.9265,-7.0661,-7.1299,0.0,0.0,0.0,0.0,0.0,-6.9992,-6.9701,-6.771,-6.8333,-6.9934,-6.9564,-6.9448,-6.9376,-6.9006,-6.7911,-6.675,-6.6698,-6.5342,-6.4227,-6.5572,-6.5641,-6.5695,-6.7105,-6.7268,-6.7115,-6.7175,-6.6126,-6.552,-6.6679,-6.6015,0.0,-6.6719,-6.5996,-6.4902,-6.3828,-6.3672,-6.3672,-6.3672,-6.4609,-6.5078,-6.4551,-6.4121,-6.4297,-6.5293,-6.2922,0.0,0.0,0.0,-6.1616,-6.0808,-6.0537,0.0,0.0,0.0,-5.6299,-5.6992,0.0,0.0,0.0,-5.6838,-5.6088,0.0,0.0,0.0,0.0,0.0,0.0,0.0,0.0,0.0,0.0,0.0,0.0,0.0,0.0,0.0,0.0,-6.0347,-6.2738,-6.5971,-6.6533,-6.6692,-6.6875,-6.6894,-6.6894,-6.6894,-6.7695,-6.8242,-6.832,-6.9805,-7.0742,-7.084,-7.1211,0.0,0.0,0.0,-6.9511,-6.5605,-6.9625,-7.1714,-7.1812,-7.1685,-7.1665,-7.1734,-7.1552,-6.9807,-6.7096,-6.9951,-6.9513,-6.6994,-6.9975,-7.1293,-7.1472,-7.1462,-7.1462,-7.1393,-7.1004,-7.1101,-7.1373,-7.0984,0.0,0.0,-7.0537,-7.0285,-7.0114,-6.9356,-6.7019,-6.4595,-6.4462,-6.2312,-6.0696,-6.3532,-6.4232,-6.4909,-6.789,-6.8065,-6.7596,-6.7728,-6.5504,-6.4183,-6.6558,-6.5136,-6.4277,-6.6504,-6.498,-6.2676,-6.041,-6.0078,-6.0078,-6.0078,-6.2031,-6.3437,-6.3437,0.0,0.0,-6.6875,-6.4492,-6.3727,-6.5468,-6.3285,-6.1139,-5.9348,-5.991,-5.8463,-5.4643,-5.513,-5.6114,-5.7595,-5.7499,-5.8613,-6.0723,-5.7684,-5.7107,0.0,0.0,0.0,0.0,0.0,0.0,0.0,0.0,0.0,0.0,0.0,0.0,0.0,0.0,0.0,-6.1283,-6.3667,-6.564,-6.6455,-6.6715,-6.6854,-6.6894,-6.6894,-6.6894,-6.6894,-6.7695,-6.8476,-6.9121,-7.0117,-7.1015,-7.1719,-6.9297,-6.7187,-6.5644,-6.6934,-6.6907,-6.536,-6.948,-7.1855,-7.2517,-7.2477,0.0,-7.3258,-7.3237,-7.2813,-7.2095,-7.2734,-7.2629,-7.2091,-7.2745,-7.3004,-7.2938,-7.1721,-7.1158,-7.0701,-6.7981,-6.8694,-7.0643,-6.7923,-6.8752,-7.099,-7.0811,-7.0753,-7.0715,-7.056,-7.004,0.0,-6.9483,-6.8564,-6.7745,-6.8346,-6.8069,-6.7793,-6.8452,-6.8601,-6.8613,-6.8636,-6.8157,-6.7723,-6.7709,-6.7297,-6.6946,-6.6913,-6.6484,-6.5976,-6.5488,-6.541,-6.541,-6.541,-6.584,-6.6152,-6.6152,-6.4707,-6.4609,-6.6719,-6.4492,-6.4023,-6.6463,-6.5364,-6.4084,-6.285,-6.295,-6.2646,-6.179,-6.1285,-6.1108,-6.1271,-6.0575,-6.0422,-6.0781,-6.0108,-5.9992,0.0,0.0,0.0,0.0,0.0,0.0,0.0,0.0,0.0,0.0,0.0,-5.2798,-5.4481,0.0,-5.979,-6.1953,-6.3581,-6.5074,-6.6414,-6.6767,-6.6894,-6.6894,-6.6894,-6.707,-6.7519,-6.834,-6.9159,-6.9905,-7.0817,-7.1502,-7.1819,-7.0237,-6.8128,-6.5528,-6.7797,-6.8017,-6.5825,-6.9915,-7.2401,-7.3197,-7.3121,-7.3284,-7.3606,-7.3606,-7.3562,-7.3514,-7.3514,-7.3514,-7.3495,-7.3569,-7.3562,-7.3427,-7.2716,-7.209,-7.1341,-6.9667,-6.984,-7.0667,-6.8975,-6.9494,-7.0898,-7.0898,-7.0898,-7.0898,-7.0898,-6.9725,-6.8398,-6.8398,-6.6878,-6.5647,-6.734,-6.7523,-6.7679,-6.9335,-6.9507,-6.9324,-6.9397,-6.9045,-6.8665,-6.8444,-6.8398,-6.8182,-6.7512,-6.7402,-6.7294,-6.6953,-6.6894,-6.6894,-6.6894,-6.6894,-6.6894,-6.6894,-6.5723,-6.5488,-6.6797,-6.5703,-6.5508,-6.6816,-6.642,-6.572,-6.4729,-6.465,-6.4402,-6.3954,-6.3456,-6.3152,-6.3036,-6.2221,-6.1753,-6.1636,-6.1229,-6.0964,0.0,0.0,0.0,0.0,0.0,0.0,0.0,-2.3335,-3.358,-4.2715,-4.8879,-5.3417,-5.604,-5.7623,-5.9523,-6.2553,-6.3263,-6.4177,-6.6276,-6.6699,-6.6806,-6.6806,-6.6854,-6.7226,-6.8064,-6.8923,-6.9732,-7.0447,-7.1362,-7.1835,-7.1716,-7.1675,-7.0079,-6.6611,-6.972,-7.0168,-6.7538,-7.0796,-7.2935,-7.388,-7.3786,-7.3822,-7.3995,-7.3995,-7.3995,-7.3995,-7.3995,-7.3995,-7.4004,-7.4094,-7.4063,-7.4004,-7.4094,-7.3542,-7.2668,-7.2514,-7.1898,-7.1148,-7.1148,-7.1033,-7.0898,-7.0898,-7.0898,-7.0898,-7.0898,-6.9013,-6.6859,-6.6859,-6.4878,-6.3397,-6.6167,-6.6859,-6.7552,-7.0264,-7.0398,-6.9958,-7.0065,-6.9529,-6.9071,-6.9092,-6.9084,-6.8884,-6.8221,-6.8082,-6.7832,-6.701,-6.6894,-6.6894,-6.6894,-6.6894,-6.6894,-6.6894,-6.6894,-6.6894,-6.6894,-6.6894,-6.6894,-6.6894,-6.6894,-6.6582,-6.5879,-6.5746,-6.5355,-6.4653,-6.431,-6.414,-6.4109,-6.3291,-6.2841,-6.2741,-6.2087,-6.1473,1.6327,1.175,0.8216,0.4084,-0.0446,-0.8242,0.0,-3.1433,-3.7272,-4.7153,-5.3581,-5.8355,-6.1462,-6.2729,-6.3838,-6.5412,-6.5702,-6.5894,-6.6361,-6.6427,-6.6466,-6.6466,-6.6727,-6.7164,-6.7863,-6.8716,-6.9588,-7.0441,-7.1156,-7.1594,-7.1689,-7.1594,-7.1297,-7.083,-7.1081,-7.1416,-7.1803,-7.2095,-7.3031,-7.459,-7.4581,-7.4976,-7.5726,-7.5726,-7.5726,-7.5726,-7.5726,-7.5726,-7.5726,-7.5717,-7.5717,-7.5707,-7.5745,-7.5197,-7.4341,-7.363,-7.2803,-7.2052,-7.2052,-7.1552,-7.0898,-7.0898,-7.0898,-7.0898,-7.0898,-7.0648,-7.0341,-7.0341,-7.0071,-6.986,-7.0244,-7.0341,-7.0437,-7.0802,-7.0821,-7.0764,-7.0779,-7.0702,-7.0478,-6.9883,-6.9789,-6.9574,-6.8889,-6.8793,-6.8359,-6.7087,-6.6894,-6.6894,-6.6894,-6.6894,-6.6894,-6.6894,-6.6894,-6.6894,-6.6894,-6.6894,-6.6894,-6.6894,-6.6894,-6.6855,-6.6758,-6.6738,-6.6698,-6.6581,-6.5799,-6.5336,-6.5224,-6.4346,-6.3834,-6.3655,-6.3558,-6.2697,1.4604,1.2051,0.948,0.2461,-0.2665,-0.9883,-2.4935,-3.0662,-3.5436,-4.4542,-5.1087,-5.6215,-5.9684,-6.0536,-6.181,-6.514,-6.4512,-6.4234,-6.6153,-6.6406,-6.6406,-6.6406,-6.5201,-6.4508,-6.4792,-6.7365,-6.8541,-6.7327,-6.9895,-7.1471,-7.1403,-7.1348,-7.1335,-7.1335,-7.1134,-7.1684,-7.3073,-7.3001,-7.3803,-7.5457,-7.5457,-7.5649,-7.5995,-7.5995,-7.5995,-7.5995,-7.5995,-7.5995,-7.5995,-7.5995,-7.5995,-7.5995,-7.5995,-7.5784,-7.5361,-7.4514,-7.3668,-7.2956,-7.2956,-7.2399,-7.1648,-7.1648,-7.1302,-7.0898,-7.0898,-7.0898,-7.0898,-7.0898,-7.0898,-7.0898,-7.0898,-7.0898,-7.0898,-7.0898,-7.0898,-7.0898,-7.0898,-7.0898,-7.0837,-7.0541,-7.0488,-7.0274,-6.9613,-6.9474,-6.9166,-6.8212,-6.7721,-6.735,-6.6953,-6.6894,-6.6894,-6.6894,-6.6894,-6.6894,-6.6894,-6.6894,-6.6894,-6.6894,-6.6894,-6.6894,-6.6894,-6.6894,-6.6894,-6.6894,-6.6543,-6.6327,-6.6279,-6.54,-6.4923,-6.4843,-6.4336,-6.3731,1.3485,1.2341,1.0393,0.275,-0.307,-1.0003,-2.1754,-2.7791,-3.3099,-4.1134,-4.7834,-5.3365,-5.6997,-5.8359,-6.0224,-6.4133,-6.3506,-6.3303,-6.5548,-6.5838,-6.5587,-6.4928,-6.3296,-6.1601,-5.9983,-6.4658,-6.7348,-6.636,-6.9418,-7.1299,-7.1202,-7.1137,-7.1112,-7.1112,-7.0973,-7.1745,-7.3495,-7.3514,-7.4341,-7.5995,-7.5995,-7.5995,-7.5995,-7.5995,-7.5995,-7.5995,-7.5995,-7.5995,-7.5995,-7.5995,-7.5995,-7.5995,-7.5995,-7.5995,-7.5918,-7.5284,-7.4553,-7.3841,-7.3841,-7.3264,-7.2514,-7.2283,-7.1764,-7.1206,-7.0975,-7.0898,-7.0898,-7.0898,-7.0898,-7.0898,-7.0898,-7.0898,-7.0898,-7.0898,-7.0898,-7.0898,-7.0898,-7.0898,-7.0898,-7.0898,-7.0898,-7.0748,-7.0255,-7.0162,-6.996,-6.929,-6.8754,-6.8132,-6.7294,-6.7011,-6.6894,-6.6894,-6.6894,-6.6894,-6.6894,-6.6894,-6.6894,-6.6894,-6.6894,-6.6894,-6.6894,-6.6894,-6.6894,-6.6894,-6.6894,-6.6894,-6.6894,-6.6269,-6.5957,-6.5937,-6.5312,-6.4883,1.3166,1.128,0.8552,0.4015,-0.1902,-0.8614,-1.6231,-2.4055,-3.1605,-3.8311,-4.5375,-5.1421,-5.4849,-5.8299,-6.1215,-6.2866,-6.3817,-6.435,-6.4462,-6.4462,-6.3555,-6.1167,-6.114,-5.9121,-5.3448,-6.0187,-6.6283,-6.9498,-7.0469,-7.1004,-7.1181,-7.1029,-7.0925,-7.0925,-7.0898,-7.1745,-7.3495,-7.3514,-7.4341,-7.5995,-7.5995,-7.5995,-7.5995,-7.5995,-7.5995,-7.5995,-7.5995,-7.5995,-7.5995,-7.5995,-7.5995,-7.5995,-7.5995,-7.5995,-7.5995,-7.5976,-7.5418,-7.4668,-7.4668,-7.4149,-7.3322,-7.2476,-7.2168,-7.1995,-7.1168,-7.0898,-7.0898,-7.0898,-7.0898,-7.0898,-7.0898,-7.0898,-7.0898,-7.0898,-7.0898,-7.0898,-7.0898,-7.0898,-7.0898,-7.0898,-7.0898,-7.0879,-7.086,-7.0887,-7.0645,-6.9959,-6.9866,-6.9353,-6.8031,-6.7294,-6.6894,-6.6894,-6.6894,-6.6894,-6.6894,-6.6894,-6.6894,-6.6894,-6.6894,-6.6894,-6.6894,-6.6894,-6.6894,-6.6894,-6.6894,-6.6894,-6.6894,-6.6875,-6.6855,-6.6855,-6.6836,-6.6367,1.2682,1.1821,1.0318,0.4517,-0.0525,-0.5981,-1.3953,-2.0909,-2.7913,-3.5636,-4.0027,-4.3882,-4.8624,-5.1994,-5.4887,-5.7298,-5.8959,-6.0611,-6.2472,-6.1822,-6.1411,-6.2173,-6.045,-5.9517,-6.0331,-6.2993,-6.4197,-6.3078,-6.7917,-7.0933,-7.0979,-7.0933,-7.0898,-7.0898,-7.0898,-7.1745,-7.3495,-7.3514,-7.4341,-7.5995,-7.5995,-7.5995,-7.5995,-7.5995,-7.5995,-7.5995,-7.5995,-7.5995,-7.5995,-7.5995,-7.5995,-7.5995,-7.5995,-7.5995,-7.5995,-7.5995,-7.5803,-7.5553,-7.5553,-7.5014,-7.4245,-7.3957,-7.311,-7.2149,-7.1841,-7.136,-7.0898,-7.0898,-7.0898,-7.0898,-7.0898,-7.0898,-7.0898,-7.0898,-7.0898,-7.0898,-7.0898,-7.0898,-7.0898,-7.0898,-7.0898,-7.0898,-7.0898,-7.0898,-7.0658,-6.9997,-6.9515,-6.8866,-6.7829,-6.7617,-6.7332,-6.677,-6.6812,-6.6894,-6.6894,-6.6894,-6.6894,-6.6894,-6.6894,-6.6894,-6.6894,-6.6894,-6.6894,-6.6894,-6.6894,-6.6894,-6.6894,-6.6894,-6.6894,-6.6894,-6.6894,-6.6738,1.1959,1.1576,1.1108,0.7007,0.2184,-0.4132,-1.3553,-1.9376,-2.4952,-3.2097,-3.5798,-3.9032,-4.3664,-4.7188,-5.0281,-5.2816,-5.5313,-5.7774,-6.007,-5.9828,-5.9786,-6.075,-5.935,-5.9003,-6.0818,-6.2587,-6.2825,-6.0961,-6.5656,-6.8736,-6.9023,-6.9231,-6.9731,-7.0584,-7.0805,-7.1745,-7.3495,-7.3514,-7.4341,-7.5995,-7.5995,-7.5995,-7.5995,-7.5995,-7.5188,-7.3822,-7.5341,-7.5149,-7.388,-7.538,-7.5995,-7.5995,-7.5995,-7.5995,-7.5995,-7.5995,-7.5995,-7.5995,-7.5995,-7.563,-7.5111,-7.4803,-7.3976,-7.2976,-7.2379,-7.1802,-7.1302,-7.0994,-7.0898,-7.0898,-7.0898,-7.0898,-7.0898,-7.0898,-7.0898,-7.0898,-7.0898,-7.0898,-7.0898,-7.0898,-7.0898,-7.0898,-7.0898,-7.0898,-7.0767,-7.0328,-6.9884,-6.9239,-6.8209,-6.7969,-6.7683,-6.7123,-6.6962,-6.6894,-6.6894,-6.6894,-6.6894,-6.6894,-6.6894,-6.6894,-6.6894,-6.6894,-6.6894,-6.6894,-6.6894,-6.6894,-6.6894,-6.6894,-6.6894,-6.6894,-6.6894,-6.6894,1.1034,1.0719,1.0634,1.1228,0.5689,-0.2674,-1.4238,-1.9072,-2.2615,-2.7925,-3.2559,-3.6639,-3.9956,-4.384,-4.7333,-4.9565,-5.296,-5.5789,-5.7209,-5.8359,-5.8461,-5.6887,-5.7818,-5.7667,-5.5405,-5.9157,-6.209,-6.2937,-6.4048,-6.5029,-6.5785,-6.6345,-6.7687,-6.9985,-7.0543,-7.1631,-7.3342,-7.3438,-7.4351,-7.5995,-7.5995,-7.5995,-7.5995,-7.5995,-7.3803,-7.0244,-7.4264,-7.3726,-7.0341,-7.4341,-7.5995,-7.5995,-7.5995,-7.5995,-7.5995,-7.5995,-7.5995,-7.5995,-7.5995,-7.5995,-7.5861,-7.5034,-7.4716,-7.4351,-7.2717,-7.2178,-7.1967,-7.1102,-7.0871,-7.0898,-7.0898,-7.0898,-7.0898,-7.0898,-7.0898,-7.0898,-7.0898,-7.0898,-7.0898,-7.0898,-7.0898,-7.0898,-7.0898,-7.0898,-7.0898,-7.0898,-7.0898,-7.0435,-6.9108,-6.8388,-6.7961,-6.7883,-6.7305,-6.6913,-6.6894,-6.6875,-6.6894,-6.6894,-6.6894,-6.6894,-6.6894,-6.6894,-6.6894,-6.6894,-6.6894,-6.6894,-6.6894,-6.6894,-6.6894,-6.6894,-6.6894,-6.6894,1.2082,1.172,1.0586,0.7942,0.5777,0.1292,-1.0435,-1.6399,-2.0749,-2.4394,-2.6993,-2.9808,-3.3388,-3.7382,-4.1362,-4.4907,-4.8487,-5.1572,-5.36,-5.472,-5.5438,-5.5799,-5.7201,-5.8399,-5.8952,-6.0065,-6.0629,-6.0249,-6.4537,-6.7258,-6.7465,-6.8186,-6.8849,-6.9473,-6.9626,-7.0213,-7.1333,-7.2971,-7.4549,-7.5995,-7.5995,-7.5995,-7.5995,-7.5995,-7.5418,-7.4457,-7.5534,-7.538,-7.4476,-7.5553,-7.5995,-7.5995,-7.5995,-7.5995,-7.5995,-7.5995,-7.5995,-7.5995,-7.5995,-7.5995,-7.5957,-7.5745,-7.4957,-7.3892,-7.2802,-7.2038,-7.1355,-7.0528,-7.0573,-7.0898,-7.0898,-7.0898,-7.0898,-7.0898,-7.0898,-7.0898,-7.0898,-7.0898,-7.0898,-7.0898,-7.0898,-7.0898,-7.0898,-7.0898,-7.0898,-7.0898,-7.0898,-7.0548,-6.9625,-6.944,-6.8907,-6.7662,-6.7463,-6.7216,-6.6717,-6.6683,-6.6738,-6.6894,-6.6894,-6.6894,-6.6894,-6.6894,-6.6894,-6.6894,-6.6894,-6.6894,-6.6894,-6.6894,-6.6894,-6.6894,-6.6894,-6.6894,1.2044,1.181,1.0643,0.6829,0.4501,0.1155,-0.6813,-1.282,-1.7868,-2.1678,-2.4063,-2.6274,-2.932,-3.3335,-3.7422,-4.1187,-4.5188,-4.8652,-5.1118,-5.2202,-5.3161,-5.4087,-5.5775,-5.7503,-5.8949,-5.9907,-6.0225,-5.9745,-6.2847,-6.5049,-6.5739,-6.6804,-6.787,-6.8916,-6.919,-6.9897,-7.1127,-7.2696,-7.4105,-7.5274,-7.5274,-7.5274,-7.5274,-7.5274,-7.4227,-7.2548,-7.4695,-7.4549,-7.3008,-7.5148,-7.5995,-7.5995,-7.5995,-7.5995,-7.5966,-7.5686,-7.5603,-7.5584,-7.5363,-7.5274,-7.5329,-7.5837,-7.5461,-7.4599,-7.3373,-7.2665,-7.195,-7.0525,-7.0494,-7.0852,-7.0622,-7.0729,-7.0898,-7.0898,-7.0898,-7.0898,-7.0898,-7.0898,-7.0898,-7.0898,-7.0898,-7.0898,-7.0898,-7.0898,-7.0898,-7.0898,-7.0898,-7.0744,-7.0283,-7.0039,-6.9536,-6.8587,-6.795,-6.7455,-6.7063,-6.6722,-6.6553,-6.6667,-6.6735,-6.6764,-6.6764,-6.6854,-6.6894,-6.6894,-6.6894,-6.6894,-6.6894,-6.6894,-6.6894,-6.6894,-6.6894,-6.6894,1.144,1.1613,1.0661,0.6831,0.2903,-0.0865,-0.4196,-0.9183,-1.449,-1.9119,-2.1972,-2.4336,-2.6854,-3.0748,-3.4897,-3.8622,-4.2743,-4.6311,-4.8729,-5.0319,-5.1455,-5.2077,-5.3899,-5.5639,-5.6993,-5.8648,-5.9714,-5.997,-6.0267,-6.1081,-6.272,-6.4266,-6.6109,-6.8312,-6.8866,-6.9901,-7.153,-7.234,-7.3212,-7.4123,-7.4237,-7.4293,-7.4293,-7.4293,-7.227,-6.9005,-7.3193,-7.2924,-6.9858,-7.4057,-7.5787,-7.5787,-7.5787,-7.5787,-7.5705,-7.5201,-7.4998,-7.4924,-7.4445,-7.4293,-7.4464,-7.5451,-7.5737,-7.5328,-7.3679,-7.3162,-7.2684,-7.0484,-7.0247,-7.0573,-7.0129,-7.0381,-7.0777,-7.0777,-7.0852,-7.0898,-7.0898,-7.0898,-7.0898,-7.0898,-7.0898,-7.0898,-7.0898,-7.0898,-7.0898,-7.0898,-7.0898,-7.0898,-7.0898,-7.0377,-6.9976,-6.9879,-6.8679,-6.7797,-6.7592,-6.6931,-6.6497,-6.6406,-6.6507,-6.6583,-6.6597,-6.6764,-6.6874,-6.6894,-6.6894,-6.6894,-6.6894,-6.6894,-6.6894,-6.6894,-6.6894,-6.6894,1.1145,1.1358,1.0633,0.6827,0.2903,-0.1015,-0.4757,-0.8168,-1.1461,-1.5288,-1.824,-2.1494,-2.5422,-2.8866,-3.2813,-3.7792,-4.0473,-4.2598,-4.44,-4.7531,-4.9564,-4.9618,-5.1662,-5.3612,-5.4956,-5.5236,-5.6111,-5.7854,-5.9492,-6.1049,-6.2612,-6.4906,-6.6663,-6.7792,-6.793,-6.8692,-7.0116,-7.0938,-7.2004,-7.3218,-7.3954,-7.4293,-7.4293,-7.4293,-7.3897,-7.3255,-7.4058,-7.4006,-7.3401,-7.4244,-7.4588,-7.4588,-7.4588,-7.4588,-7.4588,-7.4464,-7.4464,-7.4422,-7.4336,-7.4293,-7.4336,-7.4506,-7.4274,-7.3569,-7.1937,-7.1385,-7.0983,-6.9245,-6.9171,-6.955,-6.9453,-6.983,-7.0247,-7.0247,-7.0573,-7.0898,-7.0898,-7.0898,-7.0898,-7.0898,-7.0898,-7.0898,-7.0898,-7.0898,-7.0898,-7.0898,-7.0898,-7.0898,-7.0898,-7.0798,-7.0459,-6.9804,-6.9489,-6.8822,-6.7541,-6.7308,-6.6988,-6.6432,-6.6412,-6.6478,-6.6597,-6.6628,-6.6738,-6.6894,-6.6894,-6.6894,-6.6894,-6.6894,-6.6894,-6.6894,-6.6894,-6.6894,1.107,1.1294,1.1217,0.9323,0.4358,-0.0864,-0.4308,-0.7718,-1.0637,-1.2808,-1.6048,-1.9291,-2.1455,-2.5672,-3.0287,-3.4612,-3.8197,-4.1031,-4.289,-4.5454,-4.7274,-4.8015,-4.9647,-5.1218,-5.2576,-5.3118,-5.4098,-5.5719,-5.7077,-5.9201,-6.2528,-6.4571,-6.5886,-6.6271,-6.6758,-6.754,-6.8641,-6.9919,-7.1065,-7.2131,-7.295,-7.3359,-7.3359,-7.3359,-7.3359,-7.341,-7.3717,-7.2866,-7.143,-7.3446,-7.3298,-7.1901,-7.3614,-7.4293,-7.4249,-7.3934,-7.3841,-7.3794,-7.3492,-7.3359,-7.3359,-7.3359,-7.3572,-7.3588,-7.1918,-7.1366,-7.0983,-6.9052,-6.891,-6.9231,-6.8953,-6.9294,-6.9701,-6.9701,-7.0095,-7.0573,-7.0852,-7.0898,-7.0898,-7.0898,-7.0898,-7.0898,-7.0898,-7.0898,-7.0898,-7.0898,-7.0898,-7.0898,-7.0898,-7.0898,-7.0744,-7.0379,-6.9956,-6.9393,-6.866,-6.7753,-6.7106,-6.6787,-6.645,-6.6271,-6.6335,-6.6438,-6.6544,-6.6649,-6.6629,-6.6629,-6.6629,-6.6707,-6.6742,-6.6742,-6.6854,-6.6894,1.1209,1.1385,1.1657,1.1549,0.64,0.0286,-0.3625,-0.731,-1.0277,-1.1451,-1.4301,-1.6979,-1.8308,-2.265,-2.7248,-3.1402,-3.5123,-3.8563,-4.1544,-4.3158,-4.4658,-4.6551,-4.7506,-4.8759,-5.0415,-5.1272,-5.2396,-5.3893,-5.5038,-5.7698,-6.2433,-6.3992,-6.4799,-6.4999,-6.5698,-6.6492,-6.7306,-6.883,-7.0051,-7.1064,-7.1872,-7.233,-7.2496,-7.2496,-7.2496,-7.2553,-7.2978,-7.1348,-6.8639,-7.2398,-7.1982,-6.9364,-7.2639,-7.3888,-7.386,-7.3391,-7.3224,-7.3119,-7.2686,-7.2496,-7.2496,-7.2496,-7.3138,-7.3588,-7.1963,-7.1456,-7.0983,-6.891,-6.8614,-6.8866,-6.8416,-6.875,-6.9148,-6.9272,-6.9626,-7.0042,-7.0463,-7.0652,-7.0729,-7.0729,-7.0824,-7.0898,-7.0898,-7.0898,-7.0898,-7.0898,-7.0898,-7.0898,-7.0898,-7.0898,-7.0898,-7.0898,-7.0341,-6.9898,-6.9706,-6.8263,-6.7301,-6.7109,-6.6444,-6.607,-6.6109,-6.6244,-6.6367,-6.6406,-6.6406,-6.6406,-6.6406,-6.6507,-6.6569,-6.6569,-6.6731,-6.6784,1.165,1.1687,1.1636,1.1546,0.8447,0.3587,-0.3025,-0.682,-0.9591,-1.1683,-1.236,-1.4058,-1.9166,-2.069,-2.3324,-2.9805,-3.0618,-3.2446,-3.8484,-3.9803,-4.1432,-4.4851,-4.5384,-4.6504,-4.9136,-4.9293,-5.0327,-5.2854,-5.5216,-5.8345,-6.2385,-6.3394,-6.4166,-6.4999,-6.5065,-6.559,-6.6494,-6.7409,-6.86,-7.022,-7.1046,-7.1798,-7.2496,-7.2496,-7.2496,-7.2496,-7.2535,-7.0753,-6.8015,-7.1305,-7.0772,-6.8176,-7.1416,-7.2686,-7.263,-7.2592,-7.2592,-7.2592,-7.2496,-7.2496,-7.2496,-7.2496,-7.261,-7.2373,-7.0772,-7.0274,-6.9943,-6.8217,-6.781,-6.7863,-6.7776,-6.8179,-6.8705,-6.919,-6.9353,-6.9393,-6.9433,-6.9811,-7.0162,-7.0162,-7.0573,-7.0898,-7.0898,-7.0898,-7.0898,-7.0898,-7.0898,-7.0898,-7.0898,-7.0898,-7.0898,-7.0898,-7.0821,-7.0494,-6.9763,-6.884,-6.7936,-6.7148,-6.6346,-6.5971,-6.609,-6.6109,-6.6212,-6.6406,-6.6406,-6.6406,-6.6406,-6.6399,-6.6412,-6.6412,-6.6443,-6.6455,1.105,1.1447,1.1877,1.169,0.8687,0.4467,-0.067,-0.5497,-0.9206,-1.003,-1.0978,-1.2694,-1.584,-1.804,-2.0694,-2.4825,-2.7586,-3.0648,-3.4181,-3.658,-3.9382,-4.3187,-4.3649,-4.4425,-4.653,-4.7396,-4.8953,-5.1512,-5.403,-5.6873,-5.9994,-6.1189,-6.2317,-6.3427,-6.3954,-6.4375,-6.4785,-6.6079,-6.7609,-6.9309,-7.0108,-7.1227,-7.2496,-7.2496,-7.2496,-7.2496,-7.2496,-6.9559,-6.5154,-7.0367,-6.9449,-6.5264,-7.0477,-7.2496,-7.2496,-7.2496,-7.2496,-7.2496,-7.2496,-7.2496,-7.2496,-7.2496,-7.2184,-7.1578,-7.044,-6.9761,-6.9137,-6.7999,-6.7687,-6.7687,-6.7687,-6.7844,-6.8129,-6.8705,-6.8821,-6.891,-6.9231,-6.9472,-6.9626,-6.9626,-7.0061,-7.0413,-7.0413,-7.07,-7.0898,-7.0898,-7.0898,-7.0898,-7.0898,-7.0898,-7.0898,-7.0898,-7.0898,-7.0764,-7.0456,-6.9667,-6.8821,-6.7936,-6.709,-6.6434,-6.6013,-6.5974,-6.6022,-6.6108,-6.6108,-6.6108,-6.6108,-6.6183,-6.6212,-6.6212,-6.6334,-6.6406,1.0809,1.1402,1.206,1.1847,0.9628,0.6178,0.1195,-0.3225,-0.6786,-0.8564,-0.9945,-1.1351,-1.3008,-1.5417,-1.8183,-2.087,-2.4572,-2.8163,-3.0883,-3.3414,-3.6487,-4.0389,-4.1336,-4.2372,-4.4157,-4.649,-4.855,-5.0273,-5.2756,-5.52,-5.732,-5.8815,-6.0417,-6.2302,-6.299,-6.3444,-6.3719,-6.4831,-6.6305,-6.8058,-6.8848,-6.9614,-7.0336,-7.1523,-7.1714,-7.1138,-7.2092,-6.9357,-6.4677,-7.022,-6.9247,-6.4806,-7.0348,-7.2496,-7.2496,-7.2496,-7.2496,-7.2496,-7.2496,-7.2496,-7.2459,-7.222,-7.1615,-7.0789,-7.0,-6.9357,-6.8733,-6.7926,-6.7687,-6.7687,-6.7687,-6.7687,-6.7828,-6.8179,-6.8259,-6.8387,-6.875,-6.8935,-6.9064,-6.9064,-6.9511,-6.9918,-7.0095,-7.0413,-7.07,-7.0871,-7.0898,-7.0898,-7.0898,-7.0898,-7.0898,-7.0898,-7.0898,-7.0898,-7.0898,-7.0167,-6.9436,-6.8821,-6.7725,-6.684,-6.6282,-6.6032,-6.5897,-6.5897,-6.5897,-6.5897,-6.5897,-6.6,-6.6028,-6.6028,-6.6202,-6.6251,1.1263,1.1593,1.1965,1.1988,1.183,0.9519,0.1761,-0.0,-0.1862,-0.7945,-0.917,-0.9808,-1.1475,-1.3188,-1.5456,-1.926,-2.1112,-2.3852,-2.9176,-3.0305,-3.2052,-3.5938,-3.8161,-4.0183,-4.2547,-4.6634,-4.9147,-4.919,-5.1689,-5.3789,-5.4946,-5.6326,-5.869,-6.2302,-6.2381,-6.2855,-6.3719,-6.3719,-6.4567,-6.627,-6.6964,-6.6577,-6.5303,-6.9273,-6.9848,-6.7926,-7.1119,-7.0642,-6.7889,-7.1156,-7.0569,-6.7962,-7.1229,-7.2496,-7.2496,-7.2496,-7.2496,-7.2496,-7.2496,-7.2496,-7.2367,-7.1578,-7.077,-6.9963,-6.9174,-6.8917,-6.8733,-6.7926,-6.7687,-6.7687,-6.7687,-6.7687,-6.7687,-6.7687,-6.7687,-6.7741,-6.7741,-6.8129,-6.8492,-6.8492,-6.8935,-6.9472,-7.0007,-7.0095,-7.0298,-7.0824,-7.0898,-7.0898,-7.0898,-7.0898,-7.0898,-7.0898,-7.0898,-7.0898,-7.0898,-7.0167,-6.9706,-6.9687,-6.8052,-6.709,-6.709,-6.632,-6.5897,-6.5897,-6.5897,-6.5897,-6.5897,-6.5897,-6.5897,-6.5897,-6.5897,-6.5923,1.028,1.0881,1.0885,0.8702,1.015,1.0073,0.1897,-0.0,-0.1207,-0.5348,-0.789,-0.9799,-1.131,-1.296,-1.4834,-1.7444,-2.0206,-2.3333,-2.7251,-2.8944,-3.1353,-3.5508,-3.8469,-4.122,-4.3958,-4.4689,-4.5983,-4.8164,-4.9666,-5.1571,-5.4056,-5.5942,-5.8237,-6.1036,-6.1136,-6.1706,-6.2779,-6.2779,-6.3618,-6.5301,-6.5545,-6.5195,-6.4546,-6.8508,-6.9122,-6.7188,-7.0875,-7.066,-6.7944,-7.1174,-7.0605,-6.7999,-7.1248,-7.2496,-7.2496,-7.2496,-7.2496,-7.2496,-7.2496,-7.2496,-7.2367,-7.1578,-7.077,-6.9945,-6.9137,-6.8513,-6.8017,-6.776,-6.7687,-6.7687,-6.7687,-6.7687,-6.7687,-6.7687,-6.7687,-6.7687,-6.7687,-6.7863,-6.793,-6.793,-6.8387,-6.8821,-6.8978,-6.9294,-6.9738,-7.0247,-7.0362,-7.0494,-7.0852,-7.0898,-7.0898,-7.0898,-7.0898,-7.0898,-7.0898,-7.0667,-7.0283,-6.9725,-6.8629,-6.7725,-6.7109,-6.632,-6.5897,-6.5897,-6.5897,-6.5897,-6.5897,-6.5897,-6.5897,-6.5897,-6.5897,-6.5897,0.973,1.0421,1.0345,0.7037,0.7091,0.6438,0.1238,-0.0,-0.0593,-0.2668,-0.6842,-1.0277,-1.0716,-1.2138,-1.382,-1.5495,-1.8548,-2.19,-2.5509,-2.7241,-2.9824,-3.4357,-3.726,-4.0201,-4.3384,-4.3955,-4.505,-4.7298,-4.9164,-5.1106,-5.3021,-5.5122,-5.7261,-5.9153,-6.0145,-6.0953,-6.1676,-6.2206,-6.2957,-6.3944,-6.4236,-6.3892,-6.3172,-6.71,-6.7832,-6.611,-6.9849,-7.0526,0.0,-7.1172,-7.0979,-6.9706,-7.1725,-7.2496,-7.2496,-7.2496,-7.2496,-7.2496,-7.2496,-7.2312,-7.1927,-7.1119,-7.011,-6.91,-6.8605,-6.8091,-6.7687,-6.7687,-6.7687,-6.7687,-6.7687,-6.7687,-6.7687,-6.7687,-6.7687,-6.7687,-6.7687,-6.7687,-6.7687,-6.7687,-6.7982,-6.8259,-6.8464,-6.8795,-6.919,-6.9701,-6.9973,-7.0214,-7.0573,-7.0777,-7.0898,-7.0898,-7.0898,-7.0898,-7.0898,-7.0898,-7.0687,-7.0187,-6.936,-6.8494,-6.7628,-6.6782,-6.6205,-6.5897,-6.5897,-6.5897,-6.5897,-6.5897,-6.5897,-6.5897,-6.5897,-6.5897,0.0,1.0066,0.9849,0.6892,0.3089,-0.0,-0.0,-0.0,0.0,-0.0,-0.5812,-1.0632,-0.9757,-1.1048,-1.2574,-1.3478,-1.6339,-1.9834,-2.3833,-2.5559,-2.8122,-3.2778,-3.5084,-3.7634,-4.0963,-4.3878,-4.5904,-4.6567,-4.9727,-5.1714,-5.1757,-5.3862,-5.5521,-5.6688,-5.9049,-6.0417,-6.0501,-6.1676,-6.2184,-6.1981,-6.291,-6.2481,-6.0839,-6.5117,-6.6154,-6.482,-6.824,-7.0178,-7.1013,-7.1013,-7.1511,-7.2303,-7.2362,-7.242,-7.2438,-7.2496,-7.2496,-7.2496,-7.2441,-7.1945,-7.1174,-7.0219,-6.8825,-6.7488,-6.7488,-6.7615,-6.7687,-6.7687,-6.7687,-6.7687,-6.7687,-6.7687,-6.7687,-6.7687,-6.7687,-6.7687,-6.7687,-6.7687,-6.7687,-6.7687,-6.7687,-6.7844,-6.8338,-6.8464,-6.8632,-6.9148,-6.9664,-7.0007,-7.0042,-7.0494,-7.0777,-7.0777,-7.0824,-7.0852,-7.0852,-7.0871,-7.0898,-7.0898,-7.0148,-6.934,-6.8532,-6.759,-6.6744,-6.5994,-6.5917,-6.5897,-6.5897,-6.5897,-6.5897,-6.5897,-6.5897,-6.5897,0.8823,0.0,0.8667,0.5635,0.2417,-0.0,0.0,-0.0,-0.0,-0.0,-0.4006,-0.7961,-0.981,-1.1801,-1.3085,-1.2897,-1.608,-1.9267,-2.1633,-2.6265,-3.0493,-3.2986,-3.5399,-3.7835,-4.0133,-4.1958,-4.374,-4.5664,-4.7595,-4.8848,-4.9306,-5.1994,-5.3608,-5.3965,-5.6515,-5.8252,-5.917,-6.0417,-5.9827,-5.7624,-6.1026,-6.0342,-5.6404,-6.3151,-6.5113,-6.3433,-6.78,-6.9849,-7.004,-7.004,-7.0178,-7.04,-7.1159,-7.143,-7.1511,-7.2226,-7.2496,-7.2422,-7.1817,-7.1468,-7.0951,-6.8895,-6.7022,-6.5663,-6.5663,-6.6605,-6.7687,-6.7687,-6.7687,-6.7687,-6.7687,-6.7687,-6.7687,-6.7687,-6.7687,-6.7687,-6.7687,-6.7687,-6.7687,-6.7687,-6.7687,-6.7722,-6.7844,-6.7897,-6.8047,-6.8632,-6.8777,-6.9021,-6.9433,-6.9588,-6.9664,-6.9664,-7.0042,-7.0298,-7.0298,-7.0652,-7.0898,-7.0898,-7.0148,-6.961,-6.9398,-6.7917,-6.7013,-6.6821,-6.6205,-6.5897,-6.5897,-6.5897,-6.5897,-6.5897,-6.5897,-6.5897,0.8401,0.8583,0.8364,0.6862,0.3242,-0.0,-0.0,-0.0,-0.104,-0.4931,-0.5605,-0.6483,-0.9705,-1.1108,-1.231,-1.3751,-1.5737,-1.8386,-2.1999,-2.6686,-3.0137,-3.1123,-3.3684,-3.6067,-3.8044,-4.0746,-4.312,-4.4536,-4.6797,-4.8202,-4.8518,-5.1414,-5.2963,-5.2963,-5.5029,-5.6719,-5.7993,-5.917,-5.8521,-5.6175,-5.9804,-5.9839,-5.6782,-6.2334,-6.4547,-6.4143,-6.5308,-6.7078,-6.8916,-6.7513,-6.8063,-6.9761,-7.0246,-7.0468,-7.0481,-7.0616,-7.0699,-7.0572,-6.9777,-6.9253,-6.8685,-6.6989,-6.5764,-6.4999,-6.4999,-6.5663,-6.6546,-6.6967,-6.7359,-6.7687,-6.7687,-6.7687,-6.7687,-6.7687,-6.7687,-6.7687,-6.7687,-6.7687,-6.7687,-6.7687,-6.7687,-6.7687,-6.7687,-6.7687,-6.781,-6.8097,-6.8338,-6.8614,-6.891,-6.9148,-6.9313,-6.9313,-6.955,-6.9738,-6.9738,-6.9992,-7.0381,-7.0871,-7.0494,-7.009,-6.9725,-6.8783,-6.7917,-6.7109,-6.6301,-6.5897,-6.5897,-6.5897,-6.5897,-6.5897,-6.5897,-6.5897,0.8197,0.8436,0.854,0.8717,0.4387,-0.0,-0.0,-0.0725,-0.3638,-1.1012,-0.8798,-0.6491,-0.9497,-1.0127,-1.1298,-1.4533,-1.5619,-1.7948,-2.3429,-2.6824,-2.8809,-2.8754,-3.1642,-3.4345,-3.5918,-4.0038,-4.2997,-4.3695,-4.6509,-4.8197,-4.8197,-5.0754,-5.2416,-5.263,-5.4082,-5.5406,-5.6704,-5.79,-5.765,-5.5843,-5.9103,-6.0004,-5.8947,-6.2076,-6.4191,-6.5222,-6.2956,0.0,-6.7627,-6.5268,-6.6199,-6.9259,-6.928,-6.9299,-6.9211,-6.8628,-6.8414,-6.829,-6.7493,-6.656,-6.5699,-6.5029,-6.4732,-6.4597,-6.4597,-6.4682,-6.5017,-6.5922,-6.67,-6.7341,-6.7488,-6.7488,-6.7561,-6.7687,-6.7687,-6.7687,-6.7687,-6.7687,-6.7687,-6.7687,-6.7687,-6.7687,-6.7687,-6.7687,-6.7687,-6.7687,-6.8097,-6.8387,-6.8387,-6.8777,-6.9064,-6.9064,-6.9148,-6.919,-6.919,-6.9272,-6.9701,-7.0593,-7.0729,-7.0459,-6.9725,-6.9706,-6.8879,-6.7128,-6.6417,-6.6013,-6.5897,-6.5897,-6.5897,-6.5897,-6.5897,-6.5897,0.8053,0.8434,0.8772,0.8233,0.3987,-0.0,-0.0,-0.4301,-0.9109,-1.1916,-1.1404,-1.0368,-1.0112,-1.114,-1.2305,-1.3168,-1.6436,-2.009,-2.3688,-2.6911,-2.9068,-2.9253,-3.2967,-3.5902,-3.6499,-3.9567,-4.2109,-4.3595,-4.55,-4.6648,-4.6648,-4.8313,-4.9734,-5.1044,-5.2509,-5.4053,-5.5466,-5.6623,-5.6408,-5.4605,-5.8671,-5.9721,-5.8186,-6.1839,-6.3632,-6.3886,0.0,-6.5406,-6.6079,-6.6265,-6.6687,-6.7257,-6.7454,-6.7481,-6.7527,-6.757,-6.7563,-6.7457,-6.6678,-6.5372,-6.4057,-6.3952,-6.3371,-6.2779,-6.2779,-6.3314,-6.4096,-6.4951,-6.5344,-6.5617,-6.6386,-6.6582,-6.6794,-6.7542,-6.7687,-6.7687,-6.7687,-6.7687,-6.7687,-6.7687,-6.7687,-6.7687,-6.7687,-6.7687,-6.7687,-6.7687,-6.7776,-6.781,-6.781,-6.7897,-6.793,-6.793,-6.8338,-6.8614,-6.8614,-6.9021,-6.9393,-6.955,-6.9973,-7.0068,-6.9698,-6.9706,-6.8879,-6.7128,-6.6974,-6.6571,-6.5897,-6.5897,-6.5897,-6.5897,-6.5897,-6.5897,0.8069,0.8639,0.8057,0.4538,0.1876,-0.1216,-0.5733,-0.8066,-0.9895,-1.2201,-1.139,-1.0318,-1.0488,-1.1836,-1.3553,-1.5991,-1.9602,-2.2915,-2.4988,-2.7186,-2.9051,-3.0241,-3.303,-3.511,-3.5234,-3.8037,-4.0537,-4.2201,-4.3979,-4.5281,-4.6301,-4.7639,-4.8864,-4.9508,-5.1741,-5.3294,-5.3964,-5.5391,-5.5095,-5.3356,-5.7627,-5.8707,-5.708,-6.1099,-6.3125,-6.3463,0.0,-6.3226,-6.5002,-6.3717,-6.414,-6.566,-6.5722,-6.5727,-6.5703,-6.5434,-6.5031,-6.4633,-6.427,-6.3664,-6.299,-6.299,-6.2719,-6.2381,-6.2381,-6.2659,-6.3049,-6.3501,-6.4632,-6.5966,-6.6834,-6.7099,-6.723,-6.7615,-6.7687,-6.7687,-6.7687,-6.7687,-6.7687,-6.7687,-6.7687,-6.7687,-6.7687,-6.7687,-6.7687,-6.7687,-6.7687,-6.7687,-6.7687,-6.7687,-6.7687,-6.7687,-6.793,-6.8047,-6.8047,-6.829,-6.8705,-6.9272,-6.9531,-6.9623,-6.9493,-6.9017,-6.8407,-6.7607,-6.7169,-6.654,-6.574,-6.574,-6.5638,-6.5466,-6.5466,-6.5616,0.8152,0.7859,0.5678,0.1194,-0.0,-0.2224,-1.0834,-1.0965,-1.0096,-1.2305,-1.1118,-0.9958,-1.0968,-1.2608,-1.5003,-1.888,-2.2185,-2.4638,-2.5731,-2.7583,-2.9352,-3.0854,-3.303,-3.4531,-3.4531,-3.6952,-3.9376,-4.1052,-4.2706,-4.4497,-4.618,-4.7429,-4.8094,-4.8532,-5.0754,-5.2295,-5.2963,-5.4082,-5.4284,-5.3545,-5.6801,-5.7836,-5.6809,-6.0365,-6.2253,-6.269,-6.0823,-6.1704,-6.4191,-6.2042,-6.2516,-6.458,-6.441,-6.4241,-6.4021,-6.3463,-6.2888,-6.2381,-6.2381,-6.2381,-6.2381,-6.2381,-6.2381,-6.2381,-6.2381,-6.2381,-6.2459,-6.2659,-6.4183,-6.5984,-6.6816,-6.7081,-6.7137,-6.7615,-6.7687,-6.7687,-6.7687,-6.7687,-6.7687,-6.7687,-6.7687,-6.7687,-6.7687,-6.7687,-6.7687,-6.7687,-6.7687,-6.7687,-6.7687,-6.7687,-6.7687,-6.7687,-6.7687,-6.7687,-6.7687,-6.7687,-6.8065,-6.8866,-6.9021,-6.919,-6.9313,-6.8671,-6.8237,-6.8011,-6.7386,-6.6689,-6.5878,-6.5689,-6.5481,-6.5204,-6.5014,-6.523,0.8631,0.4839,0.0572,0.0123,-0.0,-0.2367,-1.1352,-1.2198,-1.1404,-1.2496,-1.181,-1.1172,-1.1677,-1.4022,-1.6783,-1.9295,-2.1628,-2.3354,-2.4535,-2.7795,-3.0194,-3.0335,-3.3596,-3.5879,-3.5879,-3.7514,-3.9376,-4.1052,-4.2706,-4.4497,-4.618,-4.6421,-4.7087,-4.8416,-4.8762,-5.0197,-5.2963,-5.3083,-5.4287,-5.6697,-5.6978,-5.7604,-5.8687,-6.0063,-6.0719,-6.0886,-6.2522,-6.3345,-6.3632,-6.4089,-6.441,-6.4529,-6.3869,-6.3159,-6.2533,-6.2482,-6.2431,-6.2381,-6.2381,-6.2381,-6.2381,-6.2381,-6.2381,-6.2381,-6.2381,-6.2381,-6.2598,-6.3388,-6.3719,-6.4113,-6.4933,-6.5196,-6.56,-6.7286,-6.7687,-6.7687,-6.7687,-6.7687,-6.7687,-6.7687,-6.7687,-6.7687,-6.7687,-6.7687,-6.7687,-6.7687,-6.7687,-6.7687,-6.7687,-6.7687,-6.7687,-6.7687,-6.7687,-6.7687,-6.7687,-6.7687,-6.7722,-6.781,-6.8308,-6.8777,-6.9272,-6.9256,-6.8841,-6.803,-6.7914,-6.7518,-6.6727,-6.5953,-6.5596,-6.5559,-6.4785,-6.4696,0.4242,0.1683,-0.0,-0.0,-0.0,-0.157,-0.7881,-1.0893,-1.2645,-1.3009,-1.1835,-1.1455,-1.3901,-1.5812,-1.8099,-2.1508,-2.3034,-2.4959,-2.7689,-2.9456,-3.1166,-3.3586,-3.5158,-3.6016,-3.6016,-3.6539,-3.8221,-4.0924,-4.182,-4.3357,-4.618,-4.6313,-4.6528,-4.7087,-4.7977,-4.9522,-5.1604,-5.2509,-5.4024,-5.5903,-5.6623,-5.7261,-5.7714,-5.9697,-6.0602,-6.0703,-6.2156,-6.2821,-6.2837,-6.3108,-6.3226,-6.3193,-6.2922,-6.2651,-6.2381,-6.2381,-6.2381,-6.2381,-6.2381,-6.2381,-6.2381,-6.2381,-6.2381,-6.2381,-6.2381,-6.2381,-6.2459,-6.2796,-6.2931,-6.3257,-6.4597,-6.4999,-6.5344,-6.6564,-6.691,-6.7043,-6.7561,-6.7687,-6.7687,-6.7687,-6.7687,-6.7687,-6.7687,-6.7687,-6.7687,-6.7687,-6.7687,-6.7687,-6.7687,-6.7687,-6.7687,-6.7687,-6.7687,-6.7687,-6.7687,-6.7687,-6.7687,-6.7687,-6.7897,-6.8097,-6.8308,-6.8308,-6.8141,-6.7826,-6.7826,-6.7436,-6.659,-6.6293,-6.6062,-6.5839,-6.5015,-6.4909,0.1005,-0.0,-0.0696,-0.3561,-0.347,-0.3917,-0.7926,-1.1228,-1.3306,-1.2933,-1.203,-1.2365,-1.5715,-1.7133,-1.8987,-2.2747,-2.3834,-2.516,-2.8144,-2.9599,-3.1307,-3.3872,-3.5304,-3.6016,-3.6016,-3.6539,-3.8088,-4.0924,-4.1693,-4.322,-4.618,-4.6313,-4.6313,-4.6313,-4.7311,-4.8736,-5.0699,-5.1727,-5.3279,-5.5194,-5.6001,-5.6445,-5.6541,-5.8526,-5.9418,-5.9506,-6.1136,-6.1854,-6.1854,-6.2206,-6.2381,-6.2381,-6.2381,-6.2381,-6.2381,-6.2381,-6.2381,-6.2381,-6.2381,-6.2381,-6.2381,-6.2381,-6.2381,-6.2381,-6.2381,-6.2381,-6.2381,-6.2381,-6.2381,-6.2642,-6.39,-6.4409,-6.4817,-6.5779,-6.6186,-6.6582,-6.7174,-6.7488,-6.7687,-6.7687,-6.7687,-6.7687,-6.7687,-6.7687,-6.7687,-6.7687,-6.7687,-6.7687,-6.7687,-6.7687,-6.7687,-6.7687,-6.7687,-6.7687,-6.7687,-6.7687,-6.7687,-6.7687,-6.7687,-6.7687,-6.7687,-6.7687,-6.7687,-6.7687,-6.7687,-6.7412,-6.688,-6.6623,-6.6404,-6.6134,-6.5319,-6.5084,-0.0,-0.0,-0.2173,-1.1121,-1.1189,-0.9734,-1.2711,-1.3328,-1.3153,-1.2283,-1.2651,-1.4036,-1.6916,-1.7645,-1.899,-2.2704,-2.334,-2.3654,-2.4523,-2.7909,-3.0318,-3.0318,-3.3734,-3.6016,-3.6016,-3.7575,-3.9245,-4.1052,-4.2706,-4.4497,-4.6193,-4.6313,-4.6313,-4.6313,-4.6313,-4.7743,-5.0699,-5.0699,-5.2159,-5.5194,-5.5194,-5.5194,-5.528,-5.6445,-5.6976,-5.7166,-5.9506,-6.0586,-6.0686,-6.1854,-6.2381,-6.2381,-6.2398,-6.2381,-6.2381,-6.2381,-6.2381,-6.2381,-6.2381,-6.2381,-6.2381,-6.2381,-6.2381,-6.2381,-6.2381,-6.2381,-6.2381,-6.2381,-6.2381,-6.2381,-6.2381,-6.3049,-6.3917,-6.4799,-6.5698,-6.6404,-6.6404,-6.7099,-6.7687,-6.7687,-6.7687,-6.7687,-6.7687,-6.7687,-6.7687,-6.7687,-6.7687,-6.7687,-6.7687,-6.7687,-6.7687,-6.7687,-6.7687,-6.7687,-6.7687,-6.7687,-6.7687,-6.7687,-6.7687,-6.7687,-6.7687,-6.7687,-6.7687,-6.7687,-6.7687,-6.7687,-6.7687,-6.6898,-6.6512,-6.6494,-6.5705,-6.514,-0.0,-0.3047,-0.6883,-0.9598,-1.1132,-1.1757,-1.0481,-1.1277,-1.2365,-1.233,-1.3584,-1.5231,-1.6989,-1.9303,-2.1644,-2.3628,-2.4462,-2.5966,-2.8997,-3.0131,-3.1699,-3.4445,-3.5486,-3.6016,-3.6016,-3.6403,-3.7955,-4.0924,-4.1693,-4.3232,-4.618,-4.6313,-4.6313,-4.6313,-4.6313,-4.7193,-4.918,-5.0157,-5.1713,-5.3637,-5.4743,-5.5194,-5.528,-5.6445,-5.6976,-5.7071,-5.8616,-5.9346,-5.9434,-6.0602,-6.1136,-6.1218,-6.203,-6.2381,-6.2381,-6.2381,-6.2381,-6.2381,-6.2381,-6.2381,-6.2381,-6.2381,-6.2381,-6.2381,-6.2381,-6.2381,-6.2381,-6.2381,-6.2381,-6.2381,-6.2381,-6.2581,-6.299,-6.39,-6.4306,-6.4852,-6.6125,-6.6582,-6.6985,-6.7561,-6.7687,-6.7687,-6.7687,-6.7687,-6.7687,-6.7687,-6.7687,-6.7687,-6.7687,-6.7687,-6.7687,-6.7687,-6.7687,-6.7687,-6.7687,-6.7687,-6.7687,-6.7687,-6.7687,-6.7687,-6.7687,-6.7687,-6.7687,-6.7687,-6.7687,-6.7687,-6.7687,-6.7448,-6.7338,-6.7302,-6.6512,-6.6084,-0.4376,-0.7975,-1.0598,-0.9958,-1.0978,-1.1748,-1.0194,-1.0729,-1.1799,-1.263,-1.4415,-1.6339,-1.7906,-2.0654,-2.3277,-2.4697,-2.5344,-2.6836,-2.9798,-3.0771,-3.2236,-3.5454,-3.6109,-3.6279,-3.6279,-3.6773,-3.8221,-4.0924,-4.182,-4.3357,-4.618,-4.6313,-4.6313,-4.6313,-4.6313,-4.7311,-4.9408,-5.0268,-5.1713,-5.386,-5.4743,-5.5194,-5.5179,-5.5903,-5.6265,-5.6363,-5.7527,-5.836,-5.8812,-5.961,-5.987,-5.9973,-6.1218,-6.1659,-6.1756,-6.2206,-6.2381,-6.2381,-6.2381,-6.2381,-6.2381,-6.2381,-6.2381,-6.2381,-6.2381,-6.2381,-6.2381,-6.2381,-6.2381,-6.2381,-6.2381,-6.2381,-6.252,-6.3049,-6.3444,-6.3989,-6.5118,-6.559,-6.6028,-6.6546,-6.6949,-6.7174,-6.7174,-6.7488,-6.7687,-6.7687,-6.7687,-6.7687,-6.7687,-6.7687,-6.7687,-6.7687,-6.7687,-6.7687,-6.7687,-6.7687,-6.7687,-6.7687,-6.7687,-6.7687,-6.7687,-6.7687,-6.7687,-6.7687,-6.7687,-6.7687,-6.7687,-6.7687,-6.7687,-6.7687,-6.7192,-6.6806,-1.1209,-1.2999,-1.2358,-1.1368,-1.0688,-1.0572,-1.131,-1.1314,-1.1815,-1.3426,-1.5287,-1.7517,-1.9725,-2.2006,-2.4032,-2.572,-2.5999,-2.6659,-2.8461,-3.0291,-3.2174,-3.4252,-3.5811,-3.6728,-3.6728,-3.7766,-3.9188,-4.1119,-4.2603,-4.4251,-4.618,-4.6313,-4.6313,-4.6313,-4.6313,-4.7639,-5.0268,-5.0588,-5.2037,-5.4743,-5.5078,-5.5194,-5.5194,-5.5194,-5.5194,-5.528,-5.6347,-5.7449,-5.8451,-5.8632,-5.8632,-5.8722,-5.9973,-6.0417,-6.0586,-6.1676,-6.211,-6.2223,-6.2223,-6.2302,-6.2381,-6.2381,-6.2381,-6.2381,-6.2381,-6.2381,-6.2381,-6.2381,-6.2381,-6.2381,-6.2381,-6.2381,-6.2381,-6.2381,-6.299,-6.3574,-6.3647,-6.4288,-6.4933,-6.4999,-6.5698,-6.6325,-6.6404,-6.7043,-6.7615,-6.7687,-6.7687,-6.7687,-6.7687,-6.7687,-6.7687,-6.7687,-6.7687,-6.7687,-6.7687,-6.7687,-6.7687,-6.7687,-6.7687,-6.7687,-6.7687,-6.7687,-6.7687,-6.7687,-6.7687,-6.7687,-6.7687,-6.7687,-6.7687,-6.7687,-6.7687,-6.7302,-1.2859,-0.9933,-0.7112,-0.9834,-1.0317,-1.0561,-1.2481,-1.2467,-1.2754,-1.5456,-1.7164,-1.9167,-2.1986,-2.4277,-2.5878,-2.6306,-2.6293,-2.7038,-2.8938,-3.0664,-3.2423,-3.4501,-3.6238,-3.7158,-3.7158,-3.7174,-3.8366,-4.1481,-4.1651,-4.3095,-4.618,-4.6313,-4.6313,-4.6313,-4.6313,-4.6648,-4.7193,-4.9495,-5.1044,-5.1713,-5.4068,-5.5194,-5.5194,-5.5194,-5.5194,-5.5194,-5.5451,-5.5735,-5.6001,-5.6991,-5.7355,-5.7527,-5.8722,-5.917,-5.9258,-5.9434,-6.0145,-6.0953,-6.0953,-6.1578,-6.2381,-6.2381,-6.2381,-6.2381,-6.2381,-6.2381,-6.2381,-6.2381,-6.2381,-6.2381,-6.2381,-6.2381,-6.2381,-6.2381,-6.252,-6.2855,-6.3591,-6.3846,-6.4166,-6.4866,-6.5131,-6.5554,-6.6247,-6.6523,-6.691,-6.7615,-6.7687,-6.7687,-6.7687,-6.7687,-6.7687,-6.7687,-6.7687,-6.7687,-6.7687,-6.7687,-6.7687,-6.7687,-6.7687,-6.7687,-6.7687,-6.7687,-6.7687,-6.7687,-6.7687,-6.7687,-6.7687,-6.7687,-6.7687,-6.7687,-6.7687,-6.7595,-1.1201,-1.0025,-0.9105,-1.092,-1.1402,-1.1867,-1.2684,-1.2847,-1.3876,-1.7363,-1.8808,-2.0151,-2.2692,-2.4926,-2.6386,-2.6386,-2.6386,-2.7462,-3.0515,-3.1582,-3.3268,-3.6274,-3.7249,-3.7598,-3.7598,-3.7217,-3.8336,-4.1528,-4.1663,-4.2847,-4.6072,-4.6313,-4.6313,-4.6313,-4.6313,-4.6648,-4.7311,-4.9608,-5.1044,-5.1835,-5.4068,-5.5194,-5.5194,-5.5194,-5.5194,-5.5194,-5.5194,-5.5194,-5.528,-5.5918,-5.6183,-5.628,-5.7449,-5.79,-5.7993,-5.8632,-5.917,-5.9697,-5.9697,-6.0501,-6.1578,-6.1578,-6.1934,-6.2381,-6.2381,-6.2381,-6.2381,-6.2381,-6.2381,-6.2381,-6.2381,-6.2381,-6.2381,-6.2381,-6.2381,-6.252,-6.299,-6.3049,-6.3182,-6.3702,-6.4096,-6.4564,-6.5052,-6.5444,-6.6028,-6.6967,-6.7099,-6.723,-6.7633,-6.7687,-6.7687,-6.7687,-6.7687,-6.7687,-6.7687,-6.7687,-6.7687,-6.7687,-6.7687,-6.7687,-6.7687,-6.7687,-6.7687,-6.7687,-6.7687,-6.7687,-6.7687,-6.7687,-6.7687,-6.7687,-6.7687,-6.7687,-0.8887,-1.1369,-1.3154,-1.2425,-1.2654,-1.2922,-1.2562,-1.2861,-1.4538,-1.9056,-1.9907,-2.0716,-2.314,-2.5251,-2.6386,-2.6386,-2.6386,-2.7769,-3.1429,-3.2193,-3.3868,-3.7649,-3.8098,-3.8037,-3.8037,-3.7656,-3.8732,-4.1783,-4.1868,-4.3148,-4.6222,-4.6363,-4.6313,-4.6313,-4.6313,-4.6862,-4.8094,-4.9608,-5.1057,-5.2615,-5.4406,-5.5194,-5.5194,-5.5194,-5.5194,-5.5194,-5.5194,-5.5194,-5.5194,-5.5194,-5.5194,-5.528,-5.6265,-5.6719,-5.68,-5.7807,-5.8268,-5.8451,-5.8451,-5.9258,-6.0332,-6.0501,-6.1317,-6.2127,-6.2302,-6.2381,-6.2381,-6.2381,-6.2381,-6.2381,-6.2381,-6.2381,-6.2381,-6.2381,-6.2381,-6.2381,-6.2381,-6.2381,-6.2381,-6.2381,-6.3021,-6.3477,-6.3355,-6.4023,-6.487,-6.5651,-6.579,-6.6143,-6.7122,-6.7268,-6.7396,-6.7669,-6.7687,-6.7687,-6.7687,-6.7687,-6.7687,-6.7687,-6.7687,-6.7687,-6.7687,-6.7687,-6.7687,-6.7687,-6.7687,-6.7687,-6.7687,-6.7687,-6.7687,-6.7687,-6.7687,-6.7687,-0.9132,-1.2173,-1.3271,-1.2418,-1.1874,-1.1775,-1.2979,-1.283,-1.3852,-1.8906,-1.9907,-2.12,-2.5251,-2.6221,-2.6386,-2.6386,-2.6386,-2.7155,-2.9441,-3.1429,-3.3406,-3.5664,-3.7445,-3.8486,-3.8486,-3.8096,-3.9312,-4.277,-4.2247,-4.331,-4.6771,-4.6577,-4.6313,-4.6313,-4.6313,-4.6421,-4.6648,-4.8081,-4.9508,-5.1044,-5.3846,-5.5194,-5.5194,-5.5194,-5.5194,-5.5194,-5.5194,-5.5194,-5.5194,-5.5194,-5.5194,-5.5194,-5.5365,-5.5466,-5.5466,-5.5651,-5.6363,-5.7261,-5.7261,-5.7977,-5.917,-6.0247,-6.0686,-6.1053,-6.211,-6.2381,-6.2381,-6.2381,-6.2381,-6.2381,-6.2381,-6.2381,-6.2381,-6.2381,-6.2381,-6.2381,-6.2381,-6.2381,-6.2381,-6.2381,-6.2593,-6.2506,-6.1936,-6.2512,-6.3126,-6.3271,-6.3271,-6.3831,-6.533,-6.5537,-6.6092,-6.7541,-6.7687,-6.7687,-6.7687,-6.7687,-6.7687,-6.7687,-6.7687,-6.7687,-6.7687,-6.7687,-6.7687,-6.7687,-6.7687,-6.7687,-6.7687,-6.7687,-6.7687,-6.7687,-6.7687,-6.7687,-0.7077,-1.0128,-1.1928,-1.2683,-1.203,-1.1555,-1.3057,-1.2823,-1.3718,-1.8877,-1.9907,-2.12,-2.5574,-2.6386,-2.6386,-2.6386,-2.6386,-2.7462,-3.0669,-3.1888,-3.3708,-3.6885,-3.8107,-3.8574,-3.8574,-3.8398,-3.9698,-4.2992,-4.2571,-4.3623,-4.6884,-4.6602,-4.6313,-4.6313,-4.6313,-4.6313,-4.6313,-4.7756,-4.9635,-5.2051,-5.3294,-5.4406,-5.5194,-5.5194,-5.5194,-5.5194,-5.5194,-5.5194,-5.5194,-5.5194,-5.5194,-5.5194,-5.5194,-5.5194,-5.5194,-5.5194,-5.5551,-5.6001,-5.6001,-5.6815,-5.79,-5.8435,-5.9065,-5.98,-6.1053,-6.1399,-6.1497,-6.2206,-6.2381,-6.2381,-6.2381,-6.2381,-6.2279,-6.1873,-6.1772,-6.1653,-6.1214,-6.1467,-6.1653,-6.1197,-6.117,-6.1092,-6.0767,-6.1008,-6.1467,-6.2013,-6.208,-6.2516,-6.3724,-6.3839,-6.4266,-6.5473,-6.6011,-6.6458,-6.6931,-6.7433,-6.7687,-6.7687,-6.7687,-6.7687,-6.7687,-6.7687,-6.7687,-6.7687,-6.7687,-6.7687,-6.7687,-6.7687,-6.7687,-6.7687,-6.7687,-6.7687,-0.5395,-0.8258,-1.0798,-1.2372,-1.1847,-1.1223,-1.2535,-1.2856,-1.4149,-1.8627,-2.0191,-2.185,-2.5733,-2.6386,-2.6386,-2.6386,-2.6386,-2.7769,-3.1888,-3.2505,-3.4018,-3.8117,-3.8574,-3.8574,-3.8574,-3.8574,-3.9779,-4.2469,-4.2493,-4.3594,-4.6378,-4.6359,-4.6313,-4.6313,-4.6313,-4.6313,-4.6313,-4.7756,-4.9648,-5.1863,-5.263,-5.3623,-5.4641,-5.5078,-5.5194,-5.5194,-5.5194,-5.5194,-5.5194,-5.5194,-5.5194,-5.5194,-5.5194,-5.5194,-5.5194,-5.5194,-5.5194,-5.5194,-5.5194,-5.5819,-5.6623,-5.6896,-5.7621,-5.8542,-5.9784,-6.0332,-6.0787,-6.1676,-6.2206,-6.2347,-6.2161,-6.211,-6.1924,-6.118,-6.0994,-6.0842,-6.0233,-6.0571,-6.0757,-5.9979,-5.9827,-5.9759,-5.9573,-5.9539,-5.9803,-6.0475,-6.0616,-6.0982,-6.2058,-6.2223,-6.257,-6.3541,-6.4197,-6.4903,-6.5687,-6.6333,-6.6788,-6.6988,-6.7006,-6.7006,-6.7006,-6.723,-6.7359,-6.7359,-6.7615,-6.7687,-6.7687,-6.7687,-6.7687,-6.7687,-6.7687,-6.7687,-0.532,-0.7439,-1.0541,-1.1217,-1.069,-1.0314,-1.1101,-1.2897,-1.519,-1.8239,-2.1035,-2.3626,-2.5905,-2.6386,-2.6386,-2.6386,-2.6386,-2.7769,-3.1888,-3.2505,-3.4018,-3.8117,-3.8574,-3.8574,-3.8574,-3.8574,-3.9226,-4.0696,-4.183,-4.3071,-4.469,-4.5711,-4.6313,-4.6313,-4.6313,-4.6313,-4.6313,-4.7756,-4.8532,-4.8749,-5.1632,-5.3069,-5.3189,-5.4524,-5.5194,-5.5194,-5.5194,-5.5194,-5.5194,-5.5194,-5.5194,-5.5194,-5.5194,-5.5194,-5.5194,-5.5194,-5.5194,-5.5194,-5.5194,-5.528,-5.5451,-5.6623,-5.7071,-5.7355,-5.8542,-5.9697,-6.0602,-6.0686,-6.1497,-6.2229,-6.1535,-6.1366,-6.1163,-6.0351,-6.0165,-6.0148,-6.0114,-6.0131,-5.9945,-5.9218,-5.9066,-5.8846,-5.8118,-5.8,-5.8,-5.8073,-5.8073,-5.8638,-6.0323,-6.0495,-6.1093,-6.2663,-6.2878,-6.3197,-6.3996,-6.4049,-6.4433,-6.5095,-6.5131,-6.5131,-6.5131,-6.5966,-6.6464,-6.6464,-6.7304,-6.7687,-6.7687,-6.7687,-6.7687,-6.7687,-6.7687,-6.7687,-0.7656,-0.8392,-0.9663,-1.0863,-1.0243,-0.9656,-1.0884,-1.2799,-1.4932,-1.6957,-2.0447,-2.3532,-2.4698,-2.5758,-2.6386,-2.6386,-2.6386,-2.7769,-3.1888,-3.2505,-3.4018,-3.8117,-3.8574,-3.8574,-3.8574,-3.8574,-3.9226,-4.0557,-4.0431,-4.1602,-4.4492,-4.4368,-4.4832,-4.6276,-4.6313,-4.6313,-4.6313,-4.6874,-4.7534,-4.8532,-4.9648,-5.1085,-5.2963,-5.3518,-5.4304,-5.5194,-5.5194,-5.5194,-5.5194,-5.5194,-5.5194,-5.5194,-5.5194,-5.5194,-5.5194,-5.5194,-5.5194,-5.5194,-5.5194,-5.5194,-5.528,-5.5735,-5.5819,-5.61,-5.7261,-5.7993,-5.8616,-6.0145,-6.0605,-6.0631,-6.1194,-6.0926,-6.0334,-5.959,-5.9032,-5.8676,-5.8676,-5.8676,-5.8609,-5.8338,-5.8287,-5.8203,-5.7932,-5.7881,-5.7881,-5.7881,-5.7881,-5.8112,-5.8709,-5.8815,-5.9213,-6.0217,-6.0893,-6.1593,-6.2296,-6.2864,-6.3506,-6.422,-6.4256,-6.4486,-6.4981,-6.5904,-6.6404,-6.6404,-6.7248,-6.7687,-6.7687,-6.7687,-6.7687,-6.7687,-6.7687,-6.7687,-0.8628,-0.8881,-0.9195,-1.0171,-0.9673,-0.9198,-1.0188,-1.3038,-1.5779,-1.6721,-2.0888,-2.4321,-2.4809,-2.5732,-2.6386,-2.6386,-2.6386,-2.7769,-3.1888,-3.2505,-3.4018,-3.8117,-3.8574,-3.8574,-3.8574,-3.8447,-3.8729,-3.9521,-3.9897,-4.1054,-4.3322,-4.3851,-4.4782,-4.6263,-4.6313,-4.6313,-4.6313,-4.6313,-4.6755,-4.7756,-4.8313,-4.9535,-5.1523,-5.1957,-5.3069,-5.4406,-5.4406,-5.4743,-5.5194,-5.5194,-5.5194,-5.5194,-5.5194,-5.5194,-5.5194,-5.5194,-5.5194,-5.5194,-5.5194,-5.5194,-5.5194,-5.5194,-5.5194,-5.5365,-5.6183,-5.6719,-5.7293,-5.8687,-5.8982,-5.9118,-5.981,-5.97,-5.9235,-5.8761,-5.8254,-5.7881,-5.7881,-5.7881,-5.7881,-5.7881,-5.7881,-5.7881,-5.7881,-5.7881,-5.7881,-5.7881,-5.7881,-5.7881,-5.7881,-5.7881,-5.8084,-5.8592,-5.9211,-5.9838,-6.0613,-6.1172,-6.1859,-6.2577,-6.2612,-6.2979,-6.3747,-6.4663,-6.5258,-6.5526,-6.635,-6.6949,-6.723,-6.7561,-6.7687,-6.7687,-6.7687,-6.7687,0.0,0.0,0.0,-0.894,-0.894,-0.894,-0.894,-1.3382,-1.761,-1.7615,-2.2178,-2.6326,-2.6326,-2.636,-2.6386,-2.6386,-2.6386,-2.7769,-3.1888,-3.2505,-3.4018,-3.8117,-3.8574,-3.8574,-3.8574,-3.8184,-3.7744,-3.7334,-4.0018,-4.1488,-4.1203,-4.4386,-4.6313,-4.6313,-4.6313,-4.6313,-4.6313,-4.6313,-4.6313,-4.6313,-4.7756,-4.8416,-4.8532,-4.9946,-5.1495,-5.2963,-5.2963,-5.3846,-5.5179,-5.5194,-5.5194,-5.5194,-5.5194,-5.5194,-5.5194,-5.5194,-5.5194,-5.5194,-5.5194,-5.5194,-5.5194,-5.5194,-5.5194,-5.5194,-5.5164,-5.5971,-5.6821,-5.6123,-5.6798,-5.7618,-5.7445,-5.7623,-5.7881,-5.7881,-5.7881,-5.7881,-5.7881,-5.7881,-5.7881,-5.7881,-5.7881,-5.7881,-5.7881,-5.7881,-5.7881,-5.7881,-5.7881,-5.7881,-5.7881,-5.7881,-5.7881,-5.7881,-5.7881,-5.8186,-5.893,-5.8981,-5.9285,-6.003,-6.0063,-6.0436,-6.1231,-6.2088,-6.2888,-6.3632,-6.4494,-6.539,-6.6307,-6.723,-6.7687,-6.7687,-6.7687,-6.7687,-0.8634,0.0,0.0,0.0,0.0,0.0,-0.894,-1.179,-1.4876,-1.5878,-1.9945,-2.3585,-2.4654,-2.5678,-2.6386,-2.6386,-2.6386,-2.7769,-3.1888,-3.2505,-3.4018,-3.8117,-3.8574,-3.8574,-3.8574,-3.8184,-3.7744,0.0,-3.7391,-3.8668,-4.1125,-4.4386,-4.6313,-4.6313,-4.6313,-4.6313,-4.6313,-4.6313,-4.6313,-4.6313,-4.6755,-4.7416,-4.8532,-4.8965,-4.9946,-5.1372,-5.2509,-5.3189,-5.3742,-5.4743,-5.5194,-5.5194,-5.5194,-5.5194,-5.5194,-5.5194,-5.5194,-5.5194,-5.5194,-5.5194,-5.5194,-5.5194,-5.5194,-5.5104,-5.4625,-5.4744,-5.5053,-5.5255,-5.5127,-5.5216,-5.6253,-5.6619,-5.687,-5.7718,-5.7881,-5.7881,-5.7881,-5.7881,-5.7881,-5.7881,-5.7881,-5.7881,-5.7881,-5.7881,-5.7881,-5.7881,-5.7881,-5.7881,-5.7881,-5.7881,-5.7881,-5.7881,-5.7881,-5.7966,-5.8186,-5.8203,-5.8524,-5.9268,-5.9319,-5.9641,-6.0402,-6.1298,-6.1936,-6.2073,-6.3506,-6.4315,-6.4589,-6.6037,-6.7099,-6.7687,-6.7687,-6.7687,-0.885,-0.895,-0.8954,-0.9015,0.0,0.0,-0.978,-1.2653,-1.561,-1.7009,-2.078,-2.3856,-2.4163,-2.4903,-2.5478,-2.5478,-2.5478,-2.7183,-3.179,-3.2505,-3.4018,-3.8117,-3.8574,-3.8506,-3.832,-3.791,-3.749,-3.707,-3.7746,-3.9622,-4.3185,-4.5281,-4.6313,-4.6313,-4.6313,-4.6313,-4.6313,-4.6313,-4.6313,-4.6313,-4.6313,-4.6755,-4.7534,-4.7534,-4.8416,-4.9833,-5.074,-5.1509,-5.2065,-5.2948,-5.4053,-5.5194,-5.5194,-5.5194,-5.5194,-5.5194,-5.5194,-5.5194,-5.5194,-5.5194,-5.5194,-5.5194,-5.4999,-5.4715,-5.4326,-5.3997,-5.3819,-5.3845,-5.3683,-5.3648,-5.4569,-5.5215,-5.581,-5.6963,-5.7206,-5.7297,-5.7808,-5.7881,-5.7881,-5.7881,-5.7881,-5.7881,-5.7881,-5.7881,-5.7881,-5.7881,-5.7881,-5.7881,-5.7881,-5.7881,-5.7881,-5.7881,-5.7881,-5.7881,-5.7881,-5.7881,-5.8068,-5.8507,-5.8541,-5.8879,-5.9624,-6.0198,-6.059,-6.0899,-6.1848,-6.2542,-6.288,-6.4828,-6.6089,-6.6605,-6.6967,-6.7174,-0.8944,-0.894,-0.8974,-0.9117,-0.9055,0.0,-1.0783,-1.3996,-1.7208,-1.8909,-2.2506,-2.4994,-2.4162,-2.3955,-2.3955,-2.3955,-2.3955,-2.5887,-3.1345,-3.2373,-3.394,-3.7798,-3.8428,-3.8408,-3.7969,-3.7539,-3.7119,-3.6709,-3.9523,-4.2592,-4.5537,-4.6059,-4.6313,-4.6313,-4.6313,-4.6313,-4.6313,-4.6313,-4.6313,-4.6313,-4.6313,-4.6313,-4.6313,-4.6313,-4.6981,-4.8313,-4.8429,-4.9294,-5.0477,-5.0588,-5.2373,-5.4962,-5.4962,-5.5078,-5.5194,-5.5194,-5.5194,-5.5194,-5.5194,-5.5149,-5.5089,-5.5089,-5.464,-5.4087,-5.4012,-5.3563,-5.2935,-5.2276,-5.2351,-5.2738,-5.2916,-5.3656,-5.4656,-5.5794,-5.6109,-5.6454,-5.7463,-5.7808,-5.7881,-5.7881,-5.7881,-5.7881,-5.7881,-5.7881,-5.7881,-5.7881,-5.7881,-5.7881,-5.7881,-5.7881,-5.7881,-5.7881,-5.7881,-5.7881,-5.7881,-5.7881,-5.7881,-5.7881,-5.7881,-5.8186,-5.8863,-5.8896,-5.9201,-5.9844,-5.9945,-6.0427,-6.1327,-6.3703,-6.4875,-6.4875,-6.5806,-6.6247,-0.894,-0.894,-0.8974,-0.9117,-0.913,0.0,-0.9592,-1.0267,-1.1917,-1.558,-1.6981,-1.8588,-2.1838,-2.2418,-2.2418,-2.2418,-2.2418,-2.413,-2.9216,-3.1425,-3.3309,-3.579,-3.7529,-3.8408,-3.7969,-3.7539,-3.7119,-3.6709,-3.9523,-4.1437,-4.2201,-4.4767,-4.6313,-4.6313,-4.6313,-4.6313,-4.6313,-4.6313,-4.6313,-4.6313,-4.6313,-4.6313,-4.6313,-4.6313,-4.6421,-4.6755,-4.7977,-4.8634,-4.908,-5.0157,-5.1821,-5.3413,-5.3413,-5.4186,-5.5194,-5.5194,-5.5194,-5.5194,-5.5194,-5.485,-5.4401,-5.4401,-5.3937,-5.3279,-5.2755,-5.2501,-5.2261,-5.1588,-5.1491,-5.1712,-5.2649,-5.3077,-5.3498,-5.4656,-5.5554,-5.6282,-5.6454,-5.7281,-5.7881,-5.7881,-5.7881,-5.7881,-5.7881,-5.7881,-5.7881,-5.7881,-5.7881,-5.7881,-5.7881,-5.7881,-5.7881,-5.7881,-5.7881,-5.7881,-5.7881,-5.7881,-5.7881,-5.7881,-5.7881,-5.7949,-5.8101,-5.8101,-5.8169,-5.8321,-5.8913,-5.958,-6.0381,-6.2906,-6.4079,-6.4096,-6.4912,-6.5279,-0.894,-0.894,-0.8974,-0.9117,-0.9154,0.0,0.0,-1.1392,-1.3214,-1.5943,-1.7737,-1.9203,-2.0631,-2.0895,-2.0895,-2.0895,-2.0895,-2.2013,-2.518,-2.8866,-3.2746,-3.6543,-3.7734,-3.8086,-3.7646,-3.7226,-3.7203,-3.7546,-3.9898,-4.1565,-4.2454,-4.489,-4.6313,-4.6313,-4.6313,-4.6313,-4.6313,-4.6313,-4.6313,-4.6313,-4.6313,-4.6313,-4.6313,-4.6313,-4.6313,-4.6313,-4.7087,-4.7429,-4.7416,-4.8184,-4.9408,-5.0865,-5.2416,-5.3413,-5.4186,-5.4962,-5.5194,-5.5149,-5.482,-5.4476,-5.4147,-5.3803,-5.3249,-5.2636,-5.2291,-5.1977,-5.1633,-5.1304,-5.1214,-5.1293,-5.1896,-5.2063,-5.2305,-5.3498,-5.4153,-5.4888,-5.5952,-5.6624,-5.7206,-5.7808,-5.7881,-5.7881,-5.7881,-5.7881,-5.7881,-5.7881,-5.7881,-5.7881,-5.7881,-5.7881,-5.7881,-5.7881,-5.7881,-5.7881,-5.7881,-5.7881,-5.7881,-5.7881,-5.7881,-5.7881,-5.7881,-5.7881,-5.7881,-5.7881,-5.8254,-5.8626,-5.8998,-6.0647,-6.1675,-6.2057,-6.3223,-6.3779,-0.894,-0.894,-0.8974,-0.9117,-0.9154,-0.9486,0.0,0.0,0.0,-1.656,-1.8932,-2.0394,-1.9593,-1.9372,-1.9352,-1.9299,-1.9332,-2.0014,-2.172,-2.6213,-3.1055,-3.5783,-3.656,-3.6523,-3.6103,-3.5976,-3.6604,-3.7955,-4.0018,-4.182,-4.3095,-4.5147,-4.6313,-4.6313,-4.6313,-4.6313,-4.6313,-4.6313,-4.6313,-4.6313,-4.6313,-4.6313,-4.6313,-4.6313,-4.6313,-4.6313,-4.6313,-4.6313,-4.6313,-4.6313,-4.6981,-4.8313,-5.1085,-5.2523,-5.3174,-5.4156,-5.4783,-5.491,-5.4236,-5.3922,-5.3728,-5.3174,-5.2546,-5.2007,-5.2007,-5.1633,-5.1214,-5.1214,-5.1214,-5.1214,-5.1214,-5.1214,-5.1479,-5.2305,-5.2738,-5.3396,-5.5215,-5.5873,-5.6454,-5.7372,-5.7718,-5.7881,-5.7881,-5.7881,-5.7881,-5.7881,-5.7881,-5.7881,-5.7881,-5.7881,-5.7881,-5.7881,-5.7881,-5.7881,-5.7881,-5.7881,-5.7881,-5.7881,-5.7881,-5.7881,-5.7881,-5.7881,-5.7881,-5.7881,-5.7881,-5.7881,-5.7881,-5.8507,-5.9184,-5.9911,-6.1393,-6.2154,-0.894,-0.894,-0.8974,-0.9117,-0.9154,-0.9267,-0.9377,0.0,-1.2149,-1.3497,0.0,-1.6478,-1.7642,0.0,0.0,-1.7495,-1.7669,-1.8944,-2.194,-2.4179,-2.6226,-2.7998,-3.0606,-3.208,-3.166,-3.2598,-3.4132,-3.614,-3.9376,-4.1309,-4.1437,-4.4509,-4.6313,-4.6313,-4.6313,-4.6313,-4.6313,-4.6313,-4.6313,-4.6313,-4.6313,-4.6313,-4.6313,-4.6313,-4.6313,-4.6313,-4.6313,-4.6313,-4.6313,-4.6313,-4.6421,-4.6755,-4.8429,-5.0643,-5.2905,-5.2552,-5.3216,-5.4221,-5.3533,-5.292,-5.2411,-5.2336,-5.1872,-5.1334,-5.1334,-5.1274,-5.1214,-5.1214,-5.1214,-5.1214,-5.1214,-5.1214,-5.1214,-5.1386,-5.2139,-5.2989,-5.3237,-5.4806,-5.6204,-5.636,-5.7206,-5.7881,-5.7881,-5.7881,-5.7881,-5.7881,-5.7881,-5.7881,-5.7881,-5.7881,-5.7881,-5.7881,-5.7881,-5.7881,-5.7881,-5.7881,-5.7881,-5.7881,-5.7881,-5.7881,-5.7881,-5.7881,-5.7881,-5.7881,-5.7881,-5.7881,-5.7881,-5.7966,-5.8406,-5.915,-6.0028,-6.035,-0.9466,-0.9585,-0.9598,-0.9659,-0.9741,-1.0023,-1.0752,-1.1804,-1.2981,-1.4283,0.0,0.0,0.0,0.0,0.0,0.0,-1.7502,-1.8068,-1.9427,-2.0894,-2.3574,-2.821,-3.0154,-3.1377,-3.1943,-3.1348,-3.1816,-3.3984,-3.732,-3.9273,-3.9273,-4.3784,-4.6313,-4.6313,-4.6313,-4.6313,-4.6313,-4.6313,-4.6313,-4.6313,-4.6313,-4.6313,-4.6313,-4.6313,-4.6313,-4.6313,-4.6313,-4.6125,-4.5836,-4.5836,-4.5635,-4.5334,-4.5986,-4.7727,-4.9941,-5.0197,-5.1245,-5.2337,-5.1692,-5.1801,-5.2142,-5.1753,-5.1439,-5.1214,-5.1214,-5.1214,-5.1214,-5.1214,-5.1214,-5.1214,-5.1214,-5.1214,-5.1214,-5.1214,-5.1557,-5.2063,-5.2738,-5.364,-5.4473,-5.5134,-5.6126,-5.687,-5.687,-5.7463,-5.7881,-5.7881,-5.7881,-5.7881,-5.7881,-5.7881,-5.7881,-5.7881,-5.7881,-5.7881,-5.7881,-5.7881,-5.7881,-5.7881,-5.7881,-5.7881,-5.7881,-5.7881,-5.7881,-5.7881,-5.7881,-5.7881,-5.7881,-5.7881,-5.8051,-5.8372,-5.9133,-5.9471,-1.0205,-1.0354,-1.0307,-1.0103,-1.0137,-1.0506,-1.1603,-1.2721,-1.379,-1.5131,-1.6605,0.0,0.0,0.0,-1.7555,-1.7475,0.0,-1.7555,-1.7475,-1.8762,-2.1676,-2.7151,-2.9078,-3.0283,-3.0976,-3.0146,-3.0225,-3.1797,-3.5242,-3.7473,-3.7938,-4.2796,-4.5793,-4.6313,-4.6313,-4.6313,-4.6313,-4.6313,-4.6313,-4.6313,-4.6313,-4.6225,-4.6087,-4.6087,-4.5999,-4.5849,-4.5849,-4.5623,-4.5246,-4.5246,-4.5008,-4.4606,-4.4455,-4.5298,-4.6708,-4.7798,-4.933,-5.0803,-5.0097,-5.0798,-5.1858,-5.1379,-5.1214,-5.1214,-5.1214,-5.1214,-5.1214,-5.1214,-5.1214,-5.1214,-5.1214,-5.1214,-5.1214,-5.1214,-5.1214,-5.1386,-5.223,-5.2649,-5.3149,-5.3999,-5.4986,-5.5794,-5.5794,-5.6963,-5.7881,-5.7881,-5.7881,-5.7881,-5.7881,-5.7881,-5.7881,-5.7881,-5.7881,-5.7881,-5.7881,-5.7881,-5.7881,-5.7881,-5.7881,-5.7881,-5.7881,-5.7881,-5.7881,-5.7881,-5.7881,-5.7881,-5.7881,-5.7881,-5.7881,-5.7898,-5.8457,-5.871,-1.1121,-1.1128,-1.0955,-1.0229,-1.0056,-1.0229,-1.1027,-1.2214,-1.3706,-1.5097,-1.6605,-1.7582,-1.7582,-1.7582,-1.7495,-1.7215,-1.7402,0.0,0.0,-1.8626,-2.0174,-2.1808,-2.5411,-2.7461,-2.667,-2.8398,-2.96,-2.9668,-3.3314,-3.6199,-3.7811,-4.1677,-4.4509,-4.6313,-4.6313,-4.6313,-4.6313,-4.6313,-4.6313,-4.6313,-4.6313,-4.6037,-4.551,-4.551,-4.5208,-4.4669,-4.4669,-4.4669,-4.4656,-4.4656,-4.4644,-4.4568,-4.4041,-4.384,-4.4068,-4.5448,-4.7759,-5.0083,-4.9421,-5.011,-5.1244,-5.1229,-5.1214,-5.1214,-5.1214,-5.1214,-5.1214,-5.1214,-5.1214,-5.1214,-5.1214,-5.1214,-5.1214,-5.1214,-5.1214,-5.1214,-5.1214,-5.2154,-5.29,-5.2989,-5.3913,-5.4672,-5.4672,-5.6487,-5.7881,-5.7881,-5.7881,-5.7881,-5.7881,-5.7881,-5.7881,-5.7881,-5.7881,-5.7881,-5.7881,-5.7881,-5.7881,-5.7881,-5.7881,-5.7881,-5.7881,-5.7881,-5.7881,-5.7881,-5.7881,-5.7881,-5.7881,-5.7881,-5.7881,-5.7881,-5.7915,-5.7932,0.0,0.0,-1.1847,-1.1596,0.0,-1.1376,-1.3523,-1.3625,-1.4019,-1.6387,-1.7252,-1.7582,-1.7582,-1.7582,-1.7549,-1.7455,-1.7515,-1.7549,0.0,-1.945,-2.0966,-2.0892,-2.3648,-2.5742,-2.6328,-2.5732,-2.5908,-2.7353,-3.0036,-3.218,-3.3515,-3.8948,-4.264,-4.4104,-4.5535,-4.6313,-4.6313,-4.5949,-4.5761,-4.5761,-4.5384,-4.5095,-4.492,-4.492,-4.4807,-4.4618,-4.4618,-4.4418,-4.4079,-4.4079,-4.3865,-4.3514,-4.3325,-4.3263,-4.3362,-4.3797,-4.5135,-4.6983,-4.861,-4.947,-4.9984,-5.0917,-5.1214,-5.1214,-5.1214,-5.1214,-5.1214,-5.1214,-5.1214,-5.1214,-5.1214,-5.1214,-5.1214,-5.1214,-5.1214,-5.1214,-5.1214,-5.1464,-5.1804,-5.1804,-5.2738,-5.3498,-5.3498,-5.4739,-5.5747,-5.5747,-5.6298,-5.6778,-5.6778,-5.7463,-5.7881,-5.7881,-5.7881,-5.7881,-5.7881,-5.7881,-5.7881,-5.7881,-5.7881,-5.7881,-5.7881,-5.7881,-5.7881,-5.7881,-5.7881,-5.7881,-5.7881,-5.7881,-5.7881,-5.7881,-5.7881,-5.7881,-1.2539,-1.2684,0.0,-1.2359,-1.2504,0.0,-1.5456,-1.5725,-1.632,-1.8672,-1.9145,-1.8991,-1.8464,-1.837,-1.8196,-1.7669,-1.7582,-1.7549,0.0,-1.9747,-2.1189,-2.0366,-2.3428,-2.5478,-2.5254,-2.4668,-2.4619,-2.54,-2.7476,-2.9303,-3.0916,-3.6858,-4.0961,-4.2263,-4.4711,-4.6012,-4.6012,-4.546,-4.5183,-4.5183,-4.4807,-4.4518,-4.433,-4.433,-4.4217,-4.4041,-4.4041,-4.3827,-4.3514,-4.3514,-4.33,-4.2974,-4.2974,-4.2974,-4.2974,-4.2974,-4.381,-4.5356,-4.7619,-4.8752,-4.9357,-5.0191,-5.0807,-5.1214,-5.1214,-5.1214,-5.1169,-5.093,-5.1035,-5.1169,-5.093,-5.105,-5.1214,-5.1214,-5.1214,-5.1214,-5.1214,-5.1214,-5.1214,-5.1214,-5.1804,-5.232,-5.232,-5.29,-5.3671,-5.4505,-5.515,-5.5634,-5.5634,-5.6298,-5.6887,-5.7281,-5.7297,-5.7463,-5.7881,-5.7881,-5.7881,-5.7881,-5.7881,-5.7881,-5.7881,-5.7881,-5.7763,-5.7509,-5.7763,-5.7763,-5.7509,-5.7763,-5.7881,-5.7881,-5.7881,-5.7881]},{"header":{"parameterUnit":"m.s-1","parameterCategory":1,"la1":30.6,"la2":29.2853,"lo1":-89.7004,"lo2":-87.6739,"dy":0.0162,"dx":0.0183,"nx":112,"ny":82,"refTime":"2023-04-10T12:00:00:Z","depth":0,"parameterNumber":3,"parameterNumberName":"V-component_of_WINDS"},"data":[0.0,0.0,0.0,0.0,0.0,0.0,0.0,0.0,0.0,0.0,0.0,0.0,0.0,0.0,0.0,0.0,0.0,0.0,0.0,0.0,0.0,0.0,0.0,0.0,0.0,0.0,0.0,0.0,0.0,0.0,0.0,0.0,0.0,0.0,0.0,0.0,0.0,0.0,0.0,0.0,0.0,0.0,0.0,0.0,0.0,0.0,0.0,0.0,0.0,0.0,0.0,0.0,0.0,0.0,0.0,0.0,0.0,0.0,0.0,0.0,0.0,0.0,0.0,0.0,0.0,0.0,0.0,0.0,0.0,0.0,0.0,0.0,0.0,0.0,0.0,0.0,0.0,0.0,0.0,0.0,0.0,0.0,0.0,0.0,0.0,0.0,0.0,0.0,0.0,0.0,1.8804,1.9983,1.9728,1.9366,1.9366,2.0338,2.0508,1.9494,0.0,0.0,0.0,0.0,0.0,0.0,0.0,0.0,0.0,0.0,0.0,0.0,0.0,0.0,0.0,0.0,0.0,0.0,0.0,0.0,0.0,0.0,0.0,0.0,0.0,0.0,0.0,0.0,0.0,0.0,0.0,0.0,0.0,0.0,0.0,0.0,0.0,0.0,0.0,0.0,0.0,0.0,0.0,0.0,0.0,0.0,0.0,0.0,0.0,0.0,0.0,0.0,0.0,0.0,0.0,0.0,0.0,0.0,0.0,0.0,0.0,0.0,0.0,0.0,0.0,0.0,0.0,0.0,0.0,0.0,0.0,0.0,0.0,0.0,0.0,0.0,0.0,0.0,0.0,0.0,0.0,0.0,0.0,0.0,0.0,0.0,0.0,0.0,0.0,0.0,0.0,0.0,0.0,0.0,0.0,0.0,0.0,0.0,0.0,0.0,0.0,0.0,0.0,0.0,1.8224,1.9441,1.9428,1.9366,1.9366,2.0651,2.0862,1.9509,0.0,0.0,0.0,0.0,0.0,0.0,0.0,0.0,0.0,0.0,0.0,0.0,0.0,0.0,0.0,0.0,0.0,0.0,0.0,0.0,0.0,0.0,0.0,0.0,0.0,0.0,0.0,0.0,0.0,0.0,0.0,0.0,0.0,0.0,0.0,0.0,0.0,0.0,0.0,0.0,0.0,0.0,0.0,0.0,0.0,0.0,0.0,0.0,0.0,0.0,0.0,0.0,0.0,0.0,0.0,0.0,0.0,0.0,0.0,0.0,0.0,0.0,0.0,0.0,0.0,0.0,0.0,0.0,0.0,0.0,0.0,0.0,0.0,0.0,0.0,0.0,0.0,0.0,0.0,0.0,0.0,0.0,0.0,0.0,0.0,0.0,0.0,0.0,0.0,0.0,0.0,0.0,0.0,0.0,0.0,0.0,0.0,0.0,0.0,0.0,0.0,0.0,0.0,1.7462,1.7478,1.799,1.8046,1.8046,1.8046,1.9557,1.9836,1.8485,2.0416,0.0,0.0,0.0,0.0,0.0,0.0,0.0,0.0,0.0,0.0,0.0,0.0,0.0,0.0,0.0,0.0,0.0,0.0,0.0,0.0,0.0,0.0,0.0,0.0,0.0,0.0,0.0,0.0,0.0,0.0,0.0,0.0,0.0,0.0,0.0,0.0,0.0,0.0,0.0,0.0,0.0,0.0,0.0,0.0,0.0,0.0,0.0,0.0,0.0,0.0,0.0,0.0,0.0,0.0,0.0,0.0,0.0,0.0,0.0,0.0,0.0,0.0,0.0,0.0,0.0,0.0,0.0,0.0,0.0,0.0,0.0,0.0,0.0,0.0,0.0,0.0,0.0,0.0,0.0,0.0,0.0,0.0,0.0,0.0,0.0,0.0,0.0,0.0,0.0,0.0,0.0,0.0,0.0,0.0,0.0,0.0,0.0,0.0,0.0,0.0,0.0,0.0,1.6712,1.6716,1.648,1.6374,1.6609,1.6968,1.8163,1.8505,1.7655,1.9218,0.0,0.0,0.0,0.0,0.0,0.0,0.0,0.0,0.0,0.0,0.0,0.0,0.0,0.0,0.0,0.0,0.0,0.0,0.0,0.0,0.0,0.0,0.0,0.0,0.0,0.0,0.0,0.0,0.0,0.0,0.0,0.0,0.0,0.0,0.0,0.0,0.0,0.0,0.0,0.0,0.0,0.0,0.0,0.0,0.0,0.0,0.0,0.0,0.0,0.0,0.0,0.0,0.0,0.0,0.0,0.0,0.0,0.0,0.0,0.0,0.0,0.0,0.0,0.0,0.0,0.0,0.0,0.0,0.0,0.0,0.0,0.0,0.0,0.0,0.0,0.0,0.0,0.0,0.0,0.0,0.0,0.0,0.0,0.0,0.0,0.0,0.0,0.0,0.0,0.0,0.0,0.0,0.0,0.0,0.0,0.0,0.0,0.0,0.0,0.0,0.0,0.0,1.516,1.5864,1.4914,1.4723,1.5429,1.685,1.7085,1.7332,1.755,1.9218,0.0,0.0,0.0,0.0,0.0,0.0,0.0,0.0,0.0,0.0,0.0,0.0,0.0,0.0,0.0,0.0,0.0,0.0,0.0,0.0,0.0,0.0,0.0,0.0,0.0,0.0,0.0,0.0,0.0,0.0,0.0,0.0,0.0,0.0,0.0,0.0,0.0,0.0,0.0,0.0,0.0,0.0,0.0,0.0,0.0,0.0,0.0,0.0,0.0,0.0,0.0,0.0,0.0,0.0,0.0,0.0,0.0,0.0,0.0,0.0,0.0,0.0,0.0,0.0,0.0,0.0,0.0,0.0,0.0,0.0,0.0,0.0,0.0,0.0,0.0,0.0,0.0,0.0,0.0,0.0,0.0,0.0,0.0,0.0,0.0,0.0,0.0,0.0,0.0,0.0,0.0,0.0,0.0,0.0,0.0,0.0,0.0,0.0,0.0,0.0,0.0,0.0,1.3771,1.3854,1.34,1.3419,1.3614,1.4091,1.6003,1.6819,1.6154,0.0,0.0,0.0,0.0,0.0,0.0,0.0,0.0,0.0,0.0,0.0,0.0,0.0,0.0,0.0,0.0,0.0,0.0,0.0,0.0,0.0,0.0,0.0,0.0,0.0,0.0,0.0,0.0,0.0,0.0,0.0,0.0,0.0,0.0,0.0,0.0,0.0,0.0,0.0,0.0,0.0,0.0,0.0,0.0,0.0,0.0,0.0,0.0,0.0,0.0,0.0,0.0,0.0,0.0,0.0,0.0,0.0,0.0,0.0,0.0,0.0,0.0,0.0,0.0,0.0,0.0,0.0,0.0,0.0,0.0,0.0,0.0,0.0,0.0,0.0,0.0,0.0,0.0,0.0,0.0,0.0,0.0,0.0,0.0,0.0,0.0,0.0,0.0,0.0,0.0,0.0,0.0,0.0,0.0,0.0,0.0,0.0,0.0,0.0,0.0,0.0,0.0,1.2422,1.2582,1.2519,1.2024,1.1897,1.2097,1.2469,1.4544,1.5413,1.4751,0.0,0.0,0.0,0.0,0.0,0.0,0.0,0.0,0.0,0.0,0.0,0.0,0.0,0.0,0.0,0.0,0.0,0.0,0.0,0.0,0.0,0.0,0.0,0.0,0.0,0.0,0.0,0.0,0.0,0.0,0.0,0.0,0.0,0.0,0.0,0.0,0.0,0.0,0.0,0.0,0.0,0.0,0.0,0.0,0.0,0.0,0.0,0.0,0.0,0.0,0.0,0.0,0.0,0.0,0.0,0.0,0.0,0.0,0.0,0.0,0.0,0.0,0.0,0.0,0.0,0.0,0.0,0.0,0.0,0.0,0.0,0.0,0.0,0.0,0.0,0.0,0.0,0.0,0.0,0.0,0.0,0.0,0.0,0.0,0.0,0.0,0.0,0.0,0.0,0.0,0.0,0.0,0.0,0.0,0.0,0.0,0.0,0.0,0.0,0.0,0.0,0.0,0.9829,1.146,1.2028,1.041,1.0287,1.0908,1.2519,1.2645,1.2935,0.0,0.0,0.0,0.0,0.0,0.0,0.0,0.0,0.0,0.0,0.0,0.0,0.0,0.0,0.0,0.0,0.0,0.0,0.0,0.0,0.0,0.0,0.0,0.0,0.0,0.0,0.0,0.0,0.0,0.0,0.0,0.0,0.0,0.0,0.0,0.0,0.0,0.0,0.0,0.0,0.0,0.0,0.0,0.0,0.0,0.0,0.0,0.0,0.0,0.0,0.0,0.0,0.0,0.0,0.0,0.0,0.0,0.0,0.0,0.0,0.0,0.0,0.0,0.0,0.0,0.0,0.0,0.0,0.0,0.0,0.0,0.0,0.0,0.0,0.0,0.0,0.0,0.0,0.0,0.0,0.0,0.0,0.0,0.0,0.0,0.0,0.0,0.0,0.0,0.0,0.0,0.0,0.0,0.0,0.0,0.0,0.0,0.0,0.0,0.0,0.0,0.0,0.0,0.9751,1.0619,1.1105,1.0588,1.0588,1.0805,1.107,1.2207,1.2589,1.2055,0.0,0.0,0.0,0.0,0.0,0.0,0.0,0.0,0.0,0.0,0.0,0.0,0.0,0.0,0.0,0.0,0.0,0.0,0.0,0.0,0.0,0.0,0.0,0.0,0.0,0.0,0.0,0.0,0.0,0.0,0.0,0.0,0.0,0.0,0.0,0.0,0.0,0.0,0.0,0.0,0.0,0.0,0.0,0.0,0.0,0.0,0.0,0.0,0.0,0.0,0.0,0.0,0.0,0.0,0.0,0.0,0.0,0.0,0.0,0.0,0.0,0.0,0.0,0.0,0.0,0.0,0.0,0.0,0.0,0.0,0.0,0.0,0.0,0.0,0.0,0.0,0.0,0.0,0.0,0.0,0.0,0.0,0.0,0.0,0.0,0.0,0.0,0.0,0.0,0.0,0.0,0.0,0.0,0.0,0.0,0.0,0.0,0.0,0.0,0.0,0.0,0.0,0.8958,0.9957,1.0721,1.0721,1.0721,1.0683,1.0592,1.1489,1.173,1.0966,0.0,0.0,0.0,0.0,0.0,0.0,0.0,0.0,0.0,0.0,0.0,0.0,0.0,0.0,0.0,0.0,0.0,0.0,0.0,0.0,0.0,0.0,0.0,0.0,0.0,0.0,0.0,0.0,0.0,0.0,0.0,0.0,0.0,0.0,0.0,0.0,0.0,0.0,0.0,0.0,0.0,0.0,0.0,0.0,0.0,0.0,0.0,0.0,0.0,0.0,0.0,0.0,0.0,0.0,0.0,0.0,0.0,0.0,0.0,0.0,0.0,0.0,0.0,0.0,0.0,0.0,0.0,0.0,0.0,0.0,0.0,0.0,0.0,0.0,0.0,0.0,0.0,0.0,0.0,0.0,0.0,0.0,0.0,0.0,0.0,0.0,0.0,0.0,0.0,0.0,0.0,0.0,0.0,0.0,0.0,0.0,0.0,0.0,0.0,0.0,0.0,0.0,0.7715,0.9432,1.0721,1.0721,1.0721,1.0721,1.0721,1.0721,1.0595,1.03,0.0,0.0,0.0,0.0,0.0,0.0,0.0,0.0,0.0,0.0,0.0,0.0,0.0,0.0,0.0,0.0,0.0,0.0,0.0,0.0,0.0,0.0,0.0,0.0,0.0,0.0,0.0,0.0,0.0,0.0,0.0,0.0,0.0,0.0,0.0,0.0,0.0,0.0,0.0,0.0,0.0,0.0,0.0,0.0,0.0,0.0,0.0,0.0,0.0,0.0,0.0,0.0,0.0,0.0,0.0,0.0,0.0,0.0,0.0,0.0,0.0485,0.0696,0.0,0.0,0.0,0.0,0.0,0.0,0.0,0.0,0.0,0.0,0.0,0.0,0.0,0.0,0.0,0.0,0.0,0.0,0.0,0.0,0.0,0.0,0.0,0.0,0.0,0.0,0.0,0.0,0.0,0.0,0.0,0.0,0.0,0.0,0.0,0.0,0.0,0.0,0.0,0.0,0.7603,0.9373,1.0721,1.0721,1.0721,1.0721,1.0721,1.0721,1.0595,1.03,1.0437,0.0,0.0,0.0,0.0,0.0,0.0,0.0,0.0,0.0,0.0,0.0,0.0,0.0,0.0,0.0,0.0,0.0,0.0,0.0,0.0,0.0,0.0,0.0,0.0,0.0,0.0,0.0,0.0,0.0,0.0,0.0,0.0,0.0,0.0,0.0,0.0,0.0,0.0,0.0,0.0,0.0,0.0,0.0,0.0,0.0,0.0,0.0,0.0,0.0,0.0,0.0,0.0,0.0,0.0,0.0,0.0,0.0,0.0,0.0,0.0,0.0,0.0,0.0,0.0,0.0,0.0,0.0,0.0,0.0,0.0,0.0,0.0,0.0,0.0,0.0,0.0,0.0,0.0,0.0,0.0,0.0,0.0,0.0,0.0,0.0,0.0,0.0,0.0,0.0,0.0,0.0,0.0,0.0,0.0,0.0,0.0,0.0,0.0,0.0,0.0,0.0,0.5286,0.7686,0.9374,0.9374,1.018,1.0721,1.0721,1.0721,1.0656,1.05,1.0358,0.0,0.0,0.0,0.0,0.0,0.0,0.0,0.0,0.0,0.0,0.0,0.0,0.0,0.0,0.0,0.0,0.0,0.0,0.0,0.0,0.0,0.0,0.0,0.0,0.0,0.0,0.0,0.0,0.0,0.0,0.0,0.0,0.0,0.0,0.0,0.0,0.0,0.0,0.0,0.0,0.0,0.0,0.0,0.0,0.0,0.0,0.0,0.0,0.0,0.0,0.0,0.0,0.0,0.0,0.0,0.0,0.0,0.0,0.0,0.0,0.0,0.0,0.0,0.0,0.0,0.0,0.0,0.0,0.0,0.0,0.0,0.0,0.0,0.0,0.0,0.0,0.0,0.0,0.0,0.0,0.0,0.0,0.0,0.0,0.0,0.369,0.3713,0.3733,0.3722,0.3743,0.0,0.0,0.0,0.0,0.0,0.0,0.0,0.0,0.0,0.0,0.0,0.2876,0.5503,0.7631,0.803,0.9374,1.0316,1.0721,1.0721,1.0721,1.0721,1.049,1.0334,0.0,0.0,0.0,0.0,0.0,0.0,0.0,0.0,0.0,0.0,0.0,0.0,0.0,0.0,0.0,0.0,0.0,0.0,0.0,0.0,0.0,0.0,0.0,0.0,0.0,0.0,0.0,0.0,0.0,0.0,0.0,0.0,1.4281,1.2267,0.0,0.0,0.0,0.0,0.0,0.0,0.0,0.0,0.0,0.0,0.0,0.0,0.0,0.0,0.0,0.0,0.0,0.0,0.0,0.0,0.0,0.0,0.0,0.0,0.0,0.0,0.0,0.0,0.0,0.0,0.0,0.0,0.0,0.0,0.0,0.0,0.0,0.0,0.0,0.0,0.0,0.0,0.0,0.0,0.0,0.0,0.0,0.0,0.0,0.0,0.0528,0.0531,0.0653,0.0646,0.0529,0.2617,0.4491,0.4495,0.3468,0.2452,0.0,0.0,0.0,0.0,0.0,0.0,0.2716,0.4456,0.6297,0.7897,0.8163,0.8969,1.0585,1.0721,1.0721,1.0721,1.0683,1.0548,1.029,1.0527,0.0,0.0,0.0,0.0,0.0,0.0,0.0,0.0,0.0,0.0,0.0,0.0,0.0,0.0,0.0,0.0,0.0,0.0,0.0,0.0,0.0,0.0,0.0,0.0,0.0,0.0,0.0,0.0,0.0,0.9636,1.003,0.7982,0.7898,0.6937,0.0,0.0,0.0,0.0,0.0,0.0,0.0,0.0,0.0,0.0,0.0,0.0,0.0,0.0,0.0,0.0,0.0,0.0,0.0,0.0,0.0,0.0,0.0,0.0,0.0,0.0,0.0,0.0,0.0,0.0,0.0,0.0,0.0,0.012,0.0718,0.0859,0.1014,0.152,0.0,0.0,0.0,0.0,0.0,0.0,0.0,0.0123,0.0756,0.052,0.0,0.0,0.0,0.0,0.0,0.1056,0.2029,0.2022,0.147,0.0946,0.0922,0.0467,0.0,0.0,0.0,0.1233,0.1225,0.2715,0.4158,0.4958,0.5895,0.7231,0.8972,0.9238,0.9643,1.0585,1.0721,1.0663,1.0534,1.0653,1.0517,0.0,0.0,0.0,0.0,0.0,0.0,0.0,0.0,0.0,0.0,0.0,0.0,0.0,0.0,0.0,0.0,0.0,0.0,0.0,0.0,0.0,0.0,0.0,0.0,0.0,0.0,0.0,0.0,0.6168,0.6665,0.5023,0.5607,0.5192,0.0,0.0,0.0,0.0,0.0,0.0,0.0,0.0,0.0,0.0,0.0,0.0,0.0,0.0,0.0,0.0,0.0,0.0,0.0,0.0,0.0,0.0,0.0,0.0,0.0,0.0,0.0,0.0,0.0,0.0,0.0,0.0,0.0,0.0,0.0,0.0,0.0,0.0,0.0,0.0,0.0,0.0,0.0,0.0,0.0,0.0,0.0,0.0,0.0,0.0,0.0,0.0,0.0,0.0,0.0,0.0,0.0,0.0,0.0,0.0,0.0,0.0,0.0,0.0,0.0,0.1179,0.2149,0.2685,0.3891,0.5362,0.7229,0.7764,0.8568,0.9911,1.0452,1.0721,1.0721,1.0721,1.0616,1.0395,0.0,0.0,0.0,0.0,0.0,0.0,0.0,0.0,0.0,0.0,0.0,0.0,0.0,0.0,0.0,0.0,0.0,0.0,0.0,0.0,0.0,0.0,0.0,0.0,0.0,0.0,0.0,0.0,0.0,0.5451,0.3976,0.0,0.0,0.0,0.0,0.0,0.0,0.0,0.0,0.0,0.0,0.0,0.0,0.0,0.0,0.0,0.0,0.0,0.0,0.0,0.0,0.0,0.0,0.0,0.0,0.0,0.0,0.0,0.0,0.0,0.0,0.0,0.0,0.0,0.0,0.0,0.0,0.0,0.0,0.0,0.0,0.0,0.0,0.0,0.0,0.0,0.0,0.0,0.0,0.0,0.0,0.0,0.0,0.0,0.0,0.0,0.0,0.0,0.0,0.0,0.0,0.0,0.0,0.0,0.0,0.0,0.0,0.0131,0.0807,0.2551,0.2819,0.3623,0.5364,0.7098,0.803,0.8163,0.9775,1.0721,1.0721,1.0721,1.0714,1.07,1.0422,0.0,0.0,0.0,0.0,0.0,0.0,0.0,0.0,0.0,0.0,0.0,0.0,0.0,0.0,0.0,0.0,0.0,0.0,0.0,0.0,0.0,0.0,0.0,0.0,0.0,0.0,0.0,0.0,0.3964,0.3119,0.0,0.1077,0.0409,0.0,0.0,0.0,0.0,0.0,0.0,0.0,0.0,0.0,0.0,0.0,0.0,0.0,0.0,0.0,0.0,0.0,0.0,0.0,0.0,0.0,0.0,0.0,0.0,0.0,0.0,0.0,0.0,0.0,0.0,0.0,0.0,0.0,0.0,0.0,0.0,0.0,0.0,0.0,0.0,0.0,0.0,0.0,0.0,0.0,0.0,0.0,0.0,0.0,0.0,0.0,0.0,0.0,0.0,0.0,0.0,0.0,0.0,0.0,0.0,0.0,0.0,0.0,0.0,0.0276,0.0955,0.0954,0.1628,0.3491,0.536,0.6831,0.7897,0.9643,1.0721,1.0721,1.0721,1.0721,1.0721,1.0616,1.0327,0.0,0.0,0.0,0.0,0.0,0.0,0.0,0.0,0.0,0.0,0.0,0.0,0.0,0.0,0.0,0.0,0.0,0.0,0.0,0.0,0.0,0.0,0.0,0.0,0.0,0.3496,0.3569,0.2152,0.1781,0.1383,0.0138,0.0,0.0,0.0,0.0,0.0,0.0,0.0,0.0,0.0,0.0,0.0,0.0,0.0,0.0,0.0,0.0,0.0,0.0,-0.0757,-0.0899,-0.0738,-0.1651,-0.1946,-0.177,-0.2102,-0.2097,-0.1917,-0.0591,0.0,0.0,0.0,0.0,0.0,0.0,0.0,0.0,0.0,0.0,0.0,0.0,0.0,-0.0146,-0.0729,-0.0438,-0.0146,-0.0875,-0.102,-0.102,-0.102,-0.102,-0.102,-0.102,-0.0433,0.0,0.0,0.0,0.0,0.0,0.0,0.0,0.0,0.0,0.0,0.0,0.0,0.0,0.0,0.0,0.0551,0.1637,0.3492,0.5212,0.7009,0.8786,1.0083,1.0717,1.0575,1.0521,1.0571,1.0422,1.0151,0.9758,0.0,0.0,0.0,0.0,0.0,0.0,0.0,0.0,0.0,0.0,0.0,0.0,0.0,0.0,0.0,0.0,0.0,0.0,0.0,0.0,0.0,0.0,0.0,0.2533,0.2652,0.2296,0.0275,0.0,0.0,0.0,0.0,0.0,0.0,0.0,0.0,0.0,0.0,0.0,0.0,0.0,0.0,0.0,0.0,0.0,0.0,0.0,0.0,-0.0152,-0.212,-0.2798,-0.2534,-0.5174,-0.6017,-0.5484,-0.6065,-0.6337,-0.5886,-0.1814,-0.0151,-0.0151,-0.0151,-0.0151,-0.0152,-0.0151,-0.0151,-0.0151,-0.0149,-0.0149,-0.0148,-0.0147,-0.0146,-0.0584,-0.2476,-0.1603,-0.0584,-0.2474,-0.2909,-0.2908,-0.2908,-0.2908,-0.2762,-0.2762,-0.1272,0.0,0.0,0.0,0.0,0.0,0.0,0.0,0.0,0.0,0.0,0.0,0.0,0.0,0.0,0.0,0.0,0.0,0.1618,0.3458,0.5197,0.6981,0.8731,1.0581,1.0176,1.0141,1.029,0.9852,0.9764,1.0053,0.0,0.0,0.0,0.0,0.0,0.0,0.0,0.0,0.0,0.0,0.0,0.0,0.0,0.0,0.0,0.0,0.0,0.0,0.0,0.0,0.0,0.3688,0.585,0.4832,0.451,0.3817,0.2279,0.0869,0.0,0.0,0.0,0.0,0.0,0.0,0.0,0.0,0.0,0.0,0.0,0.0,0.0,0.0,0.0,0.0,0.0,0.0,-0.0777,-0.2327,-0.2791,-0.3846,-0.5166,-0.6004,-0.6147,-0.6077,-0.616,-0.6349,-0.6183,-0.5013,-0.4526,-0.4526,-0.4526,-0.4526,-0.4504,-0.405,-0.4243,-0.4523,-0.4508,-0.4504,-0.45,-0.4634,-0.4629,-0.4629,-0.5224,-0.4893,-0.4417,-0.5004,-0.4096,-0.2908,-0.2908,-0.1893,-0.0729,-0.0729,-0.0434,0.0,0.0,0.0,0.0,0.0,0.0,0.0,0.0,0.0,0.0,0.0,0.0,0.0,0.0,0.0,0.0,0.0,0.1618,0.294,0.3469,0.626,0.8226,0.8696,0.9855,1.0555,1.0599,1.0158,0.9968,0.0,0.0,0.0,0.0,0.0,0.0,0.0,0.0,0.0,0.0,0.0,0.0,0.0,0.0,0.0,0.0,0.0,0.0,0.0,0.0,0.0,0.0,0.5004,0.6421,0.5874,0.474,0.3511,0.1886,0.0729,0.0,0.0,0.0,0.0,0.0,0.0,0.0,0.0,0.0,0.0,0.0,0.0,0.0,0.0,-0.0913,-0.1254,-0.1254,-0.2194,-0.3288,-0.4537,-0.5316,-0.6338,-0.7284,-0.8363,-0.8806,-0.8505,-0.8833,-0.8439,0.0,0.0,0.0,0.0,0.0,-0.6277,-0.6251,-0.5924,-0.5978,-0.6272,-0.6239,-0.6229,-0.6375,-0.6341,-0.6091,-0.6133,-0.6863,-0.6292,-0.5619,-0.6747,-0.6032,-0.517,-0.5429,-0.4556,-0.3517,-0.2639,-0.1876,-0.1001,-0.0145,0.0,0.0,0.0,0.0,0.0,0.0,0.0,0.0,0.0,0.0,0.0,0.0,0.0,0.0,0.0,0.0961,0.0,0.0,0.0,0.6069,0.666,0.8373,0.0,0.0,0.0,0.9927,1.0049,0.0,0.0,0.0,1.0022,0.989,0.0,0.0,0.0,0.0,0.0,0.0,0.0,0.0,0.0,0.0,0.0,0.0,0.0,0.0,0.0,0.0,0.6742,0.7148,0.5627,0.3778,0.1892,0.0146,0.0,0.0,0.0,0.0,0.0,0.0,0.0,0.0,0.0,0.0,0.0,0.0,0.0,-0.0303,-0.0286,-0.2431,-0.3445,-0.3449,-0.5484,-0.6427,-0.6749,-0.8627,-0.9345,-0.9131,-1.1549,-1.2257,-1.1813,-1.2338,-1.1451,-0.9568,-0.7511,-0.6724,-0.7032,-0.6993,-0.7003,-0.703,-0.6991,0.0,0.0,-0.6947,-0.6922,-0.706,-0.6984,-0.6601,-0.6504,-0.8344,-0.71,-0.5844,-0.8223,-0.8599,-0.8545,-0.9089,-0.8961,-0.815,-0.6372,-0.458,-0.2662,-0.0726,-0.0284,-0.028,0.0,0.0,0.0,0.0,0.0,0.0,0.0,0.0,0.0,0.0,0.0,0.0,0.0,0.0,0.0695,0.2286,0.2625,0.3338,0.4671,0.6429,0.7049,0.6588,0.8239,0.939,0.9767,0.9751,1.0072,1.0707,1.0171,1.007,0.0,0.0,0.0,0.0,0.0,0.0,0.0,0.0,0.0,0.0,0.0,0.0,0.0,0.0,0.0,0.3882,0.529,0.5599,0.3774,0.1747,0.0438,0.0,0.0,0.0,0.0,0.0,0.0,0.0,0.0,0.0,0.0,0.0,0.0,0.0,-0.1607,-0.2483,-0.2568,-0.4554,-0.5813,-0.5866,-0.6341,0.0,-0.9157,-0.9479,-1.0557,-1.2226,-1.2661,-1.2807,-1.2712,-1.2827,-1.2708,-1.2042,-0.9761,-0.9842,-1.1198,-1.0767,-1.088,-1.1189,-1.0758,-1.0889,-1.1244,-1.1374,-1.1364,-1.1358,-1.1334,-1.125,0.0,-1.1627,-1.132,-1.0881,-1.1437,-1.0325,-0.9076,-0.9164,-0.7968,-0.6758,-0.6307,-0.5963,-0.5033,-0.2956,-0.2497,-0.1899,-0.0292,0.0,0.0,0.0,0.0,0.0,0.0,0.0,0.0,0.0,0.0,0.0,0.0,0.0,0.014,0.0435,0.1854,0.3499,0.5222,0.5646,0.5756,0.5678,0.6036,0.6962,0.8339,0.8379,0.9165,1.0717,1.0599,1.0578,0.0,0.0,0.0,0.0,0.0,0.0,0.0,0.0,0.0,0.0,0.0,-1.2919,-0.7536,0.0,0.1305,0.2705,0.375,0.398,0.3045,0.1165,0.0,0.0,0.0,0.0,0.0,0.0,-0.0453,-0.1525,-0.0618,-0.0468,-0.1567,-0.1533,-0.1487,-0.1573,-0.3553,-0.4756,-0.4747,-0.6886,-0.8089,-0.8178,-0.9302,-1.0299,-1.1329,-1.1329,-1.198,-1.2963,-1.2963,-1.2963,-1.2959,-1.1817,-1.198,-1.2782,-1.0543,-1.0774,-1.2579,-1.2284,-1.2315,-1.2461,-1.2162,-1.2254,-1.2501,-1.2501,-1.2501,-1.2501,-1.2501,-1.2294,-1.206,-1.206,-1.1792,-1.1575,-1.1874,-1.1148,-1.0417,-1.0827,-1.0078,-0.8973,-0.806,-0.7867,-0.7217,-0.5086,-0.4633,-0.4021,-0.1915,-0.1618,-0.1175,-0.0146,0.0,0.0,0.0,0.0,0.0,0.0,0.0,0.0,0.0,0.0,0.0,0.0,0.0869,0.1721,0.2685,0.353,0.408,0.4052,0.4994,0.5803,0.6764,0.6677,0.7172,0.8115,0.8061,0.8975,0.0,0.0,0.0,0.0,0.0,0.0,0.0,-4.3202,-3.7623,-2.8811,-2.2405,-1.6204,-0.8876,-0.4915,-0.1819,0.0819,0.1518,0.1681,0.1301,-0.0146,-0.1166,-0.1166,-0.0438,-0.0147,-0.0594,-0.0601,-0.1369,-0.2922,-0.1869,-0.1724,-0.2974,-0.3443,-0.3673,-0.3782,-0.5793,-0.6911,-0.7099,-0.9163,-1.025,-1.0548,-1.2182,-1.3017,-1.3047,-1.3047,-1.3047,-1.3047,-1.3047,-1.3047,-1.2883,-1.1239,-1.1565,-1.2883,-1.1239,-1.1484,-1.2813,-1.2786,-1.2678,-1.2545,-1.2545,-1.2525,-1.2501,-1.2501,-1.2501,-1.2501,-1.2501,-1.2169,-1.1789,-1.1789,-1.144,-1.1179,-1.1667,-1.1789,-1.1911,-1.2389,-1.2413,-1.1864,-1.0315,-0.9926,-0.9247,-0.7262,-0.6956,-0.6178,-0.4023,-0.3717,-0.2813,-0.0439,0.0,0.0,0.0,0.0,0.0,0.0,0.0,0.0,0.0,0.0,0.0,0.0,0.0,0.0,0.0,0.1435,0.214,0.2117,0.3652,0.4485,0.4905,0.4842,0.5084,0.5351,0.5432,0.6868,-5.1005,-4.8941,-4.7815,-4.9147,-5.1111,-5.1315,0.0,-4.3263,-3.8429,-2.6003,-2.0702,-1.5773,-0.7139,-0.5488,-0.4604,-0.2713,-0.2294,-0.2877,-0.464,-0.5082,-0.5085,-0.5085,-0.2039,-0.0733,-0.2518,-0.27,-0.2886,-0.3076,-0.4664,-0.4849,-0.313,-0.4849,-0.5924,-0.5886,-0.7942,-0.9085,-0.9294,-1.1258,-1.2549,-1.2817,-1.2983,-1.322,-1.3353,-1.3353,-1.3353,-1.3353,-1.3353,-1.3353,-1.3353,-1.3181,-1.3181,-1.3349,-1.3015,-1.309,-1.3108,-1.2983,-1.2837,-1.2705,-1.2705,-1.2617,-1.2501,-1.2501,-1.2501,-1.2501,-1.2501,-1.2457,-1.2403,-1.2403,-1.2355,-1.2318,-1.2386,-1.2403,-1.242,-1.2484,-1.2488,-1.2478,-1.2162,-1.2149,-1.1478,-0.9511,-0.9033,-0.8389,-0.633,-0.5867,-0.463,-0.0585,0.0,0.0,0.0,0.0,0.0,0.0,0.0,0.0,0.0,0.0,0.0,0.0,0.0,0.0,0.0,0.0146,0.0291,0.0291,0.0431,0.1426,0.299,0.295,0.3765,0.5429,0.5421,0.5623,-5.2661,-5.2722,-5.3086,-5.3674,-5.5483,-5.6049,-5.1985,-4.8596,-4.376,-3.4957,-2.9051,-2.3573,-1.7255,-1.3976,-1.1177,-0.8431,-0.6923,-0.6185,-0.5788,-0.581,-0.581,-0.581,-0.4131,-0.324,-0.4105,-0.4563,-0.5093,-0.6038,-0.6269,-0.641,-0.6718,-0.7656,-0.8128,-0.8128,-1.0156,-1.1354,-1.1574,-1.238,-1.3013,-1.3305,-1.3305,-1.3339,-1.34,-1.34,-1.34,-1.34,-1.34,-1.34,-1.34,-1.34,-1.34,-1.34,-1.34,-1.3363,-1.3288,-1.3139,-1.299,-1.2864,-1.2864,-1.2766,-1.2634,-1.2634,-1.2573,-1.2501,-1.2501,-1.2501,-1.2501,-1.2501,-1.2501,-1.2501,-1.2501,-1.2501,-1.2501,-1.2501,-1.2501,-1.2501,-1.2501,-1.2501,-1.2172,-1.133,-1.1164,-1.0503,-0.8393,-0.8069,-0.7117,-0.4172,-0.2661,-0.1323,-0.0146,0.0,0.0,0.0,0.0,0.0,0.0,0.0,0.0,0.0,0.0,0.0,0.0,0.0,0.0,0.0,0.0,0.0434,0.1157,0.1142,0.1558,0.2264,0.2247,0.2226,-5.4086,-5.5099,-5.6076,-5.7258,-5.8572,-5.8982,-5.6671,-5.2823,-4.816,-4.241,-3.6704,-3.1122,-2.5975,-2.182,-1.7982,-1.4365,-1.2201,-1.0451,-0.9066,-0.896,-0.8926,-0.8548,-0.7912,-0.7291,-0.6834,-0.6653,-0.7227,-0.8442,-0.8216,-0.8439,-0.9374,-0.9998,-1.0311,-1.0311,-1.1718,-1.2651,-1.2959,-1.2963,-1.3108,-1.34,-1.34,-1.34,-1.34,-1.34,-1.34,-1.34,-1.34,-1.34,-1.34,-1.34,-1.34,-1.34,-1.34,-1.34,-1.3386,-1.3275,-1.3146,-1.302,-1.302,-1.2918,-1.2786,-1.2745,-1.2654,-1.2556,-1.2515,-1.2501,-1.2501,-1.2501,-1.2501,-1.2501,-1.2501,-1.2501,-1.2501,-1.2501,-1.2501,-1.2501,-1.2501,-1.2501,-1.2501,-1.2501,-1.2501,-1.1998,-1.05,-1.0329,-0.9521,-0.7435,-0.5864,-0.3869,-0.1175,-0.0292,0.0,0.0,0.0,0.0,0.0,0.0,0.0,0.0,0.0,0.0,0.0,0.0,0.0,0.0,0.0,0.0,0.0,0.0,0.0,0.0,0.0,0.0,-5.537,-5.423,-5.3243,-5.7418,-5.8113,-5.7641,-5.7073,-5.4028,-4.9849,-4.4462,-4.0499,-3.6005,-2.9471,-2.6415,-2.3651,-2.0275,-1.8149,-1.6942,-1.6821,-1.6821,-1.6585,-1.5677,-1.4397,-1.2972,-1.1483,-0.9533,-0.8579,-0.915,-1.1161,-1.1405,-0.9529,-1.125,-1.2347,-1.2347,-1.2501,-1.2651,-1.2959,-1.2963,-1.3108,-1.34,-1.34,-1.34,-1.34,-1.34,-1.34,-1.34,-1.34,-1.34,-1.34,-1.34,-1.34,-1.34,-1.34,-1.34,-1.34,-1.3397,-1.3298,-1.3166,-1.3166,-1.3074,-1.2929,-1.2779,-1.2725,-1.2695,-1.2549,-1.2501,-1.2501,-1.2501,-1.2501,-1.2501,-1.2501,-1.2501,-1.2501,-1.2501,-1.2501,-1.2501,-1.2501,-1.2501,-1.2501,-1.2501,-1.2501,-1.2498,-1.2494,-1.234,-1.1664,-0.9676,-0.9198,-0.7749,-0.3565,-0.1175,0.0,0.0,0.0,0.0,0.0,0.0,0.0,0.0,0.0,0.0,0.0,0.0,0.0,0.0,0.0,0.0,0.0,0.0,0.0,0.0,0.0,0.0,-5.3859,-5.5613,-5.7777,-5.9046,-6.0154,-6.0722,-5.984,-5.784,-5.4783,-4.996,-4.5844,-4.1461,-3.598,-3.1706,-2.7966,-2.4914,-2.1605,-1.9694,-2.06,-1.8019,-1.6743,-1.8417,-1.6481,-1.5115,-1.5322,-1.2387,-1.0311,-1.0132,-1.1518,-1.2189,-1.156,-1.2189,-1.2501,-1.2501,-1.2501,-1.2651,-1.2959,-1.2963,-1.3108,-1.34,-1.34,-1.34,-1.34,-1.34,-1.34,-1.34,-1.34,-1.34,-1.34,-1.34,-1.34,-1.34,-1.34,-1.34,-1.34,-1.34,-1.3366,-1.3322,-1.3322,-1.3227,-1.3091,-1.3041,-1.2891,-1.2722,-1.2667,-1.2583,-1.2501,-1.2501,-1.2501,-1.2501,-1.2501,-1.2501,-1.2501,-1.2501,-1.2501,-1.2501,-1.2501,-1.2501,-1.2501,-1.2501,-1.2501,-1.2501,-1.2501,-1.2501,-1.1824,-0.9682,-0.8228,-0.6783,-0.5189,-0.3248,-0.2057,-0.1894,-0.0729,0.0,0.0,0.0,0.0,0.0,0.0,0.0,0.0,0.0,0.0,0.0,0.0,0.0,0.0,0.0,0.0,0.0,0.0,0.0,-5.5663,-5.8196,-6.0671,-6.1497,-6.254,-6.3048,-6.1773,-6.0078,-5.7729,-5.4219,-5.042,-4.6311,-4.1436,-3.6867,-3.2809,-2.9882,-2.594,-2.3636,-2.4882,-2.2072,-2.044,-2.2111,-1.9714,-1.8039,-1.8449,-1.5315,-1.3211,-1.268,-1.3507,-1.4141,-1.42,-1.3457,-1.3239,-1.356,-1.2804,-1.2651,-1.2959,-1.2963,-1.3108,-1.34,-1.34,-1.34,-1.34,-1.34,-1.3258,-1.3017,-1.3285,-1.3251,-1.3027,-1.3292,-1.34,-1.34,-1.34,-1.34,-1.34,-1.34,-1.34,-1.34,-1.34,-1.3336,-1.3244,-1.319,-1.3044,-1.2868,-1.2762,-1.2661,-1.2573,-1.2518,-1.2501,-1.2501,-1.2501,-1.2501,-1.2501,-1.2501,-1.2501,-1.2501,-1.2501,-1.2501,-1.2501,-1.2501,-1.2501,-1.2501,-1.2501,-1.2501,-1.2001,-1.0668,-0.9356,-0.7889,-0.6267,-0.4306,-0.3103,-0.2931,-0.1169,0.0,0.0,0.0,0.0,0.0,0.0,0.0,0.0,0.0,0.0,0.0,0.0,0.0,0.0,0.0,0.0,0.0,0.0,0.0,-6.0268,-6.1574,-6.1886,-6.4499,-6.5025,-6.4476,-6.2921,-6.0953,-5.8914,-5.6939,-5.392,-5.0199,-4.5361,-4.1421,-3.7819,-3.4706,-3.0886,-2.8733,-2.994,-2.8621,-2.7416,-2.7134,-2.4245,-2.1992,-2.1129,-1.8794,-1.7219,-1.7011,-1.6862,-1.6969,-1.732,-1.547,-1.4851,-1.5675,-1.3872,-1.2953,-1.3262,-1.328,-1.3277,-1.34,-1.34,-1.34,-1.34,-1.34,-1.3013,-1.2386,-1.3095,-1.3,-1.2403,-1.3108,-1.34,-1.34,-1.34,-1.34,-1.34,-1.34,-1.34,-1.34,-1.34,-1.34,-1.3376,-1.323,-1.3343,-1.3277,-1.2986,-1.2889,-1.2852,-1.2697,-1.2656,-1.2501,-1.2501,-1.2501,-1.2501,-1.2501,-1.2501,-1.2501,-1.2501,-1.2501,-1.2501,-1.2501,-1.2501,-1.2501,-1.2501,-1.2501,-1.2501,-1.2501,-1.2501,-1.0998,-0.7111,-0.4782,-0.3413,-0.3409,-0.1616,-0.0292,-0.0146,-0.0146,-0.0146,0.0,0.0,0.0,0.0,0.0,0.0,0.0,0.0,0.0,0.0,0.0,0.0,0.0,0.0,0.0,-5.8731,-6.1729,-6.5003,-6.587,-6.6037,-6.5788,-6.4968,-6.3986,-6.2011,-5.7819,-5.4437,-5.0604,-4.5536,-4.0795,-3.7571,-3.7515,-3.3793,-3.1758,-3.4476,-3.1117,-2.8859,-3.0139,-2.7744,-2.6001,-2.6247,-2.5651,-2.4496,-2.2676,-1.9577,-1.7864,-1.792,-1.7634,-1.7645,-1.7805,-1.736,-1.7181,-1.729,-1.601,-1.466,-1.34,-1.34,-1.34,-1.34,-1.34,-1.3298,-1.3129,-1.3319,-1.3292,-1.3132,-1.3322,-1.34,-1.34,-1.34,-1.34,-1.34,-1.34,-1.34,-1.34,-1.34,-1.34,-1.3393,-1.3356,-1.4401,-1.5538,-1.5309,-1.5148,-1.5167,-1.483,-1.3718,-1.2501,-1.2501,-1.2501,-1.2501,-1.2501,-1.2501,-1.2501,-1.2501,-1.2501,-1.2501,-1.2501,-1.2501,-1.2501,-1.2501,-1.2501,-1.2501,-1.2501,-1.2501,-1.2122,-1.0872,-0.8988,-0.7699,-0.741,-0.5606,-0.3817,-0.233,-0.2183,-0.1602,-0.0146,0.0,0.0,0.0,0.0,0.0,0.0,0.0,0.0,0.0,0.0,0.0,0.0,0.0,0.0,-6.1249,-6.3719,-6.626,-6.6368,-6.6449,-6.6142,-6.4819,-6.3723,-6.1805,-5.7598,-5.4366,-5.1014,-4.6695,-4.2859,-4.0306,-4.0123,-3.7085,-3.5347,-3.6969,-3.4225,-3.2418,-3.3633,-3.1076,-2.9457,-3.0361,-2.9057,-2.7605,-2.6289,-2.303,-2.0822,-2.0255,-1.963,-1.9461,-1.9924,-1.9025,-1.8729,-1.8892,-1.8125,-1.7109,-1.6172,-1.6172,-1.6172,-1.6172,-1.6172,-1.6116,-1.5752,-1.5027,-1.466,-1.4191,-1.3589,-1.34,-1.34,-1.34,-1.34,-1.3566,-1.4541,-1.4867,-1.4863,-1.5847,-1.6172,-1.6012,-1.4056,-1.4156,-1.5008,-1.4761,-1.4619,-1.4802,-1.5312,-1.4022,-1.2652,-1.3568,-1.3109,-1.2501,-1.2501,-1.2501,-1.2501,-1.2501,-1.2501,-1.2501,-1.2501,-1.2501,-1.2501,-1.2501,-1.2501,-1.2501,-1.2501,-1.2501,-1.2474,-1.2393,-1.0624,-0.9309,-0.9182,-0.7292,-0.5457,-0.4396,-0.4227,-0.3779,-0.2619,-0.1748,-0.1311,-0.1311,-0.0438,0.0,0.0,0.0,0.0,0.0,0.0,0.0,0.0,0.0,0.0,-6.4878,-6.5859,-6.6376,-6.6388,-6.6499,-6.6068,-6.4023,-6.2374,-6.0355,-5.714,-5.4381,-5.16,-4.8446,-4.6236,-4.4266,-4.2519,-4.0562,-3.9032,-3.8415,-3.7234,-3.6533,-3.6634,-3.4007,-3.2611,-3.3739,-3.0856,-2.8963,-2.8926,-2.699,-2.53,-2.3762,-2.2128,-2.148,-2.2031,-2.0236,-1.9385,-1.9501,-1.9722,-1.9789,-1.9861,-1.9892,-1.9907,-1.9907,-1.9907,-1.9534,-1.8813,-1.7572,-1.6668,-1.5968,-1.4731,-1.4217,-1.4217,-1.4217,-1.4217,-1.4544,-1.6328,-1.697,-1.7297,-1.9253,-1.9907,-1.9258,-1.5522,-1.4379,-1.4642,-1.4322,-1.4221,-1.4623,-1.5949,-1.4931,-1.3718,-1.5387,-1.4479,-1.2958,-1.2958,-1.2652,-1.2501,-1.2501,-1.2501,-1.2501,-1.2501,-1.2501,-1.2501,-1.2501,-1.2501,-1.2501,-1.2501,-1.2501,-1.2501,-1.2501,-1.0989,-0.9835,-0.9821,-0.7977,-0.6677,-0.636,-0.6297,-0.611,-0.581,-0.4213,-0.3198,-0.2908,-0.1311,-0.0292,0.0,0.0,0.0,0.0,0.0,0.0,0.0,0.0,0.0,-6.3205,-6.4416,-6.6202,-6.6349,-6.6499,-6.6457,-6.5961,-6.4209,-6.1837,-5.8585,-5.5723,-5.2868,-4.9893,-4.8279,-4.6861,-4.544,-4.4558,-4.2972,-3.9978,-3.9706,-3.9249,-3.739,-3.6342,-3.6162,-3.7243,-3.4852,-3.2887,-3.24,-3.097,-2.9611,-2.8205,-2.6885,-2.559,-2.4173,-2.3722,-2.2818,-2.1437,-2.1688,-2.0987,-1.9619,-1.9816,-1.9907,-1.9907,-1.9907,-1.9801,-1.9629,-1.9498,-1.9312,-1.9154,-1.8856,-1.877,-1.877,-1.877,-1.877,-1.877,-1.9258,-1.9258,-1.942,-1.9745,-1.9907,-1.9745,-1.9095,-1.9902,-2.1269,-2.0797,-2.0807,-2.0858,-2.0676,-1.902,-1.7663,-1.7962,-1.6604,-1.4931,-1.4931,-1.3718,-1.2501,-1.2501,-1.2501,-1.2501,-1.2501,-1.2501,-1.2501,-1.2501,-1.2501,-1.2501,-1.2501,-1.2501,-1.2501,-1.2501,-1.2165,-1.1949,-1.1838,-1.1473,-1.0439,-0.8592,-0.8413,-0.7632,-0.5958,-0.5518,-0.4649,-0.2908,-0.2618,-0.1602,0.0,0.0,0.0,0.0,0.0,0.0,0.0,0.0,0.0,-6.2781,-6.4051,-6.6145,-6.634,-6.6498,-6.5971,-6.3604,-6.1746,-5.9565,-5.6035,-5.3321,-5.1255,-5.0239,-4.8795,-4.777,-4.7858,-4.6751,-4.537,-4.3836,-4.3323,-4.2565,-4.0648,-3.9491,-3.8771,-3.8551,-3.6678,-3.4964,-3.3811,-3.3286,-3.1977,-2.9323,-2.9087,-2.8477,-2.762,-2.6634,-2.5757,-2.4983,-2.4246,-2.3606,-2.2916,-2.3176,-2.3306,-2.3306,-2.3306,-2.3306,-2.3146,-2.2011,-2.1239,-2.0651,-2.0196,-1.9469,-1.9098,-1.9725,-1.9907,-2.0069,-2.12,-2.1523,-2.1684,-2.282,-2.3306,-2.3306,-2.3306,-2.2493,-2.1275,-2.0792,-2.0801,-2.0858,-2.1441,-2.0085,-1.8874,-1.9935,-1.8567,-1.7056,-1.7056,-1.554,-1.3718,-1.2652,-1.2501,-1.2501,-1.2501,-1.2501,-1.2501,-1.2501,-1.2501,-1.2501,-1.2501,-1.2501,-1.2501,-1.2501,-1.2501,-1.2474,-1.241,-1.2335,-1.1924,-1.0721,-1.058,-1.0029,-0.8941,-0.7865,-0.6819,-0.5949,-0.4937,-0.3924,-0.3056,-0.3055,-0.3055,-0.3055,-0.2038,-0.1456,-0.1456,-0.0438,0.0,-6.357,-6.457,-6.6109,-6.6346,-6.647,-6.5507,-6.1475,-5.9533,-5.7547,-5.3874,-5.1569,-5.038,-5.0993,-4.9991,-4.9411,-5.0253,-4.8789,-4.741,-4.7164,-4.6281,-4.5247,-4.3983,-4.2775,-4.1461,-4.0282,-3.8636,-3.703,-3.5671,-3.5742,-3.4157,-3.0114,-3.0522,-3.0734,-3.031,-2.8908,-2.8053,-2.7879,-2.6594,-2.6017,-2.5865,-2.6159,-2.6326,-2.6386,-2.6386,-2.6386,-2.6228,-2.4595,-2.3182,-2.1972,-2.1445,-2.064,-1.9563,-2.0829,-2.1362,-2.1528,-2.314,-2.3792,-2.4111,-2.574,-2.6386,-2.6386,-2.6386,-2.4117,-2.1275,-2.0635,-2.049,-2.0858,-2.1893,-2.1141,-2.0236,-2.19,-2.0692,-1.9176,-1.8723,-1.736,-1.5688,-1.4176,-1.3414,-1.3109,-1.3109,-1.2807,-1.2501,-1.2501,-1.2501,-1.2501,-1.2501,-1.2501,-1.2501,-1.2501,-1.2501,-1.2501,-1.2501,-1.2403,-1.2325,-1.2291,-1.2037,-1.1867,-1.1833,-1.0227,-0.9139,-0.8703,-0.7255,-0.6244,-0.581,-0.581,-0.581,-0.581,-0.4213,-0.3489,-0.3489,-0.1893,-0.1311,-6.607,-6.6282,-6.5994,-6.6327,-6.6398,-6.5703,-6.2974,-6.1046,-5.8892,-5.5562,-5.4074,-5.3395,-5.3382,-5.39,-5.3964,-5.2949,-5.1464,-4.9725,-4.7524,-4.681,-4.6218,-4.5442,-4.5186,-4.4908,-4.4437,-4.21,-4.0392,-4.0009,-3.9567,-3.717,-3.2476,-3.265,-3.2167,-3.031,-3.0168,-2.9202,-2.7543,-2.7578,-2.7022,-2.5558,-2.5859,-2.6132,-2.6386,-2.6386,-2.6386,-2.6386,-2.6221,-2.5403,-2.442,-2.5426,-2.5062,-2.4142,-2.529,-2.574,-2.5898,-2.6063,-2.6063,-2.6063,-2.6386,-2.6386,-2.6386,-2.6386,-2.607,-2.5629,-2.5062,-2.4886,-2.4768,-2.4492,-2.4179,-2.4031,-2.4334,-2.2812,-2.0841,-1.9025,-1.8421,-1.827,-1.8118,-1.6599,-1.5234,-1.5234,-1.3718,-1.2501,-1.2501,-1.2501,-1.2501,-1.2501,-1.2501,-1.2501,-1.2501,-1.2501,-1.2501,-1.2501,-1.2488,-1.243,-1.2301,-1.2138,-1.1979,-1.184,-1.1549,-1.0596,-0.8701,-0.8557,-0.7544,-0.581,-0.581,-0.581,-0.581,-0.5663,-0.5518,-0.5518,-0.5375,-0.523,-6.2666,-6.4916,-6.7359,-6.7154,-6.7116,-6.5942,-6.1461,-5.9826,-5.8123,-5.4117,-5.2777,-5.237,-5.2629,-5.2391,-5.22,-5.2341,-5.1073,-5.0259,-5.1155,-5.058,-4.9733,-4.8814,-4.869,-4.7849,-4.5526,-4.3621,-4.1625,-3.9706,-3.9075,-3.7644,-3.5339,-3.6043,-3.5617,-3.3725,-3.2586,-3.1746,-3.0901,-3.0114,-2.8872,-2.7301,-2.7616,-2.7163,-2.6386,-2.6386,-2.6386,-2.6386,-2.6386,-2.5317,-2.3714,-2.5611,-2.5277,-2.3754,-2.5651,-2.6386,-2.6386,-2.6386,-2.6386,-2.6386,-2.6386,-2.6386,-2.6386,-2.6386,-2.6273,-2.6052,-2.5638,-2.5391,-2.5164,-2.475,-2.4636,-2.4636,-2.4636,-2.4025,-2.2961,-2.0841,-2.0386,-2.0085,-1.8874,-1.7967,-1.736,-1.736,-1.5693,-1.4326,-1.4326,-1.3263,-1.2501,-1.2501,-1.2501,-1.2501,-1.2501,-1.2501,-1.2501,-1.2501,-1.2501,-1.2478,-1.2423,-1.2284,-1.2135,-1.1979,-1.183,-1.1266,-1.0455,-1.0449,-1.0014,-0.9291,-0.9291,-0.9291,-0.9291,-0.8126,-0.7544,-0.7544,-0.6387,-0.581,-6.13,-6.4666,-6.8398,-6.8058,-6.7441,-6.5667,-6.0848,-5.9072,-5.7334,-5.332,-5.2384,-5.2278,-5.2172,-5.1634,-5.1348,-5.1982,-5.1228,-5.107,-5.2691,-5.2703,-5.2109,-5.1004,-5.0819,-4.9831,-4.7352,-4.5091,-4.2954,-4.0893,-4.0299,-3.9556,-3.8663,-3.9485,-3.8861,-3.6152,-3.4737,-3.3734,-3.317,-3.2147,-3.0743,-2.9064,-2.9402,-2.848,-2.6648,-2.7098,-2.6813,-2.5892,-2.6239,-2.5244,-2.3541,-2.5558,-2.5204,-2.3587,-2.5605,-2.6386,-2.6386,-2.6386,-2.6386,-2.6386,-2.6386,-2.6386,-2.6373,-2.6286,-2.6066,-2.5765,-2.5478,-2.5244,-2.5017,-2.4723,-2.4636,-2.4636,-2.4636,-2.4636,-2.4186,-2.2812,-2.2509,-2.2055,-2.0692,-1.993,-1.9478,-1.9478,-1.7815,-1.6142,-1.554,-1.4326,-1.3263,-1.2656,-1.2501,-1.2501,-1.2501,-1.2501,-1.2501,-1.2501,-1.2501,-1.2501,-1.2501,-1.2372,-1.2244,-1.2135,-1.1942,-1.1786,-1.1687,-1.1643,-1.1619,-1.1619,-1.1619,-1.1619,-1.1619,-1.0158,-0.9574,-0.9574,-0.8129,-0.7548,-6.3878,-6.6596,-6.8732,-6.8867,-6.709,-6.4655,-6.2065,-5.9512,-5.6883,-5.3969,-5.4072,-5.4237,-5.2851,-5.2892,-5.3028,-5.2559,-5.2917,-5.2641,-5.079,-5.1965,-5.2561,-5.1325,-5.0871,-5.0743,-5.0705,-4.7249,-4.5035,-4.5074,-4.4735,-4.3752,-4.2161,-4.3025,-4.1287,-3.6152,-3.6016,-3.5021,-3.317,-3.317,-3.2368,-3.0726,-3.1226,-2.9816,-2.7049,-2.8694,-2.769,-2.4723,-2.5885,-2.5712,-2.471,-2.5899,-2.5685,-2.4736,-2.5925,-2.6386,-2.6386,-2.6386,-2.6386,-2.6386,-2.6386,-2.6386,-2.6339,-2.6052,-2.5758,-2.5464,-2.5177,-2.5084,-2.5017,-2.4723,-2.4636,-2.4636,-2.4636,-2.4636,-2.4636,-2.4636,-2.4636,-2.4488,-2.4488,-2.2961,-2.1596,-2.1596,-1.993,-1.7967,-1.5841,-1.554,-1.4782,-1.2807,-1.2501,-1.2501,-1.2501,-1.2501,-1.2501,-1.2501,-1.2501,-1.2501,-1.2501,-1.2372,-1.2291,-1.2288,-1.1999,-1.183,-1.183,-1.1694,-1.1619,-1.1619,-1.1619,-1.1619,-1.1619,-1.1619,-1.1619,-1.1619,-1.1619,-1.1476,-5.83,-6.093,-6.3349,-6.2916,-6.2323,-6.101,-5.7957,-5.6562,-5.5299,-5.311,-5.2792,-5.2869,-5.2646,-5.2466,-5.2597,-5.3292,-5.3332,-5.3662,-5.4657,-5.5306,-5.5417,-5.4677,-5.3191,-5.159,-4.9904,-4.7924,-4.6793,-4.7124,-4.5711,-4.4633,-4.4166,-4.3904,-4.1924,-3.7955,-3.7832,-3.6894,-3.5158,-3.5158,-3.4362,-3.2736,-3.2858,-3.1446,-2.8569,-2.8904,-2.7927,-2.6128,-2.6323,-2.5718,-2.473,-2.5905,-2.5698,-2.475,-2.5932,-2.6386,-2.6386,-2.6386,-2.6386,-2.6386,-2.6386,-2.6386,-2.6339,-2.6052,-2.5758,-2.5458,-2.5164,-2.4937,-2.4756,-2.4663,-2.4636,-2.4636,-2.4636,-2.4636,-2.4636,-2.4636,-2.4636,-2.4636,-2.4636,-2.4031,-2.3722,-2.3722,-2.2055,-2.0386,-1.9779,-1.8567,-1.6904,-1.4931,-1.4475,-1.4022,-1.2652,-1.2501,-1.2501,-1.2501,-1.2501,-1.2501,-1.2501,-1.2461,-1.2393,-1.2294,-1.2101,-1.1942,-1.1833,-1.1694,-1.1619,-1.1619,-1.1619,-1.1619,-1.1619,-1.1619,-1.1619,-1.1619,-1.1619,-1.1619,-5.5184,-5.8354,-6.1004,-6.0589,-5.9914,-5.8789,-5.6744,-5.5449,-5.4333,-5.3117,-5.3785,-5.4131,-5.2671,-5.3103,-5.3437,-5.2731,-5.3869,-5.4894,-5.5018,-5.6164,-5.6387,-5.4717,-5.3213,-5.192,-5.1021,-4.9464,-4.8735,-4.9193,-4.7271,-4.6016,-4.6091,-4.5238,-4.3345,-4.0655,-3.9245,-3.8088,-3.7059,-3.6278,-3.5438,-3.4538,-3.4696,-3.326,-3.047,-3.0933,-3.0024,-2.8403,-2.8576,-2.7781,0.0,-2.7142,-2.6715,-2.5371,-2.6106,-2.6386,-2.6386,-2.6386,-2.6386,-2.6386,-2.6386,-2.6319,-2.6179,-2.5885,-2.5518,-2.515,-2.497,-2.4783,-2.4636,-2.4636,-2.4636,-2.4636,-2.4636,-2.4636,-2.4636,-2.4636,-2.4636,-2.4636,-2.4636,-2.4636,-2.4636,-2.4636,-2.3574,-2.2509,-2.1751,-2.0542,-1.9025,-1.7056,-1.5994,-1.5085,-1.3718,-1.2958,-1.2501,-1.2501,-1.2501,-1.2501,-1.2501,-1.2501,-1.2464,-1.2376,-1.223,-1.2077,-1.1925,-1.1775,-1.1674,-1.1619,-1.1619,-1.1619,-1.1619,-1.1619,-1.1619,-1.1619,-1.1619,-1.1619,0.0,-5.7822,-6.0473,-6.0487,-5.8942,-5.7441,-5.7441,-5.5566,0.0,-5.4043,-5.6479,-5.7363,-5.3294,-5.4915,-5.5568,-5.1649,-5.4722,-5.6399,-5.2907,-5.5125,-5.5794,-5.2203,-5.1771,-5.2277,-5.3625,-5.1831,-5.0759,-5.1266,-4.9295,-4.8013,-4.8053,-4.7028,-4.5768,-4.4091,-4.0773,-3.8861,-3.8729,-3.7059,-3.6083,-3.5965,-3.6504,-3.517,-3.2519,-3.4079,-3.3344,-3.0918,-3.2002,-3.1429,-2.9596,-2.9596,-2.853,-2.6853,-2.6696,-2.6538,-2.6544,-2.6386,-2.6386,-2.6386,-2.6366,-2.6186,-2.5905,-2.5731,-2.5391,-2.5065,-2.5065,-2.4777,-2.4636,-2.4636,-2.4636,-2.4636,-2.4636,-2.4636,-2.4636,-2.4636,-2.4636,-2.4636,-2.4636,-2.4636,-2.4636,-2.4636,-2.4636,-2.4025,-2.2205,-2.1751,-2.1147,-1.9176,-1.7208,-1.5841,-1.5688,-1.4022,-1.2958,-1.2958,-1.2807,-1.2652,-1.2652,-1.2656,-1.2501,-1.2501,-1.2369,-1.2227,-1.2084,-1.1918,-1.1769,-1.1636,-1.1623,-1.1619,-1.1619,-1.1619,-1.1619,-1.1619,-1.1619,-1.1619,-5.0683,0.0,-5.2492,-5.2511,-5.2718,-5.293,0.0,-5.2441,-5.293,-5.6113,-5.7282,-5.7557,-5.7093,-5.9326,-5.9636,-5.4771,-5.7014,-5.8429,-5.5629,-5.6648,-5.6162,-5.228,-5.4771,-5.5569,-5.2539,-5.3224,-5.3774,-5.3466,-5.194,-5.1251,-5.1731,-4.9341,-4.7847,-4.7326,-4.4154,-4.1936,-4.0666,-3.8861,-3.7384,-3.6008,-3.6127,-3.4663,-3.175,-3.3578,-3.3536,-3.1973,-3.2339,-3.2201,-3.1735,-3.1735,-3.1429,-3.0977,-2.9293,-2.8679,-2.853,-2.7004,-2.6386,-2.636,-2.6139,-2.6012,-2.6175,-2.6965,-2.8104,-2.8892,-2.8892,-2.691,-2.4636,-2.4636,-2.4636,-2.4636,-2.4636,-2.4636,-2.4636,-2.4636,-2.4636,-2.4636,-2.4636,-2.4636,-2.4636,-2.4636,-2.4636,-2.4482,-2.4025,-2.3877,-2.3264,-2.1147,-2.0536,-1.9629,-1.8118,-1.7512,-1.7208,-1.7208,-1.5688,-1.4782,-1.4782,-1.3414,-1.2501,-1.2501,-1.2369,-1.2274,-1.2237,-1.1976,-1.1816,-1.1782,-1.1674,-1.1619,-1.1619,-1.1619,-1.1619,-1.1619,-1.1619,-1.1619,-4.8893,-4.9951,-5.1355,-5.3015,-5.3006,-5.291,-5.4101,-5.3144,-5.2958,-5.6367,-5.6912,-5.6897,-5.723,-5.8506,-5.8544,-5.567,-5.6745,-5.7872,-5.7686,-5.7228,-5.6088,-5.3907,-5.4699,-5.5012,-5.3831,-5.4815,-5.544,-5.549,-5.3597,-5.2603,-5.2948,-5.0085,-4.8532,-4.8532,-4.6175,-4.4115,-4.2328,-4.0666,-3.8551,-3.596,-3.6828,-3.5601,-3.2783,-3.4552,-3.5229,-3.4827,-3.4178,-3.381,-3.3799,-3.3111,-3.2647,-3.2345,-3.1276,-3.0823,-3.0646,-2.9431,-2.8924,-2.8872,-2.8546,-2.8332,-2.8275,-2.8781,-2.9625,-3.031,-3.031,-2.8892,-2.7055,-2.621,-2.5352,-2.4636,-2.4636,-2.4636,-2.4636,-2.4636,-2.4636,-2.4636,-2.4636,-2.4636,-2.4636,-2.4636,-2.4636,-2.4636,-2.4636,-2.4636,-2.4179,-2.3116,-2.2205,-2.1141,-2.0085,-1.9176,-1.8572,-1.8572,-1.7663,-1.6904,-1.6904,-1.5998,-1.4479,-1.2656,-1.243,-1.2359,-1.2294,-1.2128,-1.1976,-1.1833,-1.1691,-1.1619,-1.1619,-1.1619,-1.1619,-1.1619,-1.1619,-1.1619,-4.8333,-5.0412,-5.3166,-5.6638,-5.5745,-5.4726,-5.7461,-5.5386,-5.3705,-5.6654,-5.7159,-5.6975,-5.675,-5.7434,-5.7454,-5.5694,-5.5845,-5.6925,-5.9099,-5.7853,-5.654,-5.613,-5.4531,-5.4171,-5.6109,-5.6392,-5.6544,-5.6945,-5.4696,-5.3294,-5.3294,-5.0754,-4.9093,-4.8864,-4.7429,-4.5876,-4.4103,-4.2454,-3.9807,-3.6438,-3.7834,-3.6951,-3.4033,-3.584,-3.706,-3.7656,-3.6348,0.0,-3.5769,-3.4339,-3.373,-3.3406,-3.3045,-3.2869,-3.2827,-3.2002,-3.172,-3.1663,-3.1293,-3.1214,-3.1161,-3.0843,-3.0876,-3.1158,-3.1158,-3.1025,-3.0318,-2.8493,-2.6779,-2.5345,-2.5065,-2.5065,-2.4924,-2.4636,-2.4636,-2.4636,-2.4636,-2.4636,-2.4636,-2.4636,-2.4636,-2.4636,-2.4636,-2.4636,-2.4636,-2.4636,-2.3116,-2.2055,-2.2055,-2.0536,-1.9478,-1.9478,-1.9176,-1.9025,-1.9025,-1.8723,-1.7056,-1.3722,-1.3109,-1.2741,-1.2294,-1.2291,-1.2145,-1.1837,-1.1711,-1.164,-1.1619,-1.1619,-1.1619,-1.1619,-1.1619,-1.1619,-4.9446,-5.1086,-5.3128,-5.5921,-5.5286,-5.4883,-5.8242,-5.6222,-5.5171,-6.0597,-6.153,-6.1139,-6.0429,-6.4831,-6.5594,-5.6473,-5.7319,-5.9183,-5.9375,-6.0089,-5.9598,-5.7103,-5.917,-5.975,-5.7291,-5.784,-5.7958,-5.7071,-5.569,-5.486,-5.486,-5.3189,-5.1727,-5.038,-4.8965,-4.7403,-4.5926,-4.4239,-4.1549,-3.8235,-3.8466,-3.6777,-3.3594,-3.5703,-3.6738,-3.6885,0.0,-3.7572,-3.7576,-3.7682,-3.773,-3.7473,-3.5301,-3.4569,-3.4221,-3.2048,-3.1326,-3.1277,-3.0915,-3.1708,-3.2815,-3.2761,-3.3872,-3.5158,-3.5158,-3.402,-3.2307,-3.046,-2.9607,-2.9043,-2.7498,-2.707,-2.6648,-2.4918,-2.4636,-2.4636,-2.4636,-2.4636,-2.4636,-2.4636,-2.4636,-2.4636,-2.4636,-2.4636,-2.4636,-2.4636,-2.4334,-2.4179,-2.4179,-2.3877,-2.3722,-2.3722,-2.2205,-2.1141,-2.1141,-1.9629,-1.827,-1.7663,-1.5994,-1.4256,-1.2446,-1.2291,-1.2145,-1.1837,-1.1809,-1.1738,-1.1619,-1.1619,-1.1619,-1.1619,-1.1619,-1.1619,-5.0235,-5.1626,-5.3913,-5.9319,-5.7313,-5.5748,-6.2393,-5.8312,-5.5412,-6.3506,-6.0718,-5.7777,-6.1039,-6.2343,-6.1773,-5.8154,-6.1236,-6.3387,-6.1462,-6.142,-6.0907,-5.9033,-5.9895,-5.9903,-5.8351,-5.9135,-5.9258,-5.8085,-5.68,-5.5918,-5.5179,-5.3846,-5.263,-5.1943,-4.9748,-4.8197,-4.7534,-4.5864,-4.3433,-4.0024,-3.9978,-3.8125,-3.4807,-3.5811,-3.6445,-3.6641,0.0,-3.6504,-3.7529,-3.6787,-3.7031,-3.7718,-3.6618,-3.6246,-3.6046,-3.4609,-3.4034,-3.3825,-3.3635,-3.4029,-3.4737,-3.4737,-3.5304,-3.6016,-3.6016,-3.5451,-3.459,-3.3586,-3.1175,-2.8341,-2.6495,-2.5925,-2.5639,-2.4777,-2.4636,-2.4636,-2.4636,-2.4636,-2.4636,-2.4636,-2.4636,-2.4636,-2.4636,-2.4636,-2.4636,-2.4636,-2.4636,-2.4636,-2.4636,-2.4636,-2.4636,-2.4636,-2.3722,-2.3264,-2.3264,-2.2354,-2.0841,-1.8723,-1.7659,-1.6715,-1.5725,-1.5617,-1.5479,-1.5298,-1.5199,-1.5057,-1.4875,-1.4875,-1.4252,-1.317,-1.317,-1.2606,-5.0756,-5.181,-5.4019,-6.0808,-5.8203,-5.6597,-6.6526,-6.0638,-5.5833,-6.5594,-6.0729,-5.6472,-6.2204,-5.9958,-5.8013,-6.0338,-6.3977,-6.5896,-6.409,-6.3059,-6.2234,-6.1547,-6.0518,-5.981,-5.981,-6.0301,-6.0059,-5.8902,-5.7714,-5.6445,-5.528,-5.4082,-5.3413,-5.2963,-5.0754,-4.9194,-4.8532,-4.7429,-4.5148,-4.1834,-4.1839,-4.0122,-3.7245,-3.6811,-3.6853,-3.7112,-3.5471,-3.5625,-3.706,-3.582,-3.6094,-3.7285,-3.7187,-3.709,-3.6963,-3.6641,-3.6309,-3.6016,-3.6016,-3.6016,-3.6016,-3.6016,-3.6016,-3.6016,-3.6016,-3.6016,-3.5879,-3.5451,-3.2176,-2.8349,-2.6488,-2.5918,-2.5772,-2.4777,-2.4636,-2.4636,-2.4636,-2.4636,-2.4636,-2.4636,-2.4636,-2.4636,-2.4636,-2.4636,-2.4636,-2.4636,-2.4636,-2.4636,-2.4636,-2.4636,-2.4636,-2.4636,-2.4636,-2.4636,-2.4636,-2.4636,-2.3271,-2.0236,-1.9629,-1.9025,-1.8572,-1.84,-1.8284,-1.8223,-1.8214,-1.8025,-1.7806,-1.7755,-1.6782,-1.5203,-1.5159,-1.4014,-5.0894,-5.1433,-5.2399,-5.6211,-5.5566,-5.706,-6.8757,-6.2751,-5.7334,-6.6611,-6.5308,-6.3358,-6.6224,-6.3249,-6.1035,-6.3112,-6.326,-6.4163,-6.6955,-6.588,-6.4751,-6.4685,-6.3186,-6.2144,-6.2144,-6.1217,-6.0059,-5.8902,-5.7714,-5.6445,-5.528,-5.5078,-5.4406,-5.3069,-5.2751,-5.1305,-4.8532,-4.8429,-4.6777,-4.3505,-4.3523,-4.2625,-4.0712,-3.9192,-3.8496,-3.8416,-3.7012,-3.6572,-3.6738,-3.7002,-3.7187,-3.7256,-3.6875,-3.6465,-3.6103,-3.6074,-3.6045,-3.6016,-3.6016,-3.6016,-3.6016,-3.6016,-3.6016,-3.6016,-3.6016,-3.6016,-3.5597,-3.3882,-3.317,-3.2316,-3.0451,-2.9884,-2.9035,-2.5492,-2.4636,-2.4636,-2.4636,-2.4636,-2.4636,-2.4636,-2.4636,-2.4636,-2.4636,-2.4636,-2.4636,-2.4636,-2.4636,-2.4636,-2.4636,-2.4636,-2.4636,-2.4636,-2.4636,-2.4636,-2.4636,-2.4636,-2.4482,-2.4179,-2.236,-2.0536,-1.8723,-1.8557,-1.8446,-1.8229,-1.8356,-1.8249,-1.8035,-1.7826,-1.7576,-1.7413,-1.7208,-1.5981,-5.1054,-5.1398,-5.3008,-5.9726,-5.6855,-5.5329,-6.6586,-6.2574,-5.9491,-7.0191,-6.6276,-6.1064,-6.1435,-6.2262,-6.312,-6.3817,-6.5046,-6.5879,-6.6031,-6.539,-6.4614,-6.3501,-6.2779,-6.2381,-6.2381,-6.203,-6.087,-5.8992,-5.836,-5.7276,-5.528,-5.5194,-5.4962,-5.4406,-5.3518,-5.1957,-4.9833,-4.8965,-4.7377,-4.5269,-4.4239,-4.3345,-4.2706,-3.9888,-3.8608,-3.8486,-3.6979,-3.6269,-3.6279,-3.6435,-3.6504,-3.6484,-3.6328,-3.6172,-3.6016,-3.6016,-3.6016,-3.6016,-3.6016,-3.6016,-3.6016,-3.6016,-3.6016,-3.6016,-3.6016,-3.6016,-3.5879,-3.5167,-3.4883,-3.4167,-3.1158,-3.031,-2.9607,-2.7063,-2.6357,-2.6071,-2.4924,-2.4636,-2.4636,-2.4636,-2.4636,-2.4636,-2.4636,-2.4636,-2.4636,-2.4636,-2.4636,-2.4636,-2.4636,-2.4636,-2.4636,-2.4636,-2.4636,-2.4636,-2.4636,-2.4636,-2.4636,-2.4636,-2.3877,-2.3116,-2.236,-2.236,-2.2305,-2.2202,-2.2202,-2.2074,-2.1958,-2.186,-2.0988,-1.9659,-1.9413,-1.8306,-5.1162,-5.1406,-5.314,-6.0383,-5.673,-5.4312,-6.5735,-6.2872,-6.0647,-7.0642,-6.8225,-6.3614,-6.1319,-6.3389,-6.5141,-6.4236,-6.5485,-6.6409,-6.5902,-6.5326,-6.4546,-6.3371,-6.2719,-6.2381,-6.2381,-6.203,-6.0953,-5.8992,-5.8451,-5.7355,-5.528,-5.5194,-5.5194,-5.5194,-5.4186,-5.2722,-5.0699,-4.9734,-4.8184,-4.6313,-4.5147,-4.4497,-4.4374,-4.1554,-4.0267,-4.0137,-3.7832,-3.6799,-3.6799,-3.6278,-3.6016,-3.6016,-3.6016,-3.6016,-3.6016,-3.6016,-3.6016,-3.6016,-3.6016,-3.6016,-3.6016,-3.6016,-3.6016,-3.6016,-3.6016,-3.6016,-3.6016,-3.6016,-3.6016,-3.5441,-3.2735,-3.1589,-3.0743,-2.8772,-2.7924,-2.707,-2.5786,-2.5065,-2.4636,-2.4636,-2.4636,-2.4636,-2.4636,-2.4636,-2.4636,-2.4636,-2.4636,-2.4636,-2.4636,-2.4636,-2.4636,-2.4636,-2.4636,-2.4636,-2.4636,-2.4636,-2.4636,-2.4636,-2.4636,-2.4636,-2.4636,-2.4636,-2.4636,-2.4636,-2.4636,-2.4536,-2.4342,-2.4249,-2.3352,-2.1968,-2.1697,-2.0521,-5.123,-5.1426,-5.2396,-5.6554,-5.4388,-5.4509,-6.6948,-6.4078,-6.0581,-6.7088,-7.1745,-7.3058,-6.7845,-6.7618,-6.7334,-6.4562,-6.4127,-6.4989,-6.7375,-6.615,-6.5017,-6.5017,-6.3444,-6.2381,-6.2381,-6.1317,-6.0145,-5.8902,-5.7714,-5.6445,-5.5295,-5.5194,-5.5194,-5.5194,-5.5194,-5.3727,-5.0699,-5.0699,-4.9281,-4.6313,-4.6313,-4.6313,-4.618,-4.4497,-4.3719,-4.347,-4.0137,-3.8597,-3.8476,-3.6799,-3.6016,-3.6016,-3.6025,-3.6016,-3.6016,-3.6016,-3.6016,-3.6016,-3.6016,-3.6016,-3.6016,-3.6016,-3.6016,-3.6016,-3.6016,-3.6016,-3.6016,-3.6016,-3.6016,-3.6016,-3.6016,-3.459,-3.2743,-3.0734,-2.8908,-2.7505,-2.7505,-2.5925,-2.4636,-2.4636,-2.4636,-2.4636,-2.4636,-2.4636,-2.4636,-2.4636,-2.4636,-2.4636,-2.4636,-2.4636,-2.4636,-2.4636,-2.4636,-2.4636,-2.4636,-2.4636,-2.4636,-2.4636,-2.4636,-2.4636,-2.4636,-2.4636,-2.4636,-2.4636,-2.4636,-2.4636,-2.4636,-2.4349,-2.4209,-2.4202,-2.3915,-2.2589,-5.5078,-5.3663,-5.2283,-5.6594,-5.6611,-5.6524,-6.0208,-6.1593,-6.3614,-6.9044,-6.9883,-6.8703,-6.569,-6.7875,-6.9173,-6.6265,-6.721,-6.8088,-6.7492,-6.65,-6.5355,-6.4105,-6.3042,-6.2381,-6.2381,-6.211,-6.1036,-5.8992,-5.8451,-5.7371,-5.528,-5.5194,-5.5194,-5.5194,-5.5194,-5.4289,-5.228,-5.1263,-4.9721,-4.7873,-4.6755,-4.6313,-4.618,-4.4497,-4.3719,-4.3595,-4.1426,-4.0408,-4.0278,-3.8608,-3.7832,-3.7698,-3.6539,-3.6016,-3.6016,-3.6016,-3.6016,-3.6016,-3.6016,-3.6016,-3.6016,-3.6016,-3.6016,-3.6016,-3.6016,-3.6016,-3.6016,-3.6016,-3.6016,-3.6016,-3.6016,-3.5587,-3.4737,-3.2735,-3.1887,-3.0759,-2.8068,-2.707,-2.6218,-2.4924,-2.4636,-2.4636,-2.4636,-2.4636,-2.4636,-2.4636,-2.4636,-2.4636,-2.4636,-2.4636,-2.4636,-2.4636,-2.4636,-2.4636,-2.4636,-2.4636,-2.4636,-2.4636,-2.4636,-2.4636,-2.4636,-2.4636,-2.4636,-2.4636,-2.4636,-2.4636,-2.4636,-2.4549,-2.4509,-2.4496,-2.4209,-2.3727,-5.7196,-5.5859,-5.5163,-6.1147,-5.996,-5.7743,-5.9326,-6.1632,-6.525,-7.1629,-7.165,-7.0073,-6.862,-7.029,-7.1111,-6.8787,-6.9633,-6.9909,-6.8123,-6.7131,-6.6093,-6.4624,-6.3498,-6.2837,-6.2837,-6.2119,-6.087,-5.8992,-5.836,-5.7276,-5.528,-5.5194,-5.5194,-5.5194,-5.5194,-5.4186,-5.2065,-5.1153,-4.9721,-4.7652,-4.6755,-4.6313,-4.6301,-4.5269,-4.4755,-4.4632,-4.2958,-4.182,-4.1181,-4.0018,-3.9627,-3.9507,-3.7698,-3.7048,-3.6924,-3.6278,-3.6016,-3.6016,-3.6016,-3.6016,-3.6016,-3.6016,-3.6016,-3.6016,-3.6016,-3.6016,-3.6016,-3.6016,-3.6016,-3.6016,-3.6016,-3.6016,-3.5733,-3.459,-3.3734,-3.2604,-3.0192,-2.9202,-2.8197,-2.7055,-2.6203,-2.5786,-2.5786,-2.5065,-2.4636,-2.4636,-2.4636,-2.4636,-2.4636,-2.4636,-2.4636,-2.4636,-2.4636,-2.4636,-2.4636,-2.4636,-2.4636,-2.4636,-2.4636,-2.4636,-2.4636,-2.4636,-2.4636,-2.4636,-2.4636,-2.4636,-2.4636,-2.4636,-2.4636,-2.4636,-2.4456,-2.4315,-5.8347,-5.8035,-5.9412,-6.7031,-6.3026,-5.8466,-6.3334,-6.4166,-6.616,-7.4245,-7.514,-7.4391,-7.4261,-7.3699,-7.2878,-7.1636,-7.1431,-7.0833,-6.9137,-6.8034,-6.7077,-6.615,-6.4606,-6.3616,-6.3616,-6.1932,-6.0345,-5.8998,-5.7839,-5.6638,-5.528,-5.5194,-5.5194,-5.5194,-5.5194,-5.3846,-5.1153,-5.0809,-4.9381,-4.6755,-4.6421,-4.6313,-4.6313,-4.6313,-4.6313,-4.618,-4.462,-4.3095,-4.1693,-4.1437,-4.1437,-4.1309,-3.9507,-3.8861,-3.8597,-3.7059,-3.6403,-3.6287,-3.6287,-3.6152,-3.6016,-3.6016,-3.6016,-3.6016,-3.6016,-3.6016,-3.6016,-3.6016,-3.6016,-3.6016,-3.6016,-3.6016,-3.6016,-3.6016,-3.4737,-3.3448,-3.3309,-3.1878,-3.0451,-3.031,-2.8908,-2.7643,-2.7505,-2.6071,-2.4777,-2.4636,-2.4636,-2.4636,-2.4636,-2.4636,-2.4636,-2.4636,-2.4636,-2.4636,-2.4636,-2.4636,-2.4636,-2.4636,-2.4636,-2.4636,-2.4636,-2.4636,-2.4636,-2.4636,-2.4636,-2.4636,-2.4636,-2.4636,-2.4636,-2.4636,-2.4636,-2.4496,-6.1821,-6.0162,-5.7924,-5.9565,-5.8511,-5.9896,-7.0783,-7.0706,-6.9662,-7.4308,-7.2187,-7.0305,-7.3052,-7.3085,-7.2575,-7.2275,-7.2239,-7.1838,-7.0735,-6.9279,-6.7976,-6.6989,-6.5374,-6.436,-6.436,-6.3424,-6.1999,-5.9794,-5.8935,-5.7449,-5.528,-5.5194,-5.5194,-5.5194,-5.5194,-5.486,-5.4289,-5.1929,-5.038,-4.9721,-4.7416,-4.6313,-4.6313,-4.6313,-4.6313,-4.6313,-4.5914,-4.5537,-4.5147,-4.3731,-4.322,-4.2958,-4.1309,-4.0666,-4.0537,-4.0278,-3.9245,-3.8088,-3.8088,-3.7183,-3.6016,-3.6016,-3.6016,-3.6016,-3.6016,-3.6016,-3.6016,-3.6016,-3.6016,-3.6016,-3.6016,-3.6016,-3.6016,-3.6016,-3.5733,-3.5021,-3.3457,-3.2883,-3.2167,-3.0593,-3.0026,-2.9186,-2.778,-2.7215,-2.6357,-2.4777,-2.4636,-2.4636,-2.4636,-2.4636,-2.4636,-2.4636,-2.4636,-2.4636,-2.4636,-2.4636,-2.4636,-2.4636,-2.4636,-2.4636,-2.4636,-2.4636,-2.4636,-2.4636,-2.4636,-2.4636,-2.4636,-2.4636,-2.4636,-2.4636,-2.4636,-2.4603,-6.0435,-6.0721,-6.0925,-6.2728,-6.4666,-6.7301,-7.1937,-7.286,-7.3089,-7.4467,-7.2724,-7.1451,-7.3081,-7.2907,-7.2496,-7.2496,-7.2496,-7.2011,-7.0601,-6.9702,-6.8588,-6.7158,-6.5837,-6.5121,-6.5121,-6.4461,-6.2866,-6.0141,-5.95,-5.8169,-5.5396,-5.5194,-5.5194,-5.5194,-5.5194,-5.486,-5.4186,-5.1821,-5.038,-4.9621,-4.7416,-4.6313,-4.6313,-4.6313,-4.6313,-4.6313,-4.6313,-4.6313,-4.618,-4.5281,-4.489,-4.4767,-4.3095,-4.2454,-4.2328,-4.1437,-4.0666,-3.9888,-3.9888,-3.8729,-3.7183,-3.7183,-3.6664,-3.6016,-3.6016,-3.6016,-3.6016,-3.6016,-3.6016,-3.6016,-3.6016,-3.6016,-3.6016,-3.6016,-3.6016,-3.5733,-3.4737,-3.459,-3.4305,-3.3161,-3.2307,-3.1316,-3.0334,-2.948,-2.8197,-2.621,-2.5925,-2.5639,-2.4784,-2.4636,-2.4636,-2.4636,-2.4636,-2.4636,-2.4636,-2.4636,-2.4636,-2.4636,-2.4636,-2.4636,-2.4636,-2.4636,-2.4636,-2.4636,-2.4636,-2.4636,-2.4636,-2.4636,-2.4636,-2.4636,-2.4636,-2.4636,-5.7738,-6.0603,-6.4652,-6.871,-7.1764,-7.3283,-7.1245,-7.2937,-7.4791,-7.4354,-7.4293,-7.4072,-7.3391,-7.2816,-7.2496,-7.2496,-7.2496,-7.1873,-7.0178,-6.9831,-6.9056,-6.7226,-6.6321,-6.5882,-6.5882,-6.5222,-6.3516,-6.0511,-6.0072,-5.8578,-5.5576,-5.5254,-5.5194,-5.5194,-5.5194,-5.4626,-5.3413,-5.1821,-5.0393,-4.8851,-4.7087,-4.6313,-4.6313,-4.6313,-4.6313,-4.6313,-4.6313,-4.6313,-4.6313,-4.6313,-4.6313,-4.618,-4.4755,-4.4115,-4.3979,-4.258,-4.1947,-4.1693,-4.1693,-4.0537,-3.8993,-3.8729,-3.7575,-3.6413,-3.6152,-3.6016,-3.6016,-3.6016,-3.6016,-3.6016,-3.6016,-3.6016,-3.6016,-3.6016,-3.6016,-3.6016,-3.6016,-3.6016,-3.6016,-3.6016,-3.4396,-3.3044,-3.2981,-3.1399,-2.9563,-2.8036,-2.7757,-2.706,-2.5263,-2.4983,-2.4864,-2.4629,-2.4636,-2.4636,-2.4636,-2.4636,-2.4636,-2.4636,-2.4636,-2.4636,-2.4636,-2.4636,-2.4636,-2.4636,-2.4636,-2.4636,-2.4636,-2.4636,-2.4636,-2.4636,-2.4636,-2.4636,-5.766,-6.0506,-6.4508,-6.8671,-6.734,-6.6782,-7.361,-7.2764,-7.1264,-7.3768,-7.4293,-7.3934,-7.2816,-7.2535,-7.2496,-7.2496,-7.2496,-7.2149,-7.1077,-7.0178,-6.9259,-6.8146,-6.7206,-6.666,-6.666,-6.5984,-6.4467,-6.1942,-6.0617,-5.8798,-5.6236,-5.5508,-5.5194,-5.5194,-5.5194,-5.5078,-5.486,-5.3399,-5.1943,-5.038,-4.7639,-4.6313,-4.6313,-4.6313,-4.6313,-4.6313,-4.6313,-4.6313,-4.6313,-4.6313,-4.6313,-4.6313,-4.6047,-4.5926,-4.5926,-4.5671,-4.4632,-4.3345,-4.3345,-4.2316,-4.0666,-3.9125,-3.8476,-3.7965,-3.6403,-3.6016,-3.6016,-3.6016,-3.6016,-3.6016,-3.6016,-3.6016,-3.6016,-3.6016,-3.6016,-3.6016,-3.6016,-3.6016,-3.6016,-3.6016,-3.4162,-3.2539,-3.207,-3.0489,-2.9102,-2.8834,-2.8834,-2.8253,-2.6727,-2.6478,-2.6034,-2.475,-2.4636,-2.4636,-2.4636,-2.4636,-2.4636,-2.4636,-2.4636,-2.4636,-2.4636,-2.4636,-2.4636,-2.4636,-2.4636,-2.4636,-2.4636,-2.4636,-2.4636,-2.4636,-2.4636,-2.4636,-5.9797,-6.0525,-6.2087,-7.1025,-6.8225,-6.5532,-7.4053,-7.2726,-7.0573,-7.3654,-7.4293,-7.3934,-7.2724,-7.2496,-7.2496,-7.2496,-7.2496,-7.2011,-7.0535,-6.9971,-6.9112,-6.7582,-6.7012,-6.6812,-6.6812,-6.6508,-6.51,-6.2263,-6.1081,-5.9223,-5.6372,-5.5538,-5.5194,-5.5194,-5.5194,-5.5194,-5.5194,-5.3742,-5.1849,-4.9395,-4.8197,-4.7087,-4.6313,-4.6313,-4.6313,-4.6313,-4.6313,-4.6313,-4.6313,-4.6313,-4.6313,-4.6313,-4.6313,-4.6313,-4.6313,-4.6313,-4.5793,-4.5147,-4.5147,-4.3991,-4.2454,-4.1681,-4.0784,-3.9769,-3.7965,-3.7441,-3.7317,-3.6278,-3.6016,-3.6016,-3.6016,-3.6016,-3.5957,-3.5723,-3.5664,-3.5596,-3.5342,-3.5488,-3.5596,-3.5332,-3.4432,-3.369,-3.3511,-3.2781,-3.1828,-3.075,-3.0615,-2.9986,-2.8205,-2.809,-2.7944,-2.7455,-2.6503,-2.6011,-2.6196,-2.5212,-2.4636,-2.4636,-2.4636,-2.4636,-2.4636,-2.4636,-2.4636,-2.4636,-2.4636,-2.4636,-2.4636,-2.4636,-2.4636,-2.4636,-2.4636,-2.4636,-6.0149,-5.9705,-5.9715,-7.0167,-6.7186,-6.3647,-7.1091,-7.0219,-6.8774,-7.2025,-7.3427,-7.3765,-7.2668,-7.2496,-7.2496,-7.2496,-7.2496,-7.1873,-6.9971,-6.9708,-6.8982,-6.7029,-6.6812,-6.6812,-6.6812,-6.6812,-6.5554,-6.2668,-6.154,-5.9728,-5.6763,-5.5741,-5.5194,-5.5194,-5.5194,-5.5194,-5.5194,-5.3742,-5.1863,-4.9648,-4.8864,-4.786,-4.6874,-4.6421,-4.6313,-4.6313,-4.6313,-4.6313,-4.6313,-4.6313,-4.6313,-4.6313,-4.6313,-4.6313,-4.6313,-4.6313,-4.6313,-4.6313,-4.6313,-4.5403,-4.4239,-4.3855,-4.2832,-4.1565,-3.9758,-3.8993,-3.8353,-3.7059,-3.6278,-3.5996,-3.5889,-3.5859,-3.5752,-3.5322,-3.5215,-3.5127,-3.4775,-3.4971,-3.5078,-3.4629,-3.4541,-3.4502,-3.4394,-3.4375,-3.3835,-3.2494,-3.223,-3.1576,-2.9767,-2.9512,-2.951,-2.9461,-2.8247,-2.755,-2.8052,-2.68,-2.5972,-2.605,-2.6057,-2.6057,-2.6057,-2.5639,-2.5352,-2.5352,-2.4777,-2.4636,-2.4636,-2.4636,-2.4636,-2.4636,-2.4636,-2.4636,-5.6547,-5.747,-5.8293,-6.2815,-6.0627,-5.8492,-6.2954,-6.3389,-6.3883,-6.7481,-7.1012,-7.3257,-7.2648,-7.2496,-7.2496,-7.2496,-7.2496,-7.1873,-6.9971,-6.9708,-6.8982,-6.7029,-6.6812,-6.6812,-6.6812,-6.6812,-6.5932,-6.388,-6.2016,-6.0106,-5.7978,-5.6198,-5.5194,-5.5194,-5.5194,-5.5194,-5.5194,-5.3742,-5.2963,-5.2736,-4.9861,-4.8416,-4.8313,-4.6981,-4.6313,-4.6313,-4.6313,-4.6313,-4.6313,-4.6313,-4.6313,-4.6313,-4.6313,-4.6313,-4.6313,-4.6313,-4.6313,-4.6313,-4.6313,-4.618,-4.5914,-4.4239,-4.3595,-4.322,-4.1565,-3.9888,-3.8608,-3.8476,-3.7317,-3.5928,-3.5527,-3.543,-3.5312,-3.4844,-3.4736,-3.4726,-3.4707,-3.4717,-3.4609,-3.4189,-3.4101,-3.3975,-3.3555,-3.3486,-3.3486,-3.336,-3.336,-3.2839,-3.1235,-3.1157,-3.0626,-2.922,-2.8987,-2.9134,-2.9502,-2.9527,-2.9534,-3.0009,-3.0026,-3.0026,-3.0026,-2.8341,-2.736,-2.736,-2.5499,-2.4636,-2.4636,-2.4636,-2.4636,-2.4636,-2.4636,-2.4636,-5.6259,-5.5324,-5.4799,-6.1608,-5.8088,-5.4761,-6.1723,-6.291,-6.28,-6.3841,-6.9027,-7.2425,-6.9263,-7.077,-7.2496,-7.2496,-7.2496,-7.1873,-6.9971,-6.9708,-6.8982,-6.7029,-6.6812,-6.6812,-6.6812,-6.6812,-6.5932,-6.3969,-6.0509,-5.8324,-5.7983,-5.4546,-5.3428,-5.5149,-5.5194,-5.5194,-5.5194,-5.4641,-5.3964,-5.2963,-5.1863,-5.0421,-4.8532,-4.7977,-4.7205,-4.6313,-4.6313,-4.6313,-4.6313,-4.6313,-4.6313,-4.6313,-4.6313,-4.6313,-4.6313,-4.6313,-4.6313,-4.6313,-4.6313,-4.6313,-4.618,-4.5537,-4.5403,-4.5025,-4.3345,-4.2328,-4.1426,-3.9245,-3.7871,-3.6973,-3.5687,-3.5176,-3.4834,-3.4404,-3.4082,-3.3877,-3.3877,-3.3877,-3.3838,-3.3682,-3.3652,-3.3603,-3.3447,-3.3418,-3.3418,-3.3418,-3.3418,-3.3213,-3.2711,-3.2601,-3.2485,-3.2356,-3.1194,-3.0542,-3.1059,-2.9984,-2.9445,-2.9946,-2.9963,-3.007,-3.0301,-2.8485,-2.7505,-2.7505,-2.5646,-2.4636,-2.4636,-2.4636,-2.4636,-2.4636,-2.4636,-2.4636,-5.4477,-5.3071,-5.2145,-5.7684,-5.4857,-5.2164,-5.778,-6.0685,-6.2129,-6.1862,-6.7792,-7.2164,-6.9099,-7.0697,-7.2496,-7.2496,-7.2496,-7.1873,-6.9971,-6.9708,-6.8982,-6.7029,-6.6812,-6.6812,-6.6812,-6.6592,-6.575,-6.4178,-6.0277,-5.809,-5.8279,-5.4637,-5.3369,-5.5134,-5.5194,-5.5194,-5.5194,-5.5194,-5.4743,-5.3742,-5.3189,-5.1972,-4.9973,-4.9522,-4.8416,-4.7087,-4.7087,-4.6755,-4.6313,-4.6313,-4.6313,-4.6313,-4.6313,-4.6313,-4.6313,-4.6313,-4.6313,-4.6313,-4.6313,-4.6313,-4.6313,-4.6313,-4.6313,-4.6047,-4.489,-4.4115,-4.3173,-4.0712,-3.9411,-3.8209,-3.6294,-3.4991,-3.4199,-3.3926,-3.3633,-3.3418,-3.3418,-3.3418,-3.3418,-3.3418,-3.3418,-3.3418,-3.3418,-3.3418,-3.3418,-3.3418,-3.3418,-3.3418,-3.3418,-3.3418,-3.3535,-3.3828,-3.2652,-3.2152,-3.2568,-3.1506,-3.0842,-3.137,-3.1388,-3.1572,-3.1957,-3.0153,-2.9226,-2.9345,-2.7483,-2.6203,-2.5639,-2.4924,-2.4636,-2.4636,-2.4636,-2.4636,0.0,0.0,0.0,-5.0702,-5.0702,-5.0702,-5.0702,-5.6282,-6.1412,-6.143,-6.7258,-7.233,-7.233,-7.2422,-7.2496,-7.2496,-7.2496,-7.1873,-6.9971,-6.9708,-6.8982,-6.7029,-6.6812,-6.6812,-6.6812,-6.6136,-6.5375,-6.4664,-6.1622,-5.9527,-5.8844,-5.6557,-5.5194,-5.5194,-5.5194,-5.5194,-5.5194,-5.5194,-5.5194,-5.5194,-5.3742,-5.3069,-5.2963,-5.1495,-4.9946,-4.8532,-4.8532,-4.7639,-4.6301,-4.6313,-4.6313,-4.6313,-4.6313,-4.6313,-4.6313,-4.6313,-4.6313,-4.6313,-4.6313,-4.6313,-4.6313,-4.6313,-4.6313,-4.6313,-4.6288,-4.5123,-4.36,-4.3065,-4.1646,-3.9785,-3.7127,-3.4966,-3.3418,-3.3418,-3.3418,-3.3418,-3.3418,-3.3418,-3.3418,-3.3418,-3.3418,-3.3418,-3.3418,-3.3418,-3.3418,-3.3418,-3.3418,-3.3418,-3.3418,-3.3418,-3.3418,-3.3418,-3.3418,-3.3594,-3.4023,-3.4053,-3.4228,-3.4658,-3.4678,-3.4892,-3.5351,-3.3536,-3.2737,-3.3125,-3.1282,-2.9456,-2.7635,-2.5639,-2.4636,-2.4636,-2.4636,-2.4636,-5.0914,0.0,0.0,0.0,0.0,0.0,-5.0702,-5.4301,-5.7521,-5.7253,-6.3258,-6.8495,-6.82,-7.055,-7.2496,-7.2496,-7.2496,-7.1873,-6.9971,-6.9708,-6.8982,-6.7029,-6.6812,-6.6812,-6.6812,-6.6136,-6.5375,0.0,-6.0719,-5.8421,-5.8732,-5.6557,-5.5194,-5.5194,-5.5194,-5.5194,-5.5194,-5.5194,-5.5194,-5.5194,-5.4743,-5.4068,-5.2963,-5.2509,-5.1495,-5.0045,-4.8965,-4.8313,-4.7756,-4.6755,-4.6313,-4.6313,-4.6313,-4.6313,-4.6313,-4.6313,-4.6313,-4.6313,-4.6313,-4.6313,-4.6313,-4.6313,-4.6313,-4.6238,-4.5836,-4.5328,-4.4581,-4.2783,-4.173,-4.0301,-3.6881,-3.5552,-3.485,-3.366,-3.3418,-3.3418,-3.3418,-3.3418,-3.3418,-3.3418,-3.3418,-3.3418,-3.3418,-3.3418,-3.3418,-3.3418,-3.3418,-3.3418,-3.3418,-3.3418,-3.3418,-3.3418,-3.3418,-3.3467,-3.3594,-3.3603,-3.3789,-3.4219,-3.4248,-3.4434,-3.4873,-3.3109,-3.207,-3.2313,-3.0632,-2.965,-2.9095,-2.7522,-2.5925,-2.4636,-2.4636,-2.4636,-5.0837,-5.076,-5.0779,-5.1125,0.0,0.0,-5.0905,-5.4808,-5.8257,-5.7885,-6.3955,-6.8794,-6.6841,-6.8421,-7.0,-7.0,-7.0,-6.99,-6.9758,-6.9708,-6.8982,-6.7029,-6.6812,-6.6694,-6.6373,-6.5662,-6.4935,-6.4208,-6.0407,-5.792,-5.7308,-5.5918,-5.5194,-5.5194,-5.5194,-5.5194,-5.5194,-5.5194,-5.5194,-5.5194,-5.5194,-5.4743,-5.3964,-5.3964,-5.3069,-5.1604,-5.074,-4.996,-4.9408,-4.8518,-4.7403,-4.6313,-4.6313,-4.6313,-4.6313,-4.6313,-4.6313,-4.6313,-4.6313,-4.6313,-4.6313,-4.6313,-4.615,-4.5912,-4.5585,-4.5309,-4.4761,-4.3216,-4.1942,-4.061,-3.8387,-3.7243,-3.6417,-3.4736,-3.4373,-3.4258,-3.3544,-3.3418,-3.3418,-3.3418,-3.3418,-3.3418,-3.3418,-3.3418,-3.3418,-3.3418,-3.3418,-3.3418,-3.3418,-3.3418,-3.3418,-3.3418,-3.3418,-3.3418,-3.3418,-3.3418,-3.3525,-3.3779,-3.3799,-3.3994,-3.4424,-3.3368,-3.2898,-3.3066,-3.2196,-3.1353,-3.0669,-2.9373,-2.8053,-2.691,-2.621,-2.5786,-5.0721,-5.0702,-5.0894,-5.1702,-5.1356,0.0,-5.1281,-5.6133,-6.0511,-6.0431,-6.5829,-6.9614,-6.6384,-6.5815,-6.5815,-6.5815,-6.5815,-6.6569,-6.878,-6.9424,-6.8824,-6.6469,-6.6559,-6.6525,-6.5764,-6.5019,-6.4292,-6.3582,-6.057,-5.7823,-5.5735,-5.5381,-5.5194,-5.5194,-5.5194,-5.5194,-5.5194,-5.5194,-5.5194,-5.5194,-5.5194,-5.5194,-5.5194,-5.5194,-5.4524,-5.3189,-5.3083,-5.2173,-5.092,-5.0809,-4.9053,-4.6528,-4.6528,-4.6421,-4.6313,-4.6313,-4.6313,-4.6313,-4.6313,-4.6276,-4.6225,-4.6225,-4.5849,-4.5384,-4.5321,-4.4945,-4.4418,-4.3865,-4.2393,-4.0834,-4.0604,-3.9522,-3.8093,-3.6406,-3.5918,-3.5448,-3.4017,-3.3544,-3.3418,-3.3418,-3.3418,-3.3418,-3.3418,-3.3418,-3.3418,-3.3418,-3.3418,-3.3418,-3.3418,-3.3418,-3.3418,-3.3418,-3.3418,-3.3418,-3.3418,-3.3418,-3.3418,-3.3418,-3.3418,-3.3594,-3.3984,-3.4004,-3.418,-3.4551,-3.4609,-3.3841,-3.2266,-3.0898,-3.0252,-3.0252,-2.8613,-2.778,-5.0702,-5.0702,-5.0894,-5.1702,-5.1779,0.0,-5.1755,-5.282,-5.4313,-5.618,-5.7791,-5.9406,-6.1242,-6.1594,-6.1594,-6.1594,-6.1594,-6.2453,-6.4856,-6.7776,-6.7916,-6.2938,-6.5002,-6.6525,-6.5764,-6.5019,-6.4292,-6.3582,-6.057,-5.8632,-5.8085,-5.628,-5.5194,-5.5194,-5.5194,-5.5194,-5.5194,-5.5194,-5.5194,-5.5194,-5.5194,-5.5194,-5.5194,-5.5194,-5.5078,-5.4743,-5.3518,-5.2843,-5.2402,-5.1263,-4.9608,-4.8094,-4.8094,-4.7311,-4.6313,-4.6313,-4.6313,-4.6313,-4.6313,-4.6024,-4.5648,-4.5648,-4.5259,-4.4706,-4.4267,-4.4053,-4.3853,-4.3288,-4.2825,-4.225,-4.0949,-4.0361,-3.9768,-3.8093,-3.6771,-3.5683,-3.5448,-3.4248,-3.3418,-3.3418,-3.3418,-3.3418,-3.3418,-3.3418,-3.3418,-3.3418,-3.3418,-3.3418,-3.3418,-3.3418,-3.3418,-3.3418,-3.3418,-3.3418,-3.3418,-3.3418,-3.3418,-3.3418,-3.3418,-3.3457,-3.3545,-3.3545,-3.3584,-3.3672,-3.4014,-3.4225,-3.4162,-3.1192,-2.988,-2.9889,-2.9753,-2.9749,-5.0702,-5.0702,-5.0894,-5.1702,-5.1914,0.0,0.0,-5.3028,-5.4515,-5.5144,-5.6684,-5.7812,-5.7463,-5.7409,-5.7409,-5.7409,-5.7409,-5.7722,-5.8609,-6.3342,-6.6038,-6.4262,-6.5358,-6.5967,-6.5205,-6.4478,-6.3475,-6.218,-5.9995,-5.8542,-5.79,-5.6183,-5.5194,-5.5194,-5.5194,-5.5194,-5.5194,-5.5194,-5.5194,-5.5194,-5.5194,-5.5194,-5.5194,-5.5194,-5.5194,-5.5194,-5.4406,-5.4082,-5.4068,-5.3279,-5.2065,-5.0643,-4.9093,-4.8094,-4.7311,-4.6528,-4.6313,-4.6276,-4.5999,-4.5711,-4.5434,-4.5146,-4.4681,-4.4166,-4.3878,-4.3614,-4.3325,-4.3049,-4.2974,-4.2849,-4.2024,-4.1785,-4.1419,-3.9768,-3.8805,-3.7723,-3.6162,-3.5211,-3.4373,-3.3544,-3.3418,-3.3418,-3.3418,-3.3418,-3.3418,-3.3418,-3.3418,-3.3418,-3.3418,-3.3418,-3.3418,-3.3418,-3.3418,-3.3418,-3.3418,-3.3418,-3.3418,-3.3418,-3.3418,-3.3418,-3.3418,-3.3418,-3.3418,-3.3418,-3.3633,-3.3848,-3.4062,-3.2587,-3.1935,-3.2133,-3.1694,-3.1453,-5.0702,-5.0702,-5.0894,-5.1702,-5.1914,-5.1814,0.0,0.0,0.0,-5.4166,-5.6173,-5.7195,-5.383,-5.3225,-5.317,-5.3023,-5.3115,-5.3175,-5.3092,-5.7854,-6.1948,-6.357,-6.3645,-6.326,-6.2533,-6.2313,-6.1833,-6.1036,-5.961,-5.836,-5.7449,-5.6001,-5.5194,-5.5194,-5.5194,-5.5194,-5.5194,-5.5194,-5.5194,-5.5194,-5.5194,-5.5194,-5.5194,-5.5194,-5.5194,-5.5194,-5.5194,-5.5194,-5.5194,-5.5194,-5.4524,-5.3189,-5.0421,-4.8979,-4.83,-4.7077,-4.6377,-4.6075,-4.551,-4.5246,-4.5083,-4.4618,-4.4091,-4.3639,-4.3639,-4.3325,-4.2974,-4.2974,-4.2974,-4.2974,-4.2974,-4.2974,-4.2625,-4.1419,-4.0834,-3.9873,-3.7243,-3.6284,-3.5448,-3.4133,-3.366,-3.3418,-3.3418,-3.3418,-3.3418,-3.3418,-3.3418,-3.3418,-3.3418,-3.3418,-3.3418,-3.3418,-3.3418,-3.3418,-3.3418,-3.3418,-3.3418,-3.3418,-3.3418,-3.3418,-3.3418,-3.3418,-3.3418,-3.3418,-3.3418,-3.3418,-3.3418,-3.3779,-3.417,-3.459,-3.3507,-3.2874,-5.0702,-5.0702,-5.0894,-5.1702,-5.1914,-5.1894,-5.1854,0.0,-5.1597,-5.0371,0.0,-4.997,-4.9136,0.0,0.0,-4.8067,-4.8545,-4.9674,-5.1688,-5.275,-5.3182,-5.2934,-5.465,-5.5564,-5.4837,-5.6461,-5.8822,-6.197,-6.0059,-5.8722,-5.8632,-5.646,-5.5194,-5.5194,-5.5194,-5.5194,-5.5194,-5.5194,-5.5194,-5.5194,-5.5194,-5.5194,-5.5194,-5.5194,-5.5194,-5.5194,-5.5194,-5.5194,-5.5194,-5.5194,-5.5078,-5.4743,-5.3083,-5.0865,-4.8479,-4.7735,-4.6669,-4.5497,-4.492,-4.4405,-4.3978,-4.3915,-4.3526,-4.3074,-4.3074,-4.3024,-4.2974,-4.2974,-4.2974,-4.2974,-4.2974,-4.2974,-4.2974,-4.2737,-4.1659,-4.0476,-4.0117,-3.7843,-3.5806,-3.556,-3.4373,-3.3418,-3.3418,-3.3418,-3.3418,-3.3418,-3.3418,-3.3418,-3.3418,-3.3418,-3.3418,-3.3418,-3.3418,-3.3418,-3.3418,-3.3418,-3.3418,-3.3418,-3.3418,-3.3418,-3.3418,-3.3418,-3.3418,-3.3418,-3.3418,-3.3418,-3.3418,-3.3467,-3.3721,-3.415,-3.4309,-3.4493,-5.3683,-5.4357,-5.4434,-5.478,-5.5241,-5.5429,-5.4675,-5.2698,-5.0648,-4.9402,0.0,0.0,0.0,0.0,0.0,0.0,-4.8086,-4.8648,-4.9634,-4.9523,-5.0555,-5.3904,-5.412,-5.4346,-5.5327,-5.4296,-5.5108,-5.8863,-5.6923,-5.557,-5.557,-5.5291,-5.5194,-5.5194,-5.5194,-5.5194,-5.5194,-5.5194,-5.5194,-5.5194,-5.5194,-5.5194,-5.5194,-5.5194,-5.5194,-5.5194,-5.5194,-5.497,-5.4625,-5.4625,-5.4386,-5.4027,-5.337,-5.2084,-5.0379,-4.89,-4.737,-4.6101,-4.5533,-4.4635,-4.3752,-4.3426,-4.3162,-4.2974,-4.2974,-4.2974,-4.2974,-4.2974,-4.2974,-4.2974,-4.2974,-4.2974,-4.2974,-4.2974,-4.25,-4.1785,-4.0834,-3.9511,-3.832,-3.7363,-3.5928,-3.485,-3.485,-3.4017,-3.3418,-3.3418,-3.3418,-3.3418,-3.3418,-3.3418,-3.3418,-3.3418,-3.3418,-3.3418,-3.3418,-3.3418,-3.3418,-3.3418,-3.3418,-3.3418,-3.3418,-3.3418,-3.3418,-3.3418,-3.3418,-3.3418,-3.3418,-3.3418,-3.3516,-3.3701,-3.4141,-3.4336,-5.7877,-5.8723,-5.8454,-5.73,-5.7492,-5.7386,-5.518,-5.2484,-5.015,-4.9108,-4.8568,0.0,0.0,0.0,-4.8233,-4.8012,0.0,-4.8233,-4.8012,-4.7629,-4.8972,-5.3286,-5.2729,-5.2452,-5.3653,-5.2215,-5.235,-5.5074,-5.4268,-5.3517,-5.3188,-5.4776,-5.5551,-5.5194,-5.5194,-5.5194,-5.5194,-5.5194,-5.5194,-5.5194,-5.5194,-5.5089,-5.4925,-5.4925,-5.482,-5.464,-5.464,-5.4371,-5.3922,-5.3922,-5.3638,-5.3159,-5.298,-5.2571,-5.1875,-4.993,-4.8055,-4.6349,-4.5906,-4.4745,-4.3514,-4.3112,-4.2974,-4.2974,-4.2974,-4.2974,-4.2974,-4.2974,-4.2974,-4.2974,-4.2974,-4.2974,-4.2974,-4.2974,-4.2974,-4.2737,-4.1545,-4.0949,-4.0233,-3.9053,-3.7615,-3.6406,-3.6406,-3.4736,-3.3418,-3.3418,-3.3418,-3.3418,-3.3418,-3.3418,-3.3418,-3.3418,-3.3418,-3.3418,-3.3418,-3.3418,-3.3418,-3.3418,-3.3418,-3.3418,-3.3418,-3.3418,-3.3418,-3.3418,-3.3418,-3.3418,-3.3418,-3.3418,-3.3418,-3.3428,-3.375,-3.3896,-6.307,-6.3108,-6.2127,-5.8011,-5.703,-5.5868,-5.1329,-4.9914,-4.9424,-4.8996,-4.8568,-4.8306,-4.8306,-4.8306,-4.8067,-4.7297,-4.781,0.0,0.0,-4.7284,-4.724,-4.6767,-4.7541,-4.7564,-4.6194,-4.9187,-5.1268,-5.1386,-5.3573,-5.4433,-5.3254,-5.5559,-5.646,-5.5194,-5.5194,-5.5194,-5.5194,-5.5194,-5.5194,-5.5194,-5.5194,-5.4865,-5.4236,-5.4236,-5.3877,-5.3234,-5.3234,-5.3234,-5.3219,-5.3219,-5.3204,-5.3114,-5.2486,-5.2247,-5.2055,-5.0697,-4.8388,-4.5893,-4.5286,-4.4139,-4.2999,-4.2986,-4.2974,-4.2974,-4.2974,-4.2974,-4.2974,-4.2974,-4.2974,-4.2974,-4.2974,-4.2974,-4.2974,-4.2974,-4.2974,-4.2974,-4.2974,-4.1672,-4.0592,-4.0476,-3.917,-3.8104,-3.8104,-3.5468,-3.3418,-3.3418,-3.3418,-3.3418,-3.3418,-3.3418,-3.3418,-3.3418,-3.3418,-3.3418,-3.3418,-3.3418,-3.3418,-3.3418,-3.3418,-3.3418,-3.3418,-3.3418,-3.3418,-3.3418,-3.3418,-3.3418,-3.3418,-3.3418,-3.3418,-3.3418,-3.3437,-3.3447,0.0,0.0,-6.7186,-6.5763,0.0,-6.0641,-5.8576,-5.3648,-4.9295,-4.8621,-4.8383,-4.8306,-4.8306,-4.8306,-4.8214,-4.7957,-4.8122,-4.8214,0.0,-4.7247,-4.6272,-4.506,-4.4475,-4.4587,-4.5602,-4.457,-4.4874,-4.7378,-4.8067,-4.7934,-4.6986,-5.1452,-5.3605,-5.2561,-5.4266,-5.5194,-5.5194,-5.476,-5.4536,-5.4536,-5.4087,-5.3743,-5.3533,-5.3533,-5.3399,-5.3174,-5.3174,-5.2935,-5.2531,-5.2531,-5.2276,-5.1858,-5.1633,-5.1558,-5.1449,-5.1054,-4.969,-4.781,-4.5728,-4.4738,-4.4222,-4.3295,-4.2974,-4.2974,-4.2974,-4.2974,-4.2974,-4.2974,-4.2974,-4.2974,-4.2974,-4.2974,-4.2974,-4.2974,-4.2974,-4.2974,-4.2974,-4.2613,-4.2137,-4.2137,-4.0834,-3.9768,-3.9768,-3.7974,-3.6549,-3.6549,-3.5694,-3.4964,-3.4964,-3.4017,-3.3418,-3.3418,-3.3418,-3.3418,-3.3418,-3.3418,-3.3418,-3.3418,-3.3418,-3.3418,-3.3418,-3.3418,-3.3418,-3.3418,-3.3418,-3.3418,-3.3418,-3.3418,-3.3418,-3.3418,-3.3418,-3.3418,-7.111,-7.1937,0.0,-7.009,-6.7464,0.0,-6.2572,-5.768,-5.3381,-5.2729,-5.2601,-5.2179,-5.0729,-5.0472,-4.9994,-4.8545,-4.8306,-4.8214,0.0,-4.6805,-4.5439,-4.3926,-4.4061,-4.413,-4.3741,-4.2726,-4.2642,-4.3995,-4.5057,-4.5339,-4.4565,-5.0039,-5.2664,-5.1727,-5.3759,-5.4835,-5.4835,-5.4177,-5.3847,-5.3847,-5.3399,-5.3054,-5.283,-5.283,-5.2695,-5.2486,-5.2486,-5.2232,-5.1858,-5.1858,-5.1603,-5.1214,-5.1214,-5.1214,-5.1214,-5.1214,-5.0397,-4.8851,-4.6591,-4.5462,-4.4833,-4.4016,-4.3394,-4.2974,-4.2974,-4.2974,-4.2936,-4.2735,-4.2823,-4.2936,-4.2735,-4.2836,-4.2974,-4.2974,-4.2974,-4.2974,-4.2974,-4.2974,-4.2974,-4.2974,-4.2137,-4.1431,-4.1431,-4.0592,-3.9534,-3.8342,-3.7374,-3.6649,-3.6649,-3.5694,-3.486,-3.4248,-3.4258,-3.4017,-3.3418,-3.3418,-3.3418,-3.3418,-3.3418,-3.3418,-3.3418,-3.3418,-3.335,-3.3203,-3.335,-3.335,-3.3203,-3.335,-3.3418,-3.3418,-3.3418,-3.3418]}]]